[[{"header":{"parameterUnit":"m.s-1","parameterCategory":1,"la1":30.6,"la2":29.2853,"lo1":-89.7004,"lo2":-87.6739,"dy":0.0162,"dx":0.0183,"nx":112,"ny":82,"refTime":"2023-08-07T12:00:00:Z","depth":0,"parameterNumber":2,"parameterNumberName":"U-component_of_WINDS"},"data":[0.0,0.0,0.0,0.0,0.0,0.0,0.0,0.0,0.0,0.0,0.0,0.0,0.0,0.0,0.0,0.0,0.0,0.0,0.0,0.0,0.0,0.0,0.0,0.0,0.0,0.0,0.0,0.0,0.0,0.0,0.0,0.0,0.0,0.0,0.0,0.0,0.0,0.0,0.0,0.0,0.0,0.0,0.0,0.0,0.0,0.0,0.0,0.0,0.0,0.0,0.0,0.0,0.0,0.0,0.0,0.0,0.0,0.0,0.0,0.0,0.0,0.0,0.0,0.0,0.0,0.0,0.0,0.0,0.0,0.0,0.0,0.0,0.0,0.0,0.0,0.0,0.0,0.0,0.0,0.0,0.0,0.0,0.0,0.0,0.0,0.0,0.0,0.0,0.0,0.0,-1.5784,-1.5784,-1.5784,-1.5784,-1.5784,-1.5784,-1.6339,-1.7638,0.0,0.0,0.0,0.0,0.0,0.0,0.0,0.0,0.0,0.0,0.0,0.0,0.0,0.0,0.0,0.0,0.0,0.0,0.0,0.0,0.0,0.0,0.0,0.0,0.0,0.0,0.0,0.0,0.0,0.0,0.0,0.0,0.0,0.0,0.0,0.0,0.0,0.0,0.0,0.0,0.0,0.0,0.0,0.0,0.0,0.0,0.0,0.0,0.0,0.0,0.0,0.0,0.0,0.0,0.0,0.0,0.0,0.0,0.0,0.0,0.0,0.0,0.0,0.0,0.0,0.0,0.0,0.0,0.0,0.0,0.0,0.0,0.0,0.0,0.0,0.0,0.0,0.0,0.0,0.0,0.0,0.0,0.0,0.0,0.0,0.0,0.0,0.0,0.0,0.0,0.0,0.0,0.0,0.0,0.0,0.0,0.0,0.0,0.0,0.0,0.0,0.0,0.0,0.0,-1.5784,-1.5784,-1.5784,-1.5784,-1.5784,-1.5784,-1.6339,-1.7638,0.0,0.0,0.0,0.0,0.0,0.0,0.0,0.0,0.0,0.0,0.0,0.0,0.0,0.0,0.0,0.0,0.0,0.0,0.0,0.0,0.0,0.0,0.0,0.0,0.0,0.0,0.0,0.0,0.0,0.0,0.0,0.0,0.0,0.0,0.0,0.0,0.0,0.0,0.0,0.0,0.0,0.0,0.0,0.0,0.0,0.0,0.0,0.0,0.0,0.0,0.0,0.0,0.0,0.0,0.0,0.0,0.0,0.0,0.0,0.0,0.0,0.0,0.0,0.0,0.0,0.0,0.0,0.0,0.0,0.0,0.0,0.0,0.0,0.0,0.0,0.0,0.0,0.0,0.0,0.0,0.0,0.0,0.0,0.0,0.0,0.0,0.0,0.0,0.0,0.0,0.0,0.0,0.0,0.0,0.0,0.0,0.0,0.0,0.0,0.0,0.0,0.0,0.0,-1.5972,-1.6072,-1.6072,-1.6213,-1.6306,-1.6306,-1.6306,-1.6543,-1.712,-1.7014,0.0,0.0,0.0,0.0,0.0,0.0,0.0,0.0,0.0,0.0,0.0,0.0,0.0,0.0,0.0,0.0,0.0,0.0,0.0,0.0,0.0,0.0,0.0,0.0,0.0,0.0,0.0,0.0,0.0,0.0,0.0,0.0,0.0,0.0,0.0,0.0,0.0,0.0,0.0,0.0,0.0,0.0,0.0,0.0,0.0,0.0,0.0,0.0,0.0,0.0,0.0,0.0,0.0,0.0,0.0,0.0,0.0,0.0,0.0,0.0,0.0,0.0,0.0,0.0,0.0,0.0,0.0,0.0,0.0,0.0,0.0,0.0,0.0,0.0,0.0,0.0,0.0,0.0,0.0,0.0,0.0,0.0,0.0,0.0,0.0,0.0,0.0,0.0,0.0,0.0,0.0,0.0,0.0,0.0,0.0,0.0,0.0,0.0,0.0,0.0,0.0,0.0,-1.6233,-1.6373,-1.6373,-1.6573,-1.6707,-1.6707,-1.6707,-1.68,-1.7093,-1.693,0.0,0.0,0.0,0.0,0.0,0.0,0.0,0.0,0.0,0.0,0.0,0.0,0.0,0.0,0.0,0.0,0.0,0.0,0.0,0.0,0.0,0.0,0.0,0.0,0.0,0.0,0.0,0.0,0.0,0.0,0.0,0.0,0.0,0.0,0.0,0.0,0.0,0.0,0.0,0.0,0.0,0.0,0.0,0.0,0.0,0.0,0.0,0.0,0.0,0.0,0.0,0.0,0.0,0.0,0.0,0.0,0.0,0.0,0.0,0.0,0.0,0.0,0.0,0.0,0.0,0.0,0.0,0.0,0.0,0.0,0.0,0.0,0.0,0.0,0.0,0.0,0.0,0.0,0.0,0.0,0.0,0.0,0.0,0.0,0.0,0.0,0.0,0.0,0.0,0.0,0.0,0.0,0.0,0.0,0.0,0.0,0.0,0.0,0.0,0.0,0.0,0.0,-1.666,-1.6673,-1.6673,-1.6693,-1.6707,-1.6707,-1.6707,-1.7193,-1.8311,-1.8339,0.0,0.0,0.0,0.0,0.0,0.0,0.0,0.0,0.0,0.0,0.0,0.0,0.0,0.0,0.0,0.0,0.0,0.0,0.0,0.0,0.0,0.0,0.0,0.0,0.0,0.0,0.0,0.0,0.0,0.0,0.0,0.0,0.0,0.0,0.0,0.0,0.0,0.0,0.0,0.0,0.0,0.0,0.0,0.0,0.0,0.0,0.0,0.0,0.0,0.0,0.0,0.0,0.0,0.0,0.0,0.0,0.0,0.0,0.0,0.0,0.0,0.0,0.0,0.0,0.0,0.0,0.0,0.0,0.0,0.0,0.0,0.0,0.0,0.0,0.0,0.0,0.0,0.0,0.0,0.0,0.0,0.0,0.0,0.0,0.0,0.0,0.0,0.0,0.0,0.0,0.0,0.0,0.0,0.0,0.0,0.0,0.0,0.0,0.0,0.0,0.0,0.0,-1.6867,-1.7032,-1.7032,-1.7148,-1.7255,-1.7255,-1.7255,-1.7455,-1.7904,0.0,0.0,0.0,0.0,0.0,0.0,0.0,0.0,0.0,0.0,0.0,0.0,0.0,0.0,0.0,0.0,0.0,0.0,0.0,0.0,0.0,0.0,0.0,0.0,0.0,0.0,0.0,0.0,0.0,0.0,0.0,0.0,0.0,0.0,0.0,0.0,0.0,0.0,0.0,0.0,0.0,0.0,0.0,0.0,0.0,0.0,0.0,0.0,0.0,0.0,0.0,0.0,0.0,0.0,0.0,0.0,0.0,0.0,0.0,0.0,0.0,0.0,0.0,0.0,0.0,0.0,0.0,0.0,0.0,0.0,0.0,0.0,0.0,0.0,0.0,0.0,0.0,0.0,0.0,0.0,0.0,0.0,0.0,0.0,0.0,0.0,0.0,0.0,0.0,0.0,0.0,0.0,0.0,0.0,0.0,0.0,0.0,0.0,0.0,0.0,0.0,0.0,-1.6974,-1.7213,-1.734,-1.734,-1.7514,-1.7582,-1.7582,-1.7582,-1.7786,-1.8199,0.0,0.0,0.0,0.0,0.0,0.0,0.0,0.0,0.0,0.0,0.0,0.0,0.0,0.0,0.0,0.0,0.0,0.0,0.0,0.0,0.0,0.0,0.0,0.0,0.0,0.0,0.0,0.0,0.0,0.0,0.0,0.0,0.0,0.0,0.0,0.0,0.0,0.0,0.0,0.0,0.0,0.0,0.0,0.0,0.0,0.0,0.0,0.0,0.0,0.0,0.0,0.0,0.0,0.0,0.0,0.0,0.0,0.0,0.0,0.0,0.0,0.0,0.0,0.0,0.0,0.0,0.0,0.0,0.0,0.0,0.0,0.0,0.0,0.0,0.0,0.0,0.0,0.0,0.0,0.0,0.0,0.0,0.0,0.0,0.0,0.0,0.0,0.0,0.0,0.0,0.0,0.0,0.0,0.0,0.0,0.0,0.0,0.0,0.0,0.0,0.0,0.0,-1.7549,-1.7635,-1.7635,-1.7635,-1.7635,-1.7635,-1.7635,-1.7635,-1.8199,0.0,0.0,0.0,0.0,0.0,0.0,0.0,0.0,0.0,0.0,0.0,0.0,0.0,0.0,0.0,0.0,0.0,0.0,0.0,0.0,0.0,0.0,0.0,0.0,0.0,0.0,0.0,0.0,0.0,0.0,0.0,0.0,0.0,0.0,0.0,0.0,0.0,0.0,0.0,0.0,0.0,0.0,0.0,0.0,0.0,0.0,0.0,0.0,0.0,0.0,0.0,0.0,0.0,0.0,0.0,0.0,0.0,0.0,0.0,0.0,0.0,0.0,0.0,0.0,0.0,0.0,0.0,0.0,0.0,0.0,0.0,0.0,0.0,0.0,0.0,0.0,0.0,0.0,0.0,0.0,0.0,0.0,0.0,0.0,0.0,0.0,0.0,0.0,0.0,0.0,0.0,0.0,0.0,0.0,0.0,0.0,0.0,0.0,0.0,0.0,0.0,0.0,0.0,-1.7569,-1.8454,-1.902,-1.902,-1.9878,-2.0479,-2.0479,-2.0479,-2.0231,-1.9627,0.0,0.0,0.0,0.0,0.0,0.0,0.0,0.0,0.0,0.0,0.0,0.0,0.0,0.0,0.0,0.0,0.0,0.0,0.0,0.0,0.0,0.0,0.0,0.0,0.0,0.0,0.0,0.0,0.0,0.0,0.0,0.0,0.0,0.0,0.0,0.0,0.0,0.0,0.0,0.0,0.0,0.0,0.0,0.0,0.0,0.0,0.0,0.0,0.0,0.0,0.0,0.0,0.0,0.0,0.0,0.0,0.0,0.0,0.0,0.0,0.0,0.0,0.0,0.0,0.0,0.0,0.0,0.0,0.0,0.0,0.0,0.0,0.0,0.0,0.0,0.0,0.0,0.0,0.0,0.0,0.0,0.0,0.0,0.0,0.0,0.0,0.0,0.0,0.0,0.0,0.0,0.0,0.0,0.0,0.0,0.0,0.0,0.0,0.0,0.0,0.0,0.0,-1.7802,-1.8952,-1.9874,-2.0009,-2.0796,-2.1518,-2.214,-2.2192,-2.2037,-2.1778,0.0,0.0,0.0,0.0,0.0,0.0,0.0,0.0,0.0,0.0,0.0,0.0,0.0,0.0,0.0,0.0,0.0,0.0,0.0,0.0,0.0,0.0,0.0,0.0,0.0,0.0,0.0,0.0,0.0,0.0,0.0,0.0,0.0,0.0,0.0,0.0,0.0,0.0,0.0,0.0,0.0,0.0,0.0,0.0,0.0,0.0,0.0,0.0,0.0,0.0,0.0,0.0,0.0,0.0,0.0,0.0,0.0,0.0,0.0,0.0,0.0,0.0,0.0,0.0,0.0,0.0,0.0,0.0,0.0,0.0,0.0,0.0,0.0,0.0,0.0,0.0,0.0,0.0,0.0,0.0,0.0,0.0,0.0,0.0,0.0,0.0,0.0,0.0,0.0,0.0,0.0,0.0,0.0,0.0,0.0,0.0,0.0,0.0,0.0,0.0,0.0,0.0,-1.8576,-1.9701,-2.0696,-2.1048,-2.1187,-2.1832,-2.3174,-2.3271,-2.3755,-2.4916,0.0,0.0,0.0,0.0,0.0,0.0,0.0,0.0,0.0,0.0,0.0,0.0,0.0,0.0,0.0,0.0,0.0,0.0,0.0,0.0,0.0,0.0,0.0,0.0,0.0,0.0,0.0,0.0,0.0,0.0,0.0,0.0,0.0,0.0,0.0,0.0,0.0,0.0,0.0,0.0,0.0,0.0,0.0,0.0,0.0,0.0,0.0,0.0,0.0,0.0,0.0,0.0,0.0,0.0,0.0,0.0,0.0,0.0,0.0,0.0,-1.6279,-1.6306,0.0,0.0,0.0,0.0,0.0,0.0,0.0,0.0,0.0,0.0,0.0,0.0,0.0,0.0,0.0,0.0,0.0,0.0,0.0,0.0,0.0,0.0,0.0,0.0,0.0,0.0,0.0,0.0,0.0,0.0,0.0,0.0,0.0,0.0,0.0,0.0,0.0,0.0,0.0,0.0,-2.1721,-2.31,-2.3974,-2.4053,-2.5029,-2.5783,-2.6102,-2.6111,-2.5783,-2.5029,-2.5989,0.0,0.0,0.0,0.0,0.0,0.0,0.0,0.0,0.0,0.0,0.0,0.0,0.0,0.0,0.0,0.0,0.0,0.0,0.0,0.0,0.0,0.0,0.0,0.0,0.0,0.0,0.0,0.0,0.0,0.0,0.0,0.0,0.0,0.0,0.0,0.0,0.0,0.0,0.0,0.0,0.0,0.0,0.0,0.0,0.0,0.0,0.0,0.0,0.0,0.0,0.0,0.0,0.0,0.0,0.0,0.0,0.0,0.0,0.0,-1.6607,-1.6567,0.0,0.0,0.0,0.0,0.0,0.0,0.0,0.0,0.0,0.0,0.0,0.0,0.0,0.0,0.0,0.0,0.0,0.0,0.0,0.0,0.0,0.0,0.0,0.0,0.0,0.0,0.0,0.0,0.0,0.0,0.0,0.0,0.0,0.0,0.0,0.0,0.0,0.0,0.0,0.0,-2.3087,-2.4341,-2.5269,-2.5521,-2.6141,-2.6855,-2.7575,-2.7627,-2.7356,-2.6635,-2.7241,0.0,0.0,0.0,0.0,0.0,0.0,0.0,0.0,0.0,0.0,0.0,0.0,0.0,0.0,0.0,0.0,0.0,0.0,0.0,0.0,0.0,0.0,0.0,0.0,0.0,0.0,0.0,0.0,0.0,0.0,0.0,0.0,0.0,0.0,0.0,0.0,0.0,0.0,0.0,0.0,0.0,0.0,0.0,0.0,0.0,0.0,0.0,0.0,0.0,0.0,0.0,0.0,0.0,-1.678,-1.6807,-1.686,-1.686,-1.6994,-1.7259,-1.6967,-1.686,-1.686,-1.686,0.0,0.0,0.0,0.0,0.0,0.0,0.0,0.0,0.0,0.0,0.0,0.0,0.0,0.0,0.0,0.0,0.0,0.0,0.0,0.0,0.0,0.0,-1.8146,-1.8146,-1.9488,-2.0265,-1.8549,0.0,0.0,0.0,0.0,0.0,0.0,0.0,0.0,0.0,0.0,0.0,-2.433,-2.5228,-2.6061,-2.6454,-2.649,-2.6997,-2.8184,-2.8291,-2.8291,-2.8291,-2.8291,-2.8291,0.0,0.0,0.0,0.0,0.0,0.0,0.0,0.0,0.0,0.0,0.0,0.0,0.0,0.0,0.0,0.0,0.0,0.0,0.0,0.0,0.0,0.0,0.0,0.0,0.0,0.0,0.0,0.0,0.0,0.0,0.0,0.0,-1.8272,-1.818,0.0,0.0,0.0,0.0,0.0,0.0,0.0,0.0,0.0,0.0,0.0,0.0,0.0,-1.6647,-1.6647,-1.6687,-1.6834,-1.7139,-1.7139,-1.7273,-1.7468,-1.7468,-1.7488,-1.7522,-1.7482,0.0,-1.7468,-1.7468,0.0,0.0,0.0,0.0,0.0,0.0,0.0,0.0,0.0,0.0,0.0,0.0,0.0,0.0,0.0,0.0,0.0,0.0,0.0,0.0,0.0,0.0,-2.0264,-2.0264,-2.1462,-2.2482,-2.2234,-2.2197,-2.2176,-2.2176,-2.2217,-2.2249,0.0,0.0,0.0,0.0,0.0,0.0,-2.7533,-2.781,-2.7946,-2.8004,-2.8014,-2.8067,-2.8291,-2.8291,-2.8291,-2.8291,-2.8291,-2.8291,-2.8291,-2.8242,0.0,0.0,0.0,0.0,0.0,0.0,0.0,0.0,0.0,0.0,0.0,0.0,0.0,0.0,0.0,0.0,0.0,0.0,0.0,0.0,0.0,0.0,0.0,0.0,0.0,0.0,0.0,0.0,0.0,-1.9261,-1.8457,-1.7777,-1.6574,-1.5784,0.0,0.0,0.0,0.0,0.0,0.0,0.0,0.0,0.0,-1.67,-1.6867,-1.7005,-1.7005,-1.7114,-1.7268,-1.744,-1.744,-1.7555,-1.7842,-1.7842,-1.7936,-1.8096,-1.8096,-1.8096,-1.8063,-1.7722,-1.7582,-1.7582,0.0,0.0,0.0,0.0,-1.7949,-1.8096,-1.8096,-1.8096,-1.8096,-1.8096,0.0,0.0,0.0,0.0,0.0,0.0,0.0,-1.8705,-1.9497,-2.0241,-2.0924,-2.1725,-2.321,-2.4438,-2.4438,-2.5209,-2.5352,-2.3302,-2.3074,-2.3154,-2.3154,-2.4167,0.0,0.0,0.0,-2.7555,-2.8237,-2.8291,-2.8291,-2.8291,-2.8291,-2.8291,-2.8291,-2.8291,-2.8291,-2.8291,-2.8291,-2.8291,-2.8291,-2.8291,-2.8291,0.0,0.0,0.0,0.0,0.0,0.0,0.0,0.0,0.0,0.0,0.0,0.0,0.0,0.0,0.0,0.0,0.0,0.0,0.0,0.0,0.0,0.0,0.0,0.0,0.0,0.0,0.0,0.0,-1.894,-1.8218,-1.7311,-1.6386,-1.5811,0.0,0.0,0.0,0.0,0.0,0.0,-1.68,-1.682,-1.6854,-1.6927,-1.7192,-1.7347,-1.7382,-1.7589,-1.7742,-1.7816,-1.7816,-1.7936,-1.8109,-1.8109,-1.8277,-1.849,-1.849,-1.849,-1.8457,-1.8003,-1.7816,-1.7816,-1.7816,-1.7956,-1.8109,-1.8109,-1.8303,-1.849,-1.849,-1.849,-1.849,-1.849,-1.8544,-1.8604,-1.8604,0.0,0.0,0.0,0.0,-1.9633,-2.1135,-2.1775,-2.2365,-2.3443,-2.5067,-2.6308,-2.6308,-2.7336,-2.7491,-2.4801,-2.4487,-2.4633,-2.4633,-2.5748,0.0,-2.6801,-2.7771,-2.8496,-2.8603,-2.8613,-2.8613,-2.8613,-2.8613,-2.8613,-2.8613,-2.8613,-2.8613,-2.8613,-2.8613,-2.8574,-2.8457,-2.8447,-2.8398,-2.8291,0.0,0.0,0.0,0.0,0.0,0.0,0.0,0.0,0.0,0.0,0.0,0.0,0.0,0.0,0.0,0.0,0.0,0.0,0.0,0.0,0.0,0.0,0.0,0.0,0.0,0.0,0.0,0.0,0.0,-1.592,-1.5825,0.0,0.0,0.0,0.0,-1.666,-1.6687,-1.6814,-1.7166,-1.7179,-1.7306,-1.7528,-1.7555,-1.7702,-1.7949,-1.7962,-1.8163,-1.8444,-1.8444,-1.8457,-1.847,-1.847,-1.8477,-1.849,-1.849,-1.849,-1.849,-1.8457,-1.8444,-1.8444,-1.8444,-1.8457,-1.847,-1.847,-1.8477,-1.849,-1.849,-1.849,-1.849,-1.849,-1.8677,-1.8905,-1.8905,-1.9098,0.0,0.0,-2.142,-2.176,-2.3263,-2.4705,-2.5873,-2.5928,-2.7067,-2.8145,-2.8145,-2.8228,-2.8228,-2.8072,-2.8019,-2.8038,-2.8038,0.0,-2.832,-2.8709,-2.8832,-2.9033,-2.9453,-2.9502,-2.9502,-2.9502,-2.9502,-2.9502,-2.9502,-2.9502,-2.9502,-2.9502,-2.9502,-2.9316,-2.8906,-2.8887,-2.8701,-2.8301,-2.8291,0.0,0.0,0.0,0.0,0.0,0.0,0.0,0.0,0.0,0.0,0.0,0.0,0.0,0.0,0.0,0.0,0.0,0.0,0.0,0.0,0.0,0.0,0.0,0.0,0.0,0.0,0.0,0.0,-1.592,-1.5999,0.0,-1.6308,-1.644,-1.6673,-1.7018,-1.7038,-1.7172,-1.7467,-1.7615,-1.7776,-1.7822,-1.807,-1.8223,-1.833,-1.833,-1.8484,-1.8771,-1.8771,-1.8965,-1.9332,-1.9332,-1.9432,-1.9613,-1.9613,-1.9613,-1.9665,-2.0755,-2.0124,-1.849,-1.849,-1.8604,-1.8771,-1.8771,-1.8891,-1.9052,-1.9052,-1.9052,-1.9223,-2.0203,-2.055,-2.0806,-2.1752,-2.2117,-2.2322,-2.2878,-2.3039,-2.3375,-2.4875,-2.5904,-2.6719,-2.7672,-2.8504,-2.9121,-2.9121,-2.9121,-2.9121,-2.9121,-2.8887,-2.8789,-2.9062,-2.9121,-2.917,-2.9316,-2.9336,-2.9394,-2.9551,-2.9626,-2.9626,-2.9626,-2.9626,-2.9626,-2.9626,-2.9626,-2.9626,-2.9626,-2.9626,-2.9502,-2.9346,-2.9336,-2.9131,-2.8701,-2.8701,-2.8564,0.0,0.0,0.0,0.0,0.0,0.0,0.0,0.0,0.0,0.0,0.0,0.0,0.0,0.0,0.0,0.0,0.0,0.0,0.0,0.0,0.0,0.0,0.0,0.0,0.0,-1.6895,-1.6918,-1.6074,-1.6239,-1.646,-1.661,-1.674,-1.6981,-1.7326,-1.7395,-1.7535,-1.7729,-1.8029,-1.8196,-1.8196,-1.8484,-1.8684,-1.8784,-1.8885,-1.9078,-1.9366,-1.9366,-1.9566,-1.9947,-1.9947,-2.0054,-2.0173,-2.0173,-2.053,-2.112,-2.2237,-2.1904,-2.0732,-2.0732,-2.0863,-2.0988,-2.0988,-2.1126,-2.1307,-2.1307,-2.1307,-2.1474,-2.2483,-2.2762,-2.2933,-2.3958,-2.4241,-2.4355,-2.487,-2.4983,-2.5319,-2.6903,-2.7502,-2.7939,-2.891,-2.9355,-2.9626,-2.9626,-2.9626,-2.9665,-2.9756,-2.9434,-2.9228,-2.9521,-2.9626,-2.9675,-2.9756,-2.9785,-2.9834,-3.0,-3.0019,-3.0019,-3.0019,-3.0019,-3.0019,-3.0019,-3.0019,-3.0019,-3.0019,-3.0019,-2.9941,-2.9785,-2.9785,-2.958,-2.915,-2.8994,-2.8779,-2.8506,0.0,0.0,0.0,0.0,0.0,0.0,0.0,0.0,0.0,0.0,0.0,0.0,0.0,0.0,0.0,0.0,0.0,0.0,0.0,0.0,0.0,0.0,0.0,-1.766,-1.6847,-1.6279,-1.6335,-1.6547,-1.6834,-1.7172,-1.7219,-1.7347,-1.7575,-1.7883,-1.8009,-1.8009,-1.835,-1.8517,-1.8517,-1.8811,-1.9105,-1.9392,-1.9673,-1.996,-2.0247,-2.0247,-2.0193,-2.0261,-2.0261,-2.0261,-2.0261,-2.0261,-2.1208,-2.2744,-2.2855,-2.3779,-2.5219,-2.5144,-2.5069,-2.5069,-2.5069,-2.5069,-2.5069,-2.5069,-2.5069,-2.5136,-2.5136,-2.5194,-2.5186,-2.5244,-2.5244,-2.5542,-2.695,-2.7359,-2.771,-2.9225,-2.9636,-2.9646,-2.9646,-2.9655,-2.9665,-2.9665,-2.9665,-2.9792,-3.0137,-2.9893,-2.9665,-2.9665,-2.9665,-2.9746,-3.0156,-3.0215,0.0,-3.083,-3.0889,-3.0898,-3.0908,-3.0898,-3.0898,-3.0908,-3.0898,-3.0889,-3.0889,-3.0889,-3.0693,-3.0234,-3.0215,-3.0019,-2.9655,-2.916,-2.8935,-2.8935,0.0,0.0,0.0,0.0,0.0,0.0,0.0,0.0,0.0,0.0,0.0,0.0,0.0,0.0,0.0,0.0,0.0,0.0,0.0,0.0,0.0,-1.7839,-1.7662,-1.6814,-1.6462,-1.6353,-1.656,-1.6847,-1.7112,-1.7192,-1.7542,-1.7829,-1.7862,-1.8196,-1.837,-1.837,-1.8851,-1.9125,-1.9125,-1.9613,-1.9913,-1.9993,-2.0074,-2.0261,-2.0555,-2.0555,-2.0668,-2.0869,-2.0869,-2.0869,-2.0931,-2.2148,-2.2943,-2.3542,-2.5876,-2.707,-2.7314,-2.5754,-2.5069,-2.5069,-2.5069,-2.5069,-2.5069,-2.5069,-2.5069,-2.531,-2.6359,-2.6712,-2.6884,-2.805,-2.8342,-2.8455,-2.8869,-2.8981,-2.9047,-2.9505,-2.9795,-3.0029,-3.0029,-3.0283,-3.0527,-3.0527,-3.0527,-3.0566,-3.0674,-3.0605,-3.0527,-3.0527,-3.0527,-3.0566,-3.0684,-3.0703,-3.0742,-3.0869,-3.0889,-3.1006,-3.1309,-3.1074,-3.1016,-3.1318,-3.1064,-3.0889,-3.0889,-3.0889,-3.083,-3.0703,-3.0703,-3.0488,-3.0029,-2.9609,-2.9394,0.0,0.0,0.0,0.0,0.0,0.0,0.0,0.0,0.0,0.0,0.0,0.0,0.0,0.0,0.0,0.0,0.0,0.0,0.0,0.0,0.0,0.0,-1.7246,-1.7169,-1.6756,-1.669,-1.675,-1.6874,-1.7268,-1.7528,-1.7528,-1.7956,-1.823,-1.823,-1.8617,-1.8858,-1.8858,-1.9412,-1.9733,-1.9733,-2.018,-2.0421,-2.0421,-2.0541,-2.0688,-2.0855,-2.0855,-2.1009,-2.1296,-2.1296,-2.1797,-2.2596,-2.3598,-2.4843,-2.6315,-2.7999,-2.9099,-2.953,0.0,0.0,0.0,0.0,-2.7557,-2.7557,-2.7557,-2.7557,-2.7683,-2.8522,-2.8819,-2.8992,-2.988,-3.0117,-3.0117,-3.0117,-3.0117,-3.0117,-3.0117,-3.0303,-3.0488,-3.0488,-3.083,-3.1152,-3.1152,-3.1299,-3.1426,-3.1426,-3.1426,0.0,-3.1426,-3.1133,-3.0889,-3.0889,-3.0889,-3.0889,-3.0889,-3.0889,-3.0986,-3.123,-3.1035,-3.0986,-3.123,-3.1035,0.0,0.0,0.0,-3.0889,-3.0889,-3.0889,0.0,0.0,0.0,-2.9834,-2.9834,-2.9658,0.0,0.0,-2.8525,-2.833,0.0,0.0,0.0,0.0,0.0,0.0,0.0,0.0,0.0,0.0,0.0,0.0,0.0,0.0,0.0,0.0,-1.6375,-1.6616,-1.7172,-1.728,-1.73,-1.73,-1.7749,-1.8042,-1.8042,-1.8364,-1.8551,-1.8584,-1.9105,-1.9491,-1.9466,-1.9987,0.0,0.0,0.0,-2.0728,-2.0728,-2.1015,-2.1162,-2.1162,-2.1196,-2.1471,-2.192,-2.192,-2.3006,-2.4918,-2.5103,-2.6876,-2.9696,-2.9535,-3.0274,-3.1543,-3.1074,-3.0889,-3.0889,-3.0889,-3.0889,-3.0889,-3.0889,0.0,0.0,-3.0889,-3.0889,-3.0889,-3.0889,-3.0889,-3.0889,-3.0889,-3.0928,-3.0957,-3.0957,-3.0996,-3.1035,-3.1035,-3.1318,-3.1592,-3.1592,-3.1894,-3.2229,-3.2229,-3.2229,-3.2229,-3.2229,-3.1533,-3.1035,-3.1035,-3.1035,-3.1035,-3.1035,-3.1035,-3.1055,-3.1103,-3.1064,0.0,-3.1103,-3.1064,-3.1016,-3.0967,-3.0918,-3.0889,-3.0889,-3.0889,-3.0889,-3.0889,-3.0488,-3.0273,-3.0273,-2.9902,-2.9744,-2.9629,-2.9199,-2.8789,0.0,0.0,0.0,0.0,0.0,0.0,0.0,0.0,0.0,0.0,0.0,0.0,0.0,0.0,0.0,-1.6551,-1.6723,-1.7152,-1.7501,-1.7716,-1.7876,-1.7876,-1.819,-1.8404,-1.8404,-1.8671,-1.8938,-1.9178,-1.9519,-1.982,-2.0054,-2.0401,-2.0588,-2.0588,-2.0875,-2.1029,-2.1029,-2.1323,-2.1534,-2.1534,-2.1704,0.0,-2.3997,-2.3997,-2.505,-2.6837,-2.8146,-2.9093,-2.9776,-3.1049,-3.1789,-3.1963,-3.1191,-3.0889,-3.0889,-3.0889,-3.0889,-3.0889,-3.0889,-3.0889,-3.0889,-3.0889,-3.0889,-3.0889,-3.0889,-3.0889,0.0,-3.0889,-3.1133,-3.1396,-3.1396,-3.166,-3.1924,-3.1924,-3.1982,-3.2041,-3.2041,-3.2109,-3.2229,-3.2229,-3.2229,-3.2229,-3.2229,-3.2031,-3.1924,-3.1924,-3.1924,-3.1924,-3.1924,-3.1924,-3.2051,-3.2393,-3.2119,-3.206,-3.2393,-3.2119,-3.1768,-3.1416,-3.1074,-3.0889,-3.0889,-3.0889,-3.0889,-3.0889,-3.0801,-3.0752,-3.0752,-3.0674,-3.0439,-3.0068,-2.9639,-2.9404,0.0,0.0,0.0,0.0,0.0,0.0,0.0,0.0,0.0,0.0,0.0,-2.0972,-1.9119,0.0,-1.794,-1.693,-1.7132,-1.7468,-1.7769,-1.8203,-1.8375,-1.829,-1.8531,-1.8704,-1.8704,-1.9105,-1.9426,-1.9573,-1.9993,-2.0301,-2.0448,-2.0735,-2.0895,-2.0895,-2.1036,-2.1613,-2.2631,-2.1977,-2.2134,-2.3099,-2.3255,-2.3855,-2.485,-2.5745,-2.7188,-2.9105,-2.9932,-3.0762,-3.1596,-3.2241,-3.2353,-3.219,-3.1699,-3.1533,-3.1533,-3.1533,-3.1533,-3.1533,-3.1533,-3.1387,-3.1201,-3.1201,-3.1201,-3.1201,-3.1201,-3.1357,-3.1533,-3.1533,-3.168,-3.1846,-3.1846,-3.2002,-3.2229,-3.2229,-3.2324,-3.248,-3.248,-3.2646,-3.2793,-3.2793,-3.2793,-3.2793,-3.2793,-3.2793,-3.2656,-3.2226,-3.2229,-3.2229,-3.2229,-3.2229,-3.2307,-3.2461,-3.2295,-3.2256,-3.2461,-3.2285,-3.207,-3.1855,-3.1641,-3.1435,-3.1211,-3.1201,-3.1103,-3.0898,-3.0889,-3.0889,-3.0889,-3.0889,-3.0771,-3.0537,-3.0322,-3.0,0.0,0.0,0.0,0.0,0.0,0.0,0.0,0.0,-2.3086,-2.2571,-2.1989,-2.1095,-1.9565,-1.9005,-1.8433,-1.7445,-1.8039,-1.8536,-1.8224,-1.9112,-1.9514,-1.8733,-1.8871,-1.9032,-1.9085,-1.9519,-1.9846,-1.996,-2.0408,-2.0702,-2.0755,-2.0982,-2.1229,-2.1601,-2.1662,-2.249,-2.4179,-2.3235,-2.3429,-2.4693,-2.5077,-2.5635,-2.6226,-2.7661,-2.9374,-3.1304,-3.1304,-3.2091,-3.3389,-3.3057,-3.2715,-3.2412,-3.2412,-3.2412,-3.2393,-3.2226,-3.2229,-3.2229,-3.2229,-3.1934,-3.1641,-3.1641,-3.1641,-3.1641,-3.1641,-3.1894,-3.2229,-3.2229,-3.2287,-3.2285,-3.2285,-3.2353,-3.2412,-3.2412,-3.2666,-3.292,-3.292,-3.3184,-3.3418,-3.3418,-3.3418,-3.3418,-3.3418,-3.3418,-3.3193,-3.2519,-3.2412,-3.2412,-3.2412,-3.2412,-3.2412,-3.2412,-3.2412,-3.2412,-3.2412,-3.2334,-3.2285,-3.2285,-3.2217,-3.2012,-3.166,-3.1641,-3.1445,-3.1025,-3.1016,-3.0976,-3.0889,-3.0889,-3.0889,-3.0889,-3.0889,-3.0508,-2.3091,-2.3091,-2.3091,-2.3091,-2.3091,-2.3091,0.0,0.0,-2.3052,-2.0758,-2.0493,-1.9983,-1.7527,-1.8506,-1.917,-1.7784,-2.0249,-2.1472,-1.9108,-2.1173,-2.1976,-1.9577,-1.9357,-1.9419,-1.9679,-1.976,-2.0013,-2.0541,-2.0641,-2.0788,-2.1049,-2.1089,-2.179,-2.3263,-2.3662,-2.3888,-2.3989,-2.6032,-2.6364,-2.5045,-2.6917,-2.8654,-3.0183,-3.0377,-3.1396,-3.3092,-3.3092,-3.3219,-3.3418,-3.3369,-3.333,-3.3281,-3.3281,-3.3281,-3.3193,-3.2441,-3.2229,-3.2229,-3.2229,-3.2139,-3.21,-3.21,-3.21,-3.21,-3.21,-3.219,-3.2229,-3.2229,-3.2441,-3.2725,-3.2725,-3.2998,-3.3281,-3.3281,-3.332,-3.335,-3.335,-3.3389,-3.3418,-3.3418,-3.3418,-3.3418,-3.3418,-3.3418,-3.3389,-3.3301,-3.3281,-3.3281,-3.3281,-3.3281,-3.3281,-3.3281,-3.3281,-3.3281,-3.3281,-3.2939,-3.2725,-3.2725,-3.2373,-3.2209,-3.21,-3.21,-3.1894,-3.1455,-3.1445,-3.126,-3.0889,-3.0889,-3.0889,-3.0889,-3.0889,-3.084,-2.3091,-2.3091,-2.3091,-2.3091,-2.333,-2.3516,-2.3516,-2.3848,-2.3628,-2.1734,-2.17,-2.1487,-1.9918,-2.0507,-2.0854,-1.9587,-2.1548,-2.2197,-1.9287,-2.16,-2.3015,-2.1213,-2.1827,-2.1713,-1.9957,-2.0987,-2.1423,-2.0779,-2.1748,-2.2455,-2.2522,-2.3435,-2.4371,-2.5326,-2.5539,-2.6305,-2.7727,-2.7727,-2.792,-2.8446,-2.9323,-3.0125,-3.0836,-3.1835,-3.2692,-3.3418,-3.3418,-3.3418,-3.3418,-3.3418,-3.3418,-3.3418,-3.3418,-3.3418,-3.3379,-3.3027,-3.29,-3.29,-3.29,-3.2744,-3.2529,-3.2529,-3.2529,-3.2529,-3.2529,-3.2705,-3.29,-3.29,-3.3027,-3.3164,-3.3164,-3.3291,-3.3418,-3.3418,-3.3418,-3.3418,-3.3418,-3.3418,-3.3418,-3.3418,-3.3418,-3.3418,-3.3418,-3.3418,-3.3418,-3.3418,-3.3418,-3.3418,-3.3418,-3.3418,-3.3418,-3.3418,-3.3418,-3.3418,-3.3418,-3.3262,-3.3164,-3.3164,-3.2998,-3.2793,-3.2549,-3.2529,-3.2334,-3.1904,-3.1894,-3.1807,-3.1631,-3.1631,-3.1631,-3.1631,-3.1631,-3.1631,-2.3091,-2.3179,-2.3276,-2.3276,-2.3643,-2.3965,-2.3965,-2.4287,-2.4114,-2.2378,-2.2641,-2.2827,-2.153,-2.1898,-2.2213,-2.155,-2.2977,-2.3214,-2.064,-2.2999,-2.4513,-2.3001,-2.4678,-2.4729,-2.1714,-2.2849,-2.3103,-2.1637,-2.3192,-2.4232,-2.4232,-2.5383,-2.6394,-2.7272,-2.7382,-2.8373,-3.0311,-2.9657,-2.9787,-3.0836,-3.1304,-3.1497,-3.157,-3.2829,-3.3418,-3.3418,-3.3418,-3.3418,-3.3418,-3.3418,-3.3418,-3.3418,-3.3418,-3.3418,-3.3418,-3.3418,-3.3418,-3.3418,-3.3418,-3.3223,-3.2969,-3.2969,-3.2969,-3.2969,-3.2969,-3.3184,-3.3418,-3.3418,-3.3418,-3.3418,-3.3418,-3.3418,-3.3418,-3.3418,-3.3418,-3.3418,-3.3418,-3.3418,-3.3418,-3.3418,-3.3418,-3.3418,-3.3418,-3.3418,-3.3418,-3.3418,-3.3418,-3.3418,-3.3418,-3.3418,-3.3418,-3.3418,-3.3418,-3.3418,-3.3418,-3.3418,-3.3418,-3.3418,-3.3418,-3.3281,-3.2978,-3.2969,-3.2773,-3.2353,-3.2344,-3.2285,-3.2229,-3.2229,-3.2229,-3.2229,-3.2229,-3.2229,-2.3091,0.0,-2.3769,-2.3769,-2.4082,-2.4394,-2.4394,-2.4736,-2.4298,-2.1582,-2.2432,-2.2972,-2.0775,-2.1648,-2.2848,-2.3273,-2.4835,-2.5472,-2.3861,-2.6273,-2.721,-2.4723,-2.7388,-2.836,-2.5678,-2.5423,-2.4868,-2.3591,-2.5016,-2.5924,-2.5924,-2.5976,-2.6942,-2.8943,-2.9382,-2.9779,-3.0194,-3.221,-3.2419,-3.0836,-3.2492,-3.3292,-3.3292,-3.3355,-3.3418,-3.3418,-3.3418,-3.3418,-3.3418,-3.3418,-3.3418,-3.3418,-3.3418,-3.3418,-3.3418,-3.3418,-3.3418,-3.3418,-3.3418,-3.3418,-3.3408,-3.3408,-3.3408,-3.3408,-3.3408,-3.3408,-3.3418,-3.3418,-3.3418,-3.3418,-3.3418,-3.3418,-3.3418,-3.3418,-3.3418,-3.3418,-3.3418,-3.3418,-3.3418,-3.3418,-3.3418,-3.3418,-3.3418,-3.3418,-3.3418,-3.3418,-3.3418,-3.3418,-3.3418,-3.3418,-3.3418,-3.3418,-3.3418,-3.3418,-3.3418,-3.3418,-3.3418,-3.3418,-3.3418,-3.3418,-3.3408,-3.3408,-3.3203,-3.2783,-3.2773,-3.2578,-3.2229,-3.2229,-3.2229,-3.2229,-3.2229,-3.2229,-2.3496,0.0,-2.3857,-2.4141,-2.4531,-2.4844,-2.4844,-2.5185,-2.5005,-2.318,-2.3996,-2.4582,-2.322,-2.4181,-2.5072,-2.4747,-2.5237,-2.5189,-2.3956,-2.5544,-2.6747,-2.639,-2.8258,-2.9022,-2.7615,-2.743,-2.6816,-2.5314,-2.6651,-2.7563,-2.7563,-2.8673,-2.9849,-3.1098,-3.1321,-3.166,-3.2346,-3.3024,-3.3092,-3.2556,-3.3092,-3.3418,-3.3418,-3.3418,-3.3418,-3.3418,-3.3418,-3.3418,-3.3418,-3.3418,-3.3418,-3.3418,-3.3418,-3.3418,-3.3418,-3.3418,-3.3418,-3.3418,-3.3418,-3.3418,-3.3418,-3.3418,-3.3418,-3.3418,-3.3418,-3.3418,-3.3418,-3.3418,-3.3418,-3.3418,-3.3418,-3.3418,-3.3418,-3.3418,-3.3418,-3.3418,-3.3418,-3.3418,-3.3418,-3.3418,-3.3418,-3.3418,-3.3418,-3.3418,-3.3418,-3.3418,-3.3418,-3.3418,-3.3418,-3.3418,-3.3418,-3.3418,-3.3418,-3.3418,-3.3418,-3.3418,-3.3418,-3.3418,-3.3418,-3.3418,-3.3418,-3.3418,-3.335,-3.3213,-3.3213,-3.3144,-3.2998,-3.2998,-3.2998,-3.2998,-3.2998,-3.2998,-2.3672,-2.3896,-2.4121,-2.4541,-2.498,-2.5303,-2.5303,-2.5527,-2.5323,-2.3998,-2.4766,-2.5399,-2.4459,-2.5006,-2.5654,-2.5949,-2.5625,-2.5371,-2.5205,-2.6182,-2.7186,-2.8014,-2.8991,-2.9496,-2.9319,-2.9285,-2.8605,-2.6953,-2.8358,-2.9285,-2.9285,-3.0333,-3.1289,-3.2139,-3.2229,-3.2578,-3.3418,-3.3418,-3.3418,-3.3418,-3.3418,-3.3418,-3.3418,-3.3418,-3.3418,-3.3418,-3.3418,-3.3418,-3.3418,-3.3418,-3.3418,-3.3418,-3.3418,-3.3418,-3.3418,-3.3418,-3.3418,-3.3418,-3.3418,-3.3418,-3.3418,-3.3418,-3.3418,-3.3418,-3.3418,-3.3418,-3.3418,-3.3418,-3.3418,-3.3418,-3.3418,-3.3418,-3.3418,-3.3418,-3.3418,-3.3418,-3.3418,-3.3418,-3.3418,-3.3418,-3.3418,-3.3418,-3.3418,-3.3418,-3.3418,-3.3418,-3.3418,-3.3418,-3.3418,-3.3418,-3.3418,-3.3418,-3.3418,-3.3418,-3.3418,-3.3418,-3.3418,-3.3418,-3.3418,-3.3418,-3.3418,-3.3418,-3.3418,-3.3418,-3.3418,-3.3418,-3.3418,-3.3418,-3.3418,-3.3418,-3.3418,-3.3418,-2.3701,-2.4131,-2.4551,-2.499,-2.543,-2.5693,-2.5693,-2.5693,-2.5323,-2.4048,-2.4815,-2.5448,0.0,0.0,-2.4794,-2.665,-2.6091,-2.592,-2.749,-2.7965,-2.8549,0.0,0.0,-2.9922,-3.081,-3.0889,-3.0265,-2.8664,-3.002,-3.0889,-3.0889,-3.0889,-3.1289,-3.2139,-3.2229,-3.2578,-3.3418,-3.3418,-3.3418,-3.3418,-3.3418,-3.3418,-3.3418,-3.3418,-3.3418,-3.3418,-3.3418,-3.3418,-3.3418,-3.3418,-3.3418,-3.3418,-3.3418,-3.3418,-3.3418,-3.3418,-3.3418,-3.3418,-3.3418,-3.3418,-3.3418,-3.3418,-3.3418,-3.3418,-3.3418,-3.3418,-3.3418,-3.3418,-3.3418,-3.3418,-3.3418,-3.3418,-3.3418,-3.3418,-3.3418,-3.3418,-3.3418,-3.3418,-3.3418,-3.3418,-3.3418,-3.3418,-3.3418,-3.3418,-3.3418,-3.3418,-3.3418,-3.3418,-3.3418,-3.3418,-3.3418,-3.3418,-3.3418,-3.3418,-3.3418,-3.3418,-3.3418,-3.3418,-3.3418,-3.3418,-3.3418,-3.3418,-3.3418,-3.3418,-3.3418,-3.3418,-3.3418,-3.3418,-3.3418,-3.3418,-3.3418,-3.3418,-2.4141,-2.457,-2.501,-2.5459,-2.5606,-2.5693,-2.5693,-2.5693,-2.5586,-2.5274,-2.5479,-2.5616,0.0,0.0,0.0,-2.6425,-2.5671,0.0,-2.7451,-2.7075,0.0,-2.9351,0.0,-2.9922,-3.081,-3.0889,-3.0704,-3.0274,-3.0645,-3.0889,-3.0889,-3.0889,-3.1289,-3.2139,-3.2229,-3.2578,-3.3418,-3.3418,-3.3418,-3.3418,-3.3418,-3.3418,-3.3418,-3.3418,-3.3418,-3.3418,-3.3418,-3.3418,-3.3418,-3.3418,-3.3418,-3.3418,-3.3418,-3.3418,-3.3418,-3.3418,-3.3418,-3.3418,-3.3418,-3.3418,-3.3418,-3.3418,-3.3418,-3.3418,-3.3418,-3.3418,-3.3418,-3.3418,-3.3418,-3.3418,-3.3418,-3.3418,-3.3418,-3.3418,-3.3418,-3.3418,-3.3418,-3.3418,-3.3418,-3.3418,-3.3418,-3.3418,-3.3418,-3.3418,-3.3418,-3.3418,-3.3418,-3.3418,-3.3418,-3.3418,-3.3418,-3.3418,-3.3418,-3.3418,-3.3418,-3.3418,-3.3418,-3.3418,-3.3418,-3.3418,-3.3418,-3.3418,-3.3418,-3.3418,-3.3418,-3.3418,-3.3418,-3.3418,-3.3418,-3.3418,-3.3418,-3.3418,-2.4307,-2.4736,-2.5223,-2.5577,-2.5693,-2.5693,-2.5693,-2.5693,-2.5693,-2.5693,-2.5693,0.0,-2.5693,-2.5693,0.0,0.0,0.0,0.0,-2.724,-2.7184,-2.7697,0.0,-2.9626,0.0,-3.081,-3.0889,-3.0889,-3.0889,-3.0889,-3.0889,-3.0889,-3.0889,-3.1201,-3.1865,-3.207,-3.2578,-3.3418,-3.3418,-3.3418,-3.3418,-3.3418,-3.3418,-3.3418,-3.3418,-3.3418,-3.3418,-3.3418,-3.3418,-3.3418,-3.3418,-3.3418,-3.3418,-3.3418,-3.3418,-3.3418,-3.3418,-3.3418,-3.3418,-3.3418,-3.3418,-3.3418,-3.3418,-3.3418,-3.3418,-3.3418,-3.3418,-3.3418,-3.3418,-3.3418,-3.3418,-3.3418,-3.3418,-3.3418,-3.3418,-3.3418,-3.3418,-3.3418,-3.3418,-3.3418,-3.3418,-3.3418,-3.3418,-3.3418,-3.3418,-3.3418,-3.3418,-3.3418,-3.3418,-3.3418,-3.3418,-3.3418,-3.3418,-3.3418,-3.3418,-3.3418,-3.3418,-3.3418,-3.3418,-3.3418,-3.3418,-3.3418,-3.3418,-3.3418,-3.3418,-3.3418,-3.3418,-3.3418,-3.3418,-3.3418,-3.3418,-3.3418,-3.3418,-2.4316,-2.4775,-2.5254,-2.5596,-2.5693,-2.5674,-2.5615,-2.5645,-2.5674,-2.5615,0.0,-2.5693,-2.5693,-2.5693,-2.5693,-2.5693,0.0,-2.7012,-2.7012,-2.7754,-2.8584,-2.9385,-2.9531,-2.9893,-3.0723,-3.0859,-3.0889,-3.0889,-3.0889,-3.0889,-3.0889,-3.0889,-3.1103,-3.1592,-3.2021,-3.2627,-3.3418,-3.3418,-3.3418,-3.3418,-3.3418,-3.3418,-3.3418,-3.3418,-3.3418,-3.3418,-3.3418,-3.3418,-3.3418,-3.3418,-3.3418,-3.3418,-3.3418,-3.3418,-3.3418,-3.3418,-3.3418,-3.3418,-3.3418,-3.3418,-3.3418,-3.3418,-3.3418,-3.3418,-3.3418,-3.3418,-3.3418,-3.3418,-3.3418,-3.3418,-3.3418,-3.3418,-3.3418,-3.3418,-3.3418,-3.3418,-3.3418,-3.3418,-3.3418,-3.3418,-3.3418,-3.3418,-3.3418,-3.3418,-3.3418,-3.3418,-3.3418,-3.3418,-3.3418,-3.3418,-3.3418,-3.3418,-3.3418,-3.3418,-3.3418,-3.3418,-3.3418,-3.3418,-3.3418,-3.3418,-3.3418,-3.3418,-3.3418,-3.3418,-3.3418,-3.3418,-3.3418,-3.3418,-3.3418,-3.3418,-3.3418,-3.3418,-2.4394,-2.501,-2.5596,-2.5674,-2.5693,-2.5596,-2.5273,-2.5469,0.0,0.0,-2.5478,-2.5693,-2.5693,-2.5693,-2.5693,-2.5693,0.0,0.0,0.0,-2.7754,-2.8476,0.0,-2.9346,-2.9766,-3.0264,-3.0664,-3.0889,-3.0889,-3.0889,-3.0889,-3.0889,-3.0889,-3.125,-3.2031,-3.2461,-3.292,-3.3418,-3.3418,-3.3418,-3.3418,-3.3418,-3.3418,-3.3418,-3.3418,-3.3418,-3.3418,-3.3418,-3.3418,-3.3418,-3.3418,-3.3418,-3.3418,-3.3418,-3.3418,-3.3418,-3.3418,-3.3418,-3.3418,-3.3418,-3.3418,-3.3418,-3.3418,-3.3418,-3.3418,-3.3418,-3.3418,-3.3418,-3.3418,-3.3418,-3.3418,-3.3418,-3.3418,-3.3418,-3.3418,-3.3418,-3.3418,-3.3418,-3.3418,-3.3418,-3.3418,-3.3418,-3.3418,-3.3418,-3.3418,-3.3418,-3.3418,-3.3418,-3.3418,-3.3418,-3.3418,-3.3418,-3.3418,-3.3418,-3.3418,-3.3418,-3.3418,-3.3418,-3.3418,-3.3418,-3.3418,-3.3418,-3.3418,-3.3418,-3.3418,-3.3418,-3.3418,-3.3418,-3.3418,-3.3418,-3.3418,-3.3418,-3.3418,-2.4414,-2.5021,-2.5693,-2.5693,-2.5566,-2.5332,-2.5117,0.0,0.0,0.0,-2.543,-2.5693,-2.5693,0.0,0.0,0.0,0.0,0.0,0.0,0.0,0.0,-2.8867,-2.9307,-2.9736,-3.0156,-3.0615,-3.0889,-3.0889,-3.0889,-3.0889,-3.0889,-3.0889,-3.1182,-3.1807,-3.2246,-3.2666,-3.3086,-3.331,-3.3418,-3.3418,-3.3418,-3.3418,-3.3418,-3.3418,-3.3418,-3.3418,-3.3418,-3.3418,-3.3418,-3.3418,-3.3418,-3.3418,-3.3418,-3.3418,-3.3418,-3.3418,-3.3418,-3.3418,-3.3418,-3.3418,-3.3418,-3.3418,-3.3418,-3.3418,-3.3418,-3.3418,-3.3418,-3.3418,-3.3418,-3.3418,-3.3418,-3.3418,-3.3418,-3.3418,-3.3418,-3.3418,-3.3418,-3.3418,-3.3418,-3.3418,-3.3418,-3.3418,-3.3418,-3.3418,-3.3418,-3.3418,-3.3418,-3.3418,-3.3418,-3.3418,-3.3418,-3.3418,-3.3418,-3.3418,-3.3418,-3.3418,-3.3418,-3.3418,-3.3418,-3.3418,-3.3418,-3.3418,-3.3418,-3.3418,-3.3418,-3.3418,-3.3418,-3.3418,-3.3418,-3.3418,-3.3418,-3.3418,-2.4277,-2.4853,-2.5411,-2.5411,-2.5185,-2.4949,-2.4861,-2.491,0.0,0.0,-2.5283,-2.5577,-2.5674,0.0,0.0,0.0,0.0,0.0,0.0,0.0,0.0,0.0,-2.917,0.0,-3.0019,-3.0478,-3.0781,-3.0889,-3.0889,-3.0889,-3.0889,-3.0889,-3.1084,-3.1504,-3.1943,-3.2363,-3.2793,-3.3213,-3.3418,-3.3418,-3.3418,-3.3418,-3.3418,-3.3418,-3.3418,-3.3418,-3.3418,-3.3418,-3.3418,-3.3418,-3.3418,-3.3418,-3.3418,-3.3418,-3.3418,-3.3418,-3.3418,-3.3418,-3.3418,-3.3418,-3.3418,-3.3418,-3.3418,-3.3418,-3.3418,-3.3418,-3.3418,-3.3418,-3.3418,-3.3418,-3.3418,-3.3418,-3.3418,-3.3418,-3.3418,-3.3418,-3.3418,-3.3418,-3.3418,-3.3418,-3.3418,-3.3418,-3.3418,-3.3418,-3.3418,-3.3418,-3.3418,-3.3418,-3.3418,-3.3418,-3.3418,-3.3418,-3.3418,-3.3418,-3.3418,-3.3418,-3.3418,-3.3418,-3.3418,-3.3418,-3.3418,-3.3418,-3.3418,-3.3418,-3.3418,-3.3418,-3.3418,-3.3418,-3.3418,-3.3418,-3.3418,-3.3418,-2.3848,-2.418,-2.4541,-2.4541,-2.4512,-2.4375,-2.3994,0.0,0.0,-2.4473,-2.4824,-2.5254,-2.5615,0.0,0.0,0.0,0.0,0.0,0.0,0.0,0.0,0.0,0.0,0.0,-2.959,-3.001,-3.043,-3.0859,-3.0889,-3.0889,-3.0889,-3.0889,-3.1084,-3.1504,-3.1943,-3.2363,-3.2793,-3.3213,-3.3418,-3.3418,-3.3418,-3.3418,-3.3418,-3.3418,-3.3418,-3.3418,-3.3418,-3.3418,-3.3418,-3.3418,-3.3418,-3.3418,-3.3418,-3.3418,-3.3418,-3.3418,-3.3418,-3.3418,-3.3418,-3.3418,-3.3418,-3.3418,-3.3418,-3.3418,-3.3418,-3.3418,-3.3418,-3.3418,-3.3418,-3.3418,-3.3418,-3.3418,-3.3418,-3.3418,-3.3418,-3.3418,-3.3418,-3.3418,-3.3418,-3.3418,-3.3418,-3.3418,-3.3418,-3.3418,-3.3418,-3.3418,-3.3418,-3.3418,-3.3418,-3.3418,-3.3418,-3.3418,-3.3418,-3.3418,-3.3418,-3.3418,-3.3418,-3.3418,-3.3418,-3.3418,-3.3418,-3.3418,-3.3418,-3.3418,-3.3418,-3.3418,-3.3418,-3.3418,-3.3418,-3.3418,-3.3418,-3.3418,-2.3789,-2.4092,-2.4414,-2.4414,-2.4228,-2.3994,-2.3828,0.0,-2.4111,-2.4365,-2.4766,-2.5205,-2.5606,0.0,0.0,0.0,0.0,0.0,0.0,0.0,0.0,0.0,-2.8662,0.0,-2.9531,-2.9951,-3.0391,-3.0859,-3.0889,-3.0889,-3.0889,-3.0889,-3.0967,-3.1133,-3.1553,-3.1982,-3.2412,-3.2832,-3.3174,-3.3418,-3.3418,-3.3418,-3.3418,-3.3418,-3.3418,-3.3418,-3.3418,-3.3418,-3.3418,-3.3418,-3.3418,-3.3418,-3.3418,-3.3418,-3.3418,-3.3418,-3.3418,-3.3418,-3.3418,-3.3418,-3.3418,-3.3418,-3.3418,-3.3418,-3.3418,-3.3418,-3.3418,-3.3418,-3.3418,-3.3418,-3.3418,-3.3418,-3.3418,-3.3418,-3.3418,-3.3418,-3.3418,-3.3418,-3.3418,-3.3418,-3.3418,-3.3418,-3.3418,-3.3418,-3.3418,-3.3418,-3.3418,-3.3418,-3.3418,-3.3418,-3.3418,-3.3418,-3.3418,-3.3418,-3.3418,-3.3418,-3.3418,-3.3418,-3.3418,-3.3418,-3.3418,-3.3418,-3.3418,-3.3418,-3.3418,-3.3418,-3.3418,-3.3418,-3.3418,-3.3418,-3.3418,-3.3418,-2.3594,-2.3809,-2.4043,-2.4043,-2.3818,-2.3594,0.0,0.0,-2.376,-2.4307,-2.4658,-2.5049,-2.5586,0.0,0.0,0.0,0.0,0.0,0.0,0.0,0.0,0.0,0.0,-2.8955,-2.9512,-3.0078,-3.0537,-3.0869,-3.0889,-3.0889,-3.0889,-3.0889,-3.0889,-3.0889,-3.1299,-3.1728,-3.2229,-3.2588,-3.3008,-3.3418,-3.3418,-3.3418,-3.3418,-3.3418,-3.3418,-3.3418,-3.3418,-3.3418,-3.3418,-3.3418,-3.3418,-3.3418,-3.3418,-3.3418,-3.3418,-3.3418,-3.3418,-3.3418,-3.3418,-3.3418,-3.3418,-3.3418,-3.3418,-3.3418,-3.3418,-3.3418,-3.3418,-3.3418,-3.3418,-3.3418,-3.3418,-3.3418,-3.3418,-3.3418,-3.3418,-3.3418,-3.3418,-3.3418,-3.3418,-3.3418,-3.3418,-3.3418,-3.3418,-3.3418,-3.3418,-3.3418,-3.3418,-3.3418,-3.3418,-3.3418,-3.3418,-3.3418,-3.3418,-3.3418,-3.3418,-3.3418,-3.3418,-3.3418,-3.3418,-3.3418,-3.3418,-3.3418,-3.3418,-3.3418,-3.3418,-3.3418,-3.3418,-3.3418,-3.3418,-3.3418,-3.3418,-3.3418,-2.3101,-2.311,-2.311,-2.311,-2.311,-2.3101,0.0,0.0,0.0,-2.4238,-2.4424,-2.4687,-2.5528,0.0,0.0,0.0,0.0,0.0,0.0,0.0,0.0,0.0,0.0,-2.8633,-2.9548,-3.0371,-3.0889,-3.0889,-3.0889,-3.0889,-3.0889,-3.0889,-3.0889,-3.0889,-3.1299,-3.1728,-3.2229,-3.2588,-3.3008,-3.3418,-3.3418,-3.3418,-3.3418,-3.3418,-3.3418,-3.3418,-3.3418,-3.3418,-3.3418,-3.3418,-3.3418,-3.3418,-3.3418,-3.3418,-3.3418,-3.3418,-3.3418,-3.3418,-3.3418,-3.3418,-3.3418,-3.3418,-3.3418,-3.3418,-3.3418,-3.3418,-3.3418,-3.3418,-3.3418,-3.3418,-3.3418,-3.3418,-3.3418,-3.3418,-3.3418,-3.3418,-3.3418,-3.3418,-3.3418,-3.3418,-3.3418,-3.3418,-3.3418,-3.3418,-3.3418,-3.3418,-3.3418,-3.3418,-3.3418,-3.3418,-3.3418,-3.3418,-3.3418,-3.3418,-3.3418,-3.3418,-3.3418,-3.3418,-3.3418,-3.3418,-3.3418,-3.3418,-3.3418,-3.3418,-3.3418,-3.3418,-3.3418,-3.3418,-3.3418,-3.3418,-3.3418,-3.3418,-2.3091,-2.3091,-2.3091,-2.3091,-2.3091,-2.3091,-2.3091,0.0,0.0,0.0,-2.4414,0.0,0.0,0.0,0.0,0.0,0.0,0.0,0.0,0.0,0.0,-2.8262,-2.8809,-2.9277,-2.9597,-3.0371,-3.0889,-3.0889,-3.0889,-3.0889,-3.0889,-3.0889,-3.0889,-3.0889,-3.1025,-3.1289,-3.1719,-3.2148,-3.2578,-3.2998,-3.3281,-3.3418,-3.3418,-3.3418,-3.3418,-3.3418,-3.3418,-3.3418,-3.3418,-3.3418,-3.3418,-3.3418,-3.3418,-3.3418,-3.3418,-3.3418,-3.3418,-3.3418,-3.3418,-3.3418,-3.3418,-3.3418,-3.3418,-3.3418,-3.3418,-3.3418,-3.3418,-3.3418,-3.3418,-3.3418,-3.3418,-3.3418,-3.3418,-3.3418,-3.3418,-3.3418,-3.3418,-3.3418,-3.3418,-3.3418,-3.3418,-3.3418,-3.3418,-3.3418,-3.3418,-3.3418,-3.3418,-3.3418,-3.3418,-3.3418,-3.3418,-3.3418,-3.3418,-3.3418,-3.3418,-3.3418,-3.3418,-3.3418,-3.3418,-3.3418,-3.3418,-3.3418,-3.3418,-3.3418,-3.3418,-3.3418,-3.3418,-3.3418,-3.3418,-3.3418,-3.3418,-3.3418,0.0,-2.3091,-2.3091,-2.3091,-2.3091,0.0,0.0,0.0,0.0,0.0,0.0,0.0,0.0,0.0,0.0,0.0,0.0,0.0,0.0,0.0,0.0,-2.8242,-2.9053,-2.9626,-2.9626,-3.0371,-3.0889,-3.0889,-3.0889,-3.0889,-3.0889,-3.0889,-3.0889,-3.0889,-3.0889,-3.1094,-3.1514,-3.1953,-3.2383,-3.2803,-3.3223,-3.3418,-3.3418,-3.3418,-3.3418,-3.3418,-3.3418,-3.3418,0.0,-3.3418,-3.3418,-3.3418,-3.3418,-3.3418,-3.3418,-3.3418,-3.3418,-3.3418,-3.3418,-3.3418,-3.3418,-3.3418,-3.3418,-3.3418,-3.3418,-3.3418,-3.3418,-3.3418,-3.3418,-3.3418,-3.3418,-3.3418,-3.3418,-3.3418,-3.3418,-3.3418,-3.3418,-3.3418,-3.3418,-3.3418,-3.3418,-3.3418,-3.3418,-3.3418,-3.3418,-3.3418,-3.3418,-3.3418,-3.3418,-3.3418,-3.3418,-3.3418,-3.3418,-3.3418,-3.3418,-3.3418,-3.3418,-3.3418,-3.3418,-3.3418,-3.3418,-3.3418,-3.3418,-3.3418,-3.3418,-3.3418,-3.3418,-3.3418,-3.3418,-3.3418,-3.3418,-3.3418,0.0,0.0,0.0,0.0,0.0,0.0,0.0,0.0,0.0,0.0,0.0,0.0,0.0,0.0,0.0,0.0,0.0,0.0,0.0,-2.7412,0.0,0.0,-2.9053,-2.9626,-2.9626,-3.0371,-3.0889,-3.0889,-3.0889,-3.0889,-3.0889,-3.0889,-3.0889,-3.0889,-3.0889,-3.1074,-3.1475,-3.1904,-3.2324,-3.2705,-3.3164,-3.3379,-3.3379,-3.3408,-3.3418,-3.3418,-3.3418,-3.3418,-3.3418,-3.3418,-3.3418,-3.3418,-3.3418,-3.3418,-3.3418,-3.3418,-3.3418,-3.3418,-3.3418,-3.3418,-3.3418,-3.3418,-3.3418,-3.3418,-3.3418,-3.3418,-3.3418,-3.3418,-3.3418,-3.3418,-3.3418,-3.3418,-3.3418,-3.3418,-3.3418,-3.3418,-3.3418,-3.3418,-3.3418,-3.3418,-3.3418,-3.3418,-3.3418,-3.3418,-3.3418,-3.3418,-3.3418,-3.3418,-3.3418,-3.3418,-3.3418,-3.3418,-3.3418,-3.3418,-3.3418,-3.3418,-3.3418,-3.3418,-3.3418,-3.3418,-3.3418,-3.3418,-3.3418,-3.3418,-3.3418,-3.3418,-3.3418,-3.3418,-3.3418,-3.3418,-3.3418,-3.3418,-2.3091,0.0,-2.3091,-2.3091,-2.3091,0.0,0.0,0.0,0.0,0.0,0.0,0.0,0.0,0.0,0.0,0.0,0.0,0.0,-2.6914,0.0,0.0,-2.8281,-2.9053,-2.9626,-2.9626,-3.0371,-3.0889,-3.0889,-3.0889,-3.0889,-3.0889,-3.0889,-3.0889,-3.0889,-3.0889,-3.0937,-3.1035,-3.1455,-3.1719,-3.1826,-3.2588,-3.2939,-3.2949,-3.3271,-3.3418,-3.3418,-3.3418,-3.3418,-3.3418,-3.3418,-3.3418,-3.3418,-3.3418,-3.3418,-3.3418,-3.3418,-3.3418,-3.3418,-3.3418,-3.3418,-3.3418,-3.3418,-3.3418,-3.3418,-3.3418,-3.3418,-3.3418,-3.3418,-3.3418,-3.3418,-3.3418,-3.3418,-3.3418,-3.3418,-3.3418,-3.3418,-3.3418,-3.3418,-3.3418,-3.3418,-3.3418,-3.3418,-3.3418,-3.3418,-3.3418,-3.3418,-3.3418,-3.3418,-3.3418,-3.3418,-3.3418,-3.3418,-3.3418,-3.3418,-3.3418,-3.3418,-3.3418,-3.3418,-3.3418,-3.3418,-3.3418,-3.3418,-3.3418,-3.3418,-3.3418,-3.3418,-3.3418,-3.3418,-3.3418,-3.3418,-3.3418,-3.3418,-2.3091,-2.3091,-2.3091,-2.3091,-2.3091,-2.3091,0.0,0.0,0.0,0.0,0.0,0.0,0.0,0.0,0.0,0.0,-2.5908,0.0,0.0,0.0,-2.8291,-2.8291,-2.9053,-2.9626,-2.9626,-3.0371,-3.0889,-3.0889,-3.0889,-3.0889,-3.0889,-3.0889,-3.0889,-3.0889,-3.0889,-3.0889,-3.0889,-3.1309,-3.1514,-3.1523,-3.2187,-3.2607,-3.2803,-3.3027,-3.3242,-3.3418,-3.3418,-3.3418,-3.3418,-3.3418,-3.3418,-3.3418,-3.3418,-3.3418,-3.3418,-3.3418,-3.3418,-3.3418,-3.3418,-3.3418,-3.3418,-3.3418,-3.3418,-3.3418,-3.3418,-3.3418,-3.3418,-3.3418,-3.3418,-3.3418,-3.3418,-3.3418,-3.3418,-3.3418,-3.3418,-3.3418,-3.3418,-3.3418,-3.3418,-3.3418,-3.3418,-3.3418,-3.3418,-3.3418,-3.3418,-3.3418,-3.3418,-3.3418,-3.3418,-3.3418,-3.3418,-3.3418,-3.3418,-3.3418,-3.3418,-3.3418,-3.3418,-3.3418,-3.3418,-3.3418,-3.3418,-3.3418,-3.3418,-3.3418,-3.3418,-3.3418,-3.3418,-3.3418,-3.3418,-3.3418,-3.3418,-3.3418,-2.3091,-2.3091,-2.3091,-2.3091,-2.3091,-2.3091,0.0,0.0,0.0,0.0,0.0,0.0,0.0,0.0,0.0,0.0,0.0,0.0,-2.7611,-2.8027,-2.8291,-2.8291,-2.9053,-2.9626,-2.9626,-3.0371,-3.0889,-3.0889,-3.0889,-3.0889,-3.0889,-3.0889,-3.0889,-3.0889,-3.0889,-3.0889,-3.0889,-3.124,-3.1426,-3.1426,-3.1865,-3.2256,-3.2598,-3.2666,-3.2891,-3.3232,-3.3232,-3.3271,-3.333,-3.333,-3.3359,-3.3418,-3.3418,-3.3418,-3.3418,-3.3418,-3.3418,-3.3418,-3.3418,-3.3418,-3.3418,-3.3418,-3.3418,-3.3418,-3.3418,-3.3418,-3.3418,-3.3418,-3.3418,-3.3418,-3.3418,-3.3418,-3.3418,-3.3418,-3.3418,-3.3418,-3.3418,-3.3418,-3.3418,-3.3418,-3.3418,-3.3418,-3.3418,-3.3418,-3.3418,-3.3418,-3.3418,-3.3418,-3.3418,-3.3418,-3.3418,-3.3418,-3.3418,-3.3418,-3.3418,-3.3418,-3.3418,-3.3418,-3.3418,-3.3418,-3.3418,-3.3418,-3.3418,-3.3418,-3.3418,-3.3418,-3.3418,-3.3418,-3.3418,-3.3418,-3.3418,-3.3418,-2.3091,-2.3091,-2.3091,-2.3091,-2.3091,-2.3091,0.0,0.0,0.0,0.0,0.0,0.0,0.0,0.0,-2.5693,0.0,0.0,-2.709,-2.765,-2.8027,-2.8291,-2.8291,-2.9053,-2.9626,-2.9626,-3.0371,-3.0889,-3.0889,-3.0889,-3.0889,-3.0889,-3.0889,-3.0889,-3.0889,-3.0889,-3.0889,-3.0889,-3.0957,-3.0986,-3.0996,-3.1416,-3.165,-3.1728,-3.209,-3.2305,-3.2363,-3.2363,-3.2559,-3.2891,-3.2891,-3.3105,-3.3418,-3.3418,-3.3418,-3.3418,-3.3418,-3.3418,-3.3418,-3.3418,-3.3418,-3.3418,-3.3418,-3.3418,-3.3418,-3.3418,-3.3418,-3.3418,-3.3418,-3.3418,-3.3418,-3.3418,-3.3418,-3.3418,-3.3418,-3.3418,-3.3418,-3.3418,-3.3418,-3.3418,-3.3418,-3.3418,-3.3418,-3.3418,-3.3418,-3.3418,-3.3418,-3.3418,-3.3418,-3.3418,-3.3418,-3.3418,-3.3418,-3.3418,-3.3418,-3.3418,-3.3418,-3.3418,-3.3418,-3.3418,-3.3418,-3.3418,-3.3418,-3.3418,-3.3418,-3.3418,-3.3418,-3.3418,-3.3418,-3.3418,-3.3418,-3.3418,-3.3418,-2.3091,-2.3091,-2.3091,-2.3091,-2.3091,-2.3159,-2.3437,0.0,0.0,0.0,0.0,0.0,0.0,0.0,-2.584,-2.6357,-2.6758,-2.7246,-2.791,-2.8174,-2.8291,-2.8291,-2.9053,-2.9626,-2.9626,-3.0371,-3.0889,-3.0889,-3.0889,-3.0889,-3.0889,-3.0889,-3.0889,-3.0889,-3.0889,-3.0889,-3.0889,-3.0889,-3.0889,-3.0889,-3.1084,-3.1299,-3.1523,-3.1728,-3.1943,-3.2229,-3.2229,-3.2275,-3.2461,-3.2461,-3.2568,-3.2744,-3.2744,-3.2744,-3.2773,-3.2998,-3.3223,-3.3418,-3.3418,-3.3271,-3.3086,-3.3086,-3.293,-3.2744,-3.2744,-3.2744,-3.2744,-3.2744,-3.3076,-3.3418,-3.3418,-3.3418,-3.3418,-3.3418,-3.3418,-3.3418,-3.3418,-3.3418,-3.3418,-3.3418,-3.3418,-3.3418,-3.3418,-3.3418,-3.3418,-3.3418,-3.3418,-3.3418,-3.3418,-3.3418,-3.3418,-3.3418,-3.3418,-3.3418,-3.3418,-3.3418,-3.3418,-3.3418,-3.3418,-3.3418,-3.3418,-3.3418,-3.3418,-3.3418,-3.3418,-3.3418,-3.3418,-3.3418,-3.3418,-3.3418,-3.3418,-3.3301,-2.3091,-2.3091,-2.312,-2.3218,0.0,-2.3379,-2.3711,0.0,0.0,0.0,0.0,0.0,0.0,-2.5693,0.0,-2.6875,-2.7012,-2.7314,-2.8174,-2.8291,-2.8291,-2.8291,-2.9053,-2.9626,-2.9626,-3.0371,-3.1054,-3.1383,-3.1112,-3.1228,-3.1883,-3.1604,-3.1546,-3.194,-3.194,-3.194,-3.194,-3.194,-3.1777,-3.1441,-3.1441,-3.1784,-3.2377,-3.2377,-3.2569,-3.2892,-3.2555,-3.2435,-3.2525,-3.2193,-3.207,-3.2229,-3.2229,-3.2229,-3.2268,-3.2529,-3.2851,-3.3125,-3.3125,-3.292,-3.2646,-3.2646,-3.2432,-3.2229,-3.2229,-3.2229,-3.2229,-3.2229,-3.2627,-3.3125,-3.3125,-3.3125,-3.3125,-3.3125,-3.3125,-3.3125,-3.3125,-3.3125,-3.3125,-3.3125,-3.3125,-3.3125,-3.3125,-3.3125,-3.3125,-3.3125,-3.3125,-3.3125,-3.3125,-3.3125,-3.3125,-3.3125,-3.3125,-3.3125,-3.3125,-3.3125,-3.3125,-3.3125,-3.331,-3.3418,-3.3418,-3.333,-3.3271,-3.3271,-3.3174,-3.3125,-3.3125,-3.3125,-3.3125,-3.3125,-3.3125,-3.2949,-2.3091,-2.3091,-2.3188,-2.3643,-2.374,0.0,-2.3779,-2.4434,0.0,-2.5106,0.0,0.0,0.0,-2.5693,-2.5966,-2.6875,-2.7012,-2.7314,-2.8174,-2.8291,-2.8291,-2.8291,-2.9053,-2.9626,-2.9626,-3.0371,-3.1498,-3.2861,-3.1662,-3.2102,-3.4858,-3.3687,-3.3575,-3.4958,-3.4958,-3.4958,-3.4958,-3.4958,-3.4303,-3.2907,-3.2907,-3.3642,-3.5013,-3.5013,-3.5035,-3.5013,-3.3625,-3.3241,-3.3522,-3.2127,-3.1807,-3.2229,-3.2229,-3.2229,-3.2178,-3.2207,-3.2226,-3.2256,-3.2256,-3.2297,-3.2217,-3.2217,-3.2187,-3.2229,-3.2229,-3.2229,-3.2229,-3.2229,-3.2217,-3.2256,-3.2256,-3.2256,-3.2256,-3.2256,-3.2256,-3.2256,-3.2256,-3.2256,-3.2256,-3.2256,-3.2256,-3.2256,-3.2256,-3.2256,-3.2256,-3.2256,-3.2256,-3.2256,-3.2256,-3.2256,-3.2256,-3.2256,-3.2256,-3.2256,-3.2256,-3.2256,-3.2256,-3.2256,-3.2988,-3.3418,-3.3418,-3.3047,-3.2842,-3.2842,-3.2461,-3.2256,-3.2256,-3.2256,-3.2256,-3.2256,-3.2256,-3.2246,-2.3091,-2.3091,-2.3198,-2.3682,0.0,0.0,0.0,0.0,-2.5194,-2.543,-2.5567,0.0,0.0,0.0,-2.5966,-2.6875,-2.7012,-2.7314,-2.8174,-2.8291,-2.8291,-2.8291,-2.8809,-2.9644,-3.0874,-3.0654,-3.156,-3.4281,-3.3088,-3.3145,-3.5189,-3.4792,-3.4736,-3.5288,-3.5288,-3.5288,-3.5288,-3.5288,-3.5508,-3.5825,-3.4902,-3.4736,-3.5288,-3.5288,-3.4792,-3.3901,-3.335,-3.268,-3.1902,-3.1348,-3.1221,-3.1377,-3.1377,-3.1533,-3.1768,-3.1768,-3.1934,-3.2229,-3.2229,-3.1992,-3.1768,-3.1768,-3.1592,-3.1377,-3.1377,-3.1377,-3.1377,-3.1377,-3.1377,-3.1494,-3.2031,-3.2229,-3.2229,-3.2229,-3.2229,-3.2229,-3.2229,-3.2229,-3.2229,-3.2229,-3.2229,-3.2229,-3.2229,-3.2229,-3.2229,-3.2229,-3.2229,-3.2229,-3.2229,-3.2229,-3.2229,-3.2229,-3.2229,-3.2229,-3.2229,-3.2229,-3.2229,-3.2229,-3.2471,-3.2637,-3.2637,-3.249,-3.2412,-3.2412,-3.2307,-3.2229,-3.2229,-3.2229,-3.2229,-3.2229,-3.2229,-3.2021,-2.3091,-2.3198,-2.3447,0.0,0.0,0.0,0.0,0.0,-2.5371,-2.5625,-2.5693,-2.5693,-2.5693,0.0,-2.6182,-2.6894,-2.7129,-2.7471,-2.8193,-2.8291,-2.8291,-2.8291,-2.903,-3.0093,-3.1407,-3.1354,-3.2509,-3.5509,-3.434,-3.4461,-3.6607,-3.6271,-3.6217,-3.6661,-3.6661,-3.6661,-3.6661,-3.6661,-3.721,-3.819,-3.7156,-3.6661,-3.6661,-3.6661,-3.6108,-3.5167,-3.467,-3.3631,-3.2275,-3.1767,-3.1325,-3.0889,-3.0889,-3.1064,-3.1318,-3.1318,-3.1504,-3.1768,-3.1768,-3.1572,-3.1318,-3.1318,-3.1123,-3.0889,-3.0889,-3.0889,-3.0889,-3.0889,-3.0889,-3.1025,-3.1611,-3.1768,-3.1768,-3.1768,-3.1768,-3.1768,-3.1768,-3.1768,-3.1768,-3.1768,-3.1768,-3.1768,-3.1768,-3.1768,-3.1768,-3.1768,-3.1768,-3.1768,-3.1768,-3.1768,-3.1768,-3.1768,-3.1768,-3.1768,-3.1768,-3.1768,-3.1768,-3.1768,-3.1768,-3.1885,-3.2219,-3.2041,-3.1963,-3.1963,-3.1826,-3.1768,-3.1768,-3.1768,-3.1768,-3.1768,-3.1768,-3.1611,-2.3101,-2.3457,0.0,0.0,0.0,0.0,0.0,0.0,-2.5693,-2.5693,-2.5693,-2.5693,-2.5693,-2.6094,-2.6523,-2.6943,-2.7434,-2.7865,-2.8232,-2.8291,-2.8291,-2.8291,-2.9911,-3.101,-3.1021,-3.2572,-3.4475,-3.654,-3.5276,-3.5985,-3.9492,-3.8283,-3.8166,-3.962,-3.9672,-3.9672,-3.9672,-3.9685,-3.9685,-3.9685,-3.9697,-3.9697,-3.9697,-3.9697,-3.9697,-3.9581,-3.8137,-3.6649,-3.5189,-3.3687,-3.2264,-3.0889,-3.0898,-3.0889,-3.0889,-3.0889,-3.0889,-3.0889,-3.0889,-3.0889,-3.0889,-3.0889,-3.0889,-3.0889,-3.0889,-3.0889,-3.0889,-3.0889,-3.0889,-3.0889,-3.0889,-3.0889,-3.0889,-3.0889,-3.0889,-3.0889,-3.0889,-3.0889,-3.0889,-3.0889,-3.0889,-3.0889,-3.0889,-3.0889,-3.0889,-3.0889,-3.0889,-3.0889,-3.0889,-3.0889,-3.0889,-3.0889,-3.0889,-3.0889,-3.0889,-3.0889,-3.0889,-3.0889,-3.0889,-3.1279,-3.2119,-3.1738,-3.1514,-3.1514,-3.1103,-3.0889,-3.0889,-3.0889,-3.0889,-3.0889,-3.0889,-3.0889,-2.3516,0.0,0.0,0.0,0.0,0.0,0.0,0.0,0.0,0.0,-2.5693,-2.5693,-2.5693,-2.6838,-2.7617,-2.7086,-2.8999,-3.0007,-2.8489,-2.9102,-2.9713,-2.9713,-3.0182,-3.1415,-3.3753,-3.3463,-3.4429,-3.7416,-3.6248,-3.6319,-3.8392,-3.8078,-3.8065,-3.8504,-3.8504,-3.8504,-3.8504,-3.8919,-3.912,-3.912,-3.9509,-3.9697,-3.9697,-3.9697,-3.9129,-3.8137,-3.769,-3.6649,-3.5189,-3.3687,-3.2861,-3.2369,-3.1334,-3.0889,-3.0889,-3.0889,-3.0889,-3.0889,-3.0889,-3.0889,-3.0889,-3.0889,-3.0889,-3.0889,-3.0889,-3.0889,-3.0889,-3.0889,-3.0889,-3.0889,-3.0889,-3.0889,-3.0889,-3.0889,-3.0889,-3.0889,-3.0889,-3.0889,-3.0889,-3.0889,-3.0889,-3.0889,-3.0889,-3.0889,-3.0889,-3.0889,-3.0889,-3.0889,-3.0889,-3.0889,-3.0889,-3.0889,-3.0889,-3.0889,-3.0889,-3.0889,-3.0889,-3.0889,-3.0889,-3.1006,-3.126,-3.1143,-3.1074,-3.1074,-3.0957,-3.0889,-3.0889,-3.0889,-3.0889,-3.0889,-3.0889,-3.0889,-2.4315,0.0,0.0,0.0,0.0,0.0,0.0,0.0,0.0,0.0,-2.61,-2.6294,-2.5781,-2.7311,-2.8442,-2.7895,-3.0131,-3.1455,-3.0078,-3.0566,-3.1071,-3.1071,-3.1582,-3.2718,-3.4691,-3.4565,-3.5288,-3.7528,-3.685,-3.6836,-3.794,-3.8002,-3.8002,-3.8002,-3.8002,-3.8002,-3.8002,-3.8354,-3.853,-3.853,-3.8868,-3.9145,-3.9371,-3.9597,-3.9193,-3.836,-3.7743,-3.6984,-3.5999,-3.3957,-3.3077,-3.2964,-3.1498,-3.0889,-3.0889,-3.0889,-3.0889,-3.0889,-3.0889,-3.0889,-3.0889,-3.0889,-3.0889,-3.0889,-3.0889,-3.0889,-3.0889,-3.0889,-3.0889,-3.0889,-3.0889,-3.0889,-3.0889,-3.0889,-3.0889,-3.0889,-3.0889,-3.0889,-3.0889,-3.0889,-3.0889,-3.0889,-3.0889,-3.0889,-3.0889,-3.0889,-3.0889,-3.0889,-3.0889,-3.0889,-3.0889,-3.0889,-3.0889,-3.0889,-3.0889,-3.0889,-3.0889,-3.0889,-3.0889,-3.0889,-3.0889,-3.0889,-3.0889,-3.0889,-3.0889,-3.0889,-3.0889,-3.0889,-3.0889,-3.0889,-3.0889,-3.0889,0.0,0.0,0.0,0.0,0.0,0.0,0.0,0.0,-2.7589,-2.6284,0.0,-2.7125,-2.6197,-2.776,-2.919,-2.919,-3.1147,-3.2582,-3.2342,-3.2392,-3.2482,-3.2482,-3.3613,-3.4434,-3.4581,-3.5667,-3.6619,-3.7073,-3.7111,-3.7324,-3.7839,-3.7852,-3.7852,-3.7852,-3.7852,-3.7852,-3.7852,-3.7902,-3.7939,-3.7939,-3.799,-3.8278,-3.8856,-3.9371,-3.9647,-3.9633,-3.8295,-3.769,-3.7465,-3.4504,-3.3293,-3.3134,-3.1556,-3.0889,-3.0889,-3.0889,-3.0889,-3.0889,-3.0889,-3.0889,-3.0889,-3.0889,-3.0889,-3.0889,-3.0889,-3.0889,-3.0889,-3.0889,-3.0889,-3.0889,-3.0889,-3.0889,-3.0889,-3.0889,-3.0889,-3.0889,-3.0889,-3.0889,-3.0889,-3.0889,-3.0889,-3.0889,-3.0889,-3.0889,-3.0889,-3.0889,-3.0889,-3.0889,-3.0889,-3.0889,-3.0889,-3.0889,-3.0889,-3.0889,-3.0889,-3.0889,-3.0889,-3.0889,-3.0889,-3.0889,-3.0889,-3.0889,-3.0889,-3.0889,-3.0889,-3.0889,-3.0889,-3.0889,-3.0889,-3.0889,-3.0889,-3.0889,0.0,0.0,0.0,0.0,0.0,0.0,0.0,0.0,-3.009,-2.8855,-2.7258,-2.661,-2.8308,-2.9694,-3.0537,-3.05,-3.3324,-3.4739,-3.2582,-3.3254,-3.397,-3.397,-3.4227,-3.4824,-3.587,-3.6216,-3.6455,-3.6568,-3.6581,-3.6631,-3.6757,-3.6757,-3.6757,-3.6757,-3.6757,-3.6757,-3.6757,-3.7149,-3.7362,-3.7362,-3.7801,-3.8078,-3.8216,-3.8781,-3.9283,-3.9685,-3.9362,-3.9245,-3.9025,-3.6054,-3.4847,-3.4581,-3.194,-3.0889,-3.0889,-3.0889,-3.0889,-3.0889,-3.0889,-3.0889,-3.0889,-3.0889,-3.0889,-3.0889,-3.0889,-3.0889,-3.0889,-3.0889,-3.0889,-3.0889,-3.0889,-3.0889,-3.0889,-3.0889,-3.0889,-3.0889,-3.0889,-3.0889,-3.0889,-3.0889,-3.0889,-3.0889,-3.0889,-3.0889,-3.0889,-3.0889,-3.0889,-3.0889,-3.0889,-3.0889,-3.0889,-3.0889,-3.0889,-3.0889,-3.0889,-3.0889,-3.0889,-3.0889,-3.0889,-3.0889,-3.0889,-3.0889,-3.0889,-3.0889,-3.0889,-3.0889,-3.0889,-3.0889,-3.0889,-3.0889,-3.0889,-3.0889,0.0,0.0,0.0,0.0,0.0,0.0,0.0,0.0,-3.0496,-3.1057,-2.9681,-2.853,-2.9269,-3.0776,-3.1888,-3.1841,-3.441,-3.5906,-3.4447,-3.4909,-3.5367,-3.5367,-3.5367,-3.5619,-3.631,-3.6405,-3.6405,-3.6405,-3.6405,-3.6405,-3.6405,-3.6405,-3.6405,-3.6405,-3.6405,-3.6405,-3.6405,-3.6694,-3.6832,-3.6845,-3.7086,-3.7362,-3.7626,-3.8203,-3.8768,-3.9295,-3.9295,-3.9446,-3.953,-3.7263,-3.5945,-3.5079,-3.2815,-3.1488,-3.0889,-3.0889,-3.0889,-3.0889,-3.0889,-3.0889,-3.0889,-3.0889,-3.0889,-3.0889,-3.0889,-3.0889,-3.0889,-3.0889,-3.0889,-3.0889,-3.0889,-3.0889,-3.0889,-3.0889,-3.0889,-3.0889,-3.0889,-3.0889,-3.0889,-3.0889,-3.0889,-3.0889,-3.0889,-3.0889,-3.0889,-3.0889,-3.0889,-3.0889,-3.0889,-3.0889,-3.0889,-3.0889,-3.0889,-3.0889,-3.0889,-3.0889,-3.0889,-3.0889,-3.0889,-3.0889,-3.0889,-3.0889,-3.0889,-3.0889,-3.0889,-3.0889,-3.0889,-3.0889,-3.0889,-3.0889,-3.0889,-3.0889,0.0,0.0,0.0,0.0,0.0,0.0,0.0,-3.0777,-3.0643,-3.2667,-3.1921,-3.0721,-3.0135,-3.1516,-3.2848,-3.3176,-3.4925,-3.6304,-3.6405,-3.6405,-3.6405,-3.6405,-3.6405,-3.6405,-3.6405,-3.6405,-3.6405,-3.6405,-3.6405,-3.6405,-3.6405,-3.6405,-3.6405,-3.6405,-3.6405,-3.6405,-3.6405,-3.6405,-3.6405,-3.6405,-3.6405,-3.6644,-3.7061,-3.7513,-3.809,-3.8718,-3.8718,-3.9044,-3.9443,-3.7992,-3.6675,-3.5508,-3.3789,-3.2369,-3.1276,-3.0995,-3.0889,-3.0889,-3.0889,-3.0889,-3.0889,-3.0889,-3.0889,-3.0889,-3.0889,-3.0889,-3.0889,-3.0889,-3.0889,-3.0889,-3.0889,-3.0889,-3.0889,-3.0889,-3.0889,-3.0889,-3.0889,-3.0889,-3.0889,-3.0889,-3.0889,-3.0889,-3.0889,-3.0889,-3.0889,-3.0889,-3.0889,-3.0889,-3.0889,-3.0889,-3.0889,-3.0889,-3.0889,-3.0889,-3.0889,-3.0889,-3.0889,-3.0889,-3.0889,-3.0889,-3.0889,-3.0889,-3.0889,-3.0889,-3.0889,-3.0889,-3.0889,-3.0889,-3.0889,-3.0889,-3.0889,-3.0889,0.0,0.0,0.0,0.0,0.0,0.0,0.0,0.0,-3.2711,-3.3025,-3.1235,-3.0226,-3.2239,-3.2386,-3.2704,-3.4218,-3.5103,-3.5818,-3.6342,-3.6405,-3.6405,-3.6405,-3.6405,-3.6405,-3.6405,-3.6405,-3.6405,-3.6405,-3.6405,-3.6405,-3.6405,-3.6405,-3.6405,-3.6405,-3.6405,-3.6405,-3.6405,-3.6405,-3.6405,-3.6405,-3.6405,-3.6455,-3.6518,-3.6593,-3.7149,-3.8115,-3.8115,-3.8442,-3.8867,-3.7448,-3.6943,-3.6918,-3.417,-3.2964,-3.2644,-3.1383,-3.0889,-3.0889,-3.0889,-3.0889,-3.0889,-3.0889,-3.0889,-3.0889,-3.0889,-3.0889,-3.0889,-3.0889,-3.0889,-3.0889,-3.0889,-3.0889,-3.0889,-3.0889,-3.0889,-3.0889,-3.0889,-3.0889,-3.0889,-3.0889,-3.0889,-3.0889,-3.0889,-3.0889,-3.0889,-3.0889,-3.0889,-3.0889,-3.0889,-3.0889,-3.0889,-3.0889,-3.0889,-3.0889,-3.0889,-3.0889,-3.0889,-3.0889,-3.0889,-3.0889,-3.0889,-3.0889,-3.0889,-3.0889,-3.0889,-3.0889,-3.0889,-3.0889,-3.0889,-3.0889,-3.0889,-3.0889,0.0,0.0,0.0,0.0,0.0,0.0,0.0,0.0,-3.3124,-3.3124,-3.2239,-3.1789,-3.2896,-3.3114,-3.337,-3.4122,-3.4944,-3.5583,-3.5868,-3.6169,-3.6405,-3.6405,-3.6405,-3.6405,-3.6405,-3.6405,-3.6405,-3.6405,-3.6405,-3.6405,-3.6405,-3.6405,-3.6405,-3.6405,-3.6405,-3.6405,-3.6405,-3.6405,-3.6405,-3.6405,-3.6405,-3.6405,-3.6405,-3.6405,-3.6845,-3.755,-3.755,-3.7864,-3.8329,-3.7689,-3.6769,-3.5607,-3.4306,-3.3015,-3.1767,-3.1112,-3.0889,-3.0889,-3.0889,-3.0889,-3.0889,-3.0889,-3.0889,-3.0889,-3.0889,-3.0889,-3.0889,-3.0889,-3.0889,-3.0889,-3.0889,-3.0889,-3.0889,-3.0889,-3.0889,-3.0889,-3.0889,-3.0889,-3.0889,-3.0889,-3.0889,-3.0889,-3.0889,-3.0889,-3.0889,-3.0889,-3.0889,-3.0889,-3.0889,-3.0889,-3.0889,-3.0889,-3.0889,-3.0889,-3.0889,-3.0889,-3.0889,-3.0889,-3.0889,-3.0889,-3.0889,-3.0889,-3.0889,-3.0889,-3.0889,-3.0889,-3.0889,-3.0889,-3.0889,-3.0889,-3.0889,-3.0889,0.0,0.0,0.0,0.0,0.0,0.0,0.0,0.0,-3.3124,-3.3124,-3.3124,-3.3124,-3.3124,-3.342,-3.3734,-3.3872,-3.4587,-3.5182,-3.5458,-3.5893,-3.6207,-3.6392,-3.6405,-3.6405,-3.6405,-3.6405,-3.6405,-3.6405,-3.6405,-3.6405,-3.6405,-3.6405,-3.6405,-3.6405,-3.6405,-3.6405,-3.6405,-3.6405,-3.6405,-3.6405,-3.6405,-3.6405,-3.6405,-3.6405,-3.6631,-3.6973,-3.6973,-3.7287,-3.7801,-3.7801,-3.6638,-3.4763,-3.439,-3.3033,-3.1214,-3.0887,-3.0791,-3.0889,-3.0889,-3.0889,-3.0889,-3.0889,-3.0889,-3.0889,-3.0889,-3.0889,-3.0889,-3.0889,-3.0889,-3.0889,-3.0889,-3.0889,-3.0889,-3.0889,-3.0889,-3.0889,-3.0889,-3.0889,-3.0889,-3.0889,-3.0889,-3.0889,-3.0889,-3.0889,-3.0889,-3.0889,-3.0889,-3.0889,-3.0889,-3.0889,-3.0889,-3.0889,-3.0889,-3.0889,-3.0889,-3.0889,-3.0889,-3.0889,-3.0889,-3.0889,-3.0889,-3.0889,-3.0889,-3.0889,-3.0889,-3.0889,-3.0889,-3.0889,-3.0889,-3.0889,-3.0889,-3.0889,0.0,0.0,0.0,0.0,0.0,0.0,0.0,0.0,-3.3124,-3.3124,-3.3124,-3.3124,-3.3124,-3.3106,-3.3294,-3.3822,-3.3947,-3.4349,-3.5357,-3.552,-3.578,-3.6342,-3.6405,-3.6405,-3.6405,-3.6405,-3.6405,-3.6405,-3.6405,-3.6405,-3.6405,-3.6405,-3.6405,-3.6405,-3.6405,-3.6405,-3.6405,-3.6405,-3.6405,-3.6405,-3.6405,-3.6405,-3.6405,-3.6405,-3.643,-3.6455,-3.6455,-3.6769,-3.7224,-3.7224,-3.6714,-3.5778,-3.4368,-3.3193,-3.2138,-3.0727,-3.0518,-3.0889,-3.0889,-3.0889,-3.0889,-3.0889,-3.0889,-3.0889,-3.0889,-3.0889,-3.0889,-3.0889,-3.0889,-3.0889,-3.0889,-3.0889,-3.0889,-3.0889,-3.0889,-3.0889,-3.0889,-3.0889,-3.0889,-3.0889,-3.0889,-3.0889,-3.0889,-3.0889,-3.0889,-3.0889,-3.0889,-3.0889,-3.0889,-3.0889,-3.0889,-3.0889,-3.0889,-3.0889,-3.0889,-3.0889,-3.0889,-3.0889,-3.0889,-3.0889,-3.0889,-3.0889,-3.0889,-3.0889,-3.0889,-3.0889,-3.0889,-3.0889,-3.0889,-3.0889,-3.0889,-3.0889,0.0,0.0,0.0,0.0,0.0,0.0,-3.3124,-3.3124,-3.3124,-3.3124,-3.3124,-3.3124,-3.3124,-3.3124,-3.3144,-3.3345,-3.3671,-3.4035,-3.4437,-3.4756,-3.509,-3.5278,-3.5617,-3.583,-3.583,-3.6157,-3.6405,-3.6405,-3.6405,-3.6405,-3.6405,-3.6405,-3.6405,-3.6405,-3.6405,-3.6405,-3.6405,-3.6405,-3.6405,-3.6405,-3.6405,-3.6405,-3.6405,-3.6405,-3.6405,-3.6405,-3.6405,-3.6017,-3.5405,-3.5405,-3.4384,-3.2765,-3.2198,-3.1437,-3.0579,-3.0315,-3.0303,-3.0488,-3.0791,-3.0889,-3.0889,-3.0889,-3.0889,-3.0889,-3.0889,-3.0889,-3.0889,-3.0889,-3.0889,-3.0889,-3.0889,-3.0889,-3.0889,-3.0889,-3.0889,-3.0889,-3.0889,-3.0889,-3.0889,-3.0889,-3.0889,-3.0889,-3.0889,-3.0889,-3.0889,-3.0889,-3.0889,-3.0889,-3.0889,-3.0889,-3.0889,-3.0889,-3.0889,-3.0889,-3.0889,-3.0889,-3.0889,-3.0889,-3.0889,-3.0889,-3.0889,-3.0889,-3.0889,-3.0889,-3.0889,-3.0889,-3.0889,-3.0889,-3.0889,-3.0889,-3.0889,-3.0889,-3.3124,0.0,0.0,0.0,0.0,-3.3124,-3.3124,-3.3124,-3.3124,-3.3124,-3.3124,-3.3124,-3.3124,-3.3124,-3.3124,-3.3124,-3.3382,-3.3684,-3.3872,-3.4211,-3.4512,-3.47,-3.4994,-3.5219,-3.5219,-3.5592,-3.5805,-3.5805,-3.5805,-3.5805,-3.5805,-3.5805,-3.5893,-3.6081,-3.6304,-3.6405,-3.6405,-3.6405,-3.6405,-3.6405,-3.6405,-3.6405,-3.6405,-3.6405,-3.6405,-3.6405,-3.6405,-3.5918,-3.503,-3.4581,-3.3211,-3.1398,-3.0937,-3.0173,-2.9385,-2.9668,-2.9863,-3.0049,-3.0508,-3.0664,-3.0684,-3.084,-3.0889,-3.0889,-3.0889,-3.0889,-3.0889,-3.0889,-3.0889,-3.0889,-3.0889,-3.0889,-3.0889,-3.0889,-3.0889,-3.0889,-3.0889,-3.0889,-3.0889,-3.0889,-3.0889,-3.0889,-3.0889,-3.0889,-3.0889,-3.0889,-3.0889,-3.0889,-3.0889,-3.0889,-3.0889,-3.0889,-3.0889,-3.0889,-3.0889,-3.0889,-3.0889,-3.0889,-3.0889,-3.0889,-3.0889,-3.0889,-3.0889,-3.0889,-3.0889,-3.0889,-3.0889,-3.0889,-3.0889,-3.0889,-3.0889,-3.0889,0.0,0.0,0.0,0.0,0.0,0.0,-3.3124,-3.3124,-3.3124,-3.3124,-3.3124,-3.3124,-3.3124,-3.3124,-3.3124,-3.3124,-3.3124,-3.3269,-3.3796,-3.3872,-3.4073,-3.4613,-3.4688,-3.47,-3.47,-3.4668,-3.468,-3.468,-3.468,-3.468,-3.468,-3.468,-3.4919,-3.5458,-3.6031,-3.6355,-3.6355,-3.6355,-3.6367,-3.638,-3.638,-3.6392,-3.6405,-3.6405,-3.6405,-3.6405,-3.6405,-3.6405,-3.631,-3.4933,-3.3563,-3.2129,-3.0824,-2.9715,-2.8896,-2.8916,-2.9189,-2.9665,-3.0029,-3.0185,-3.0273,-3.0723,-3.0879,-3.0889,-3.0889,-3.0889,-3.0889,-3.0889,-3.0889,-3.0889,-3.0889,-3.0889,-3.0889,-3.0889,-3.0889,-3.0889,-3.0889,-3.0889,-3.0889,-3.0889,-3.0889,-3.0889,-3.0889,-3.0889,-3.0889,-3.0889,-3.0889,-3.0889,-3.0889,-3.0889,-3.0889,-3.0889,-3.0889,-3.0889,-3.0889,-3.0889,-3.0889,-3.0889,-3.0889,-3.0889,-3.0889,-3.0889,-3.0889,-3.0889,-3.0889,-3.0889,-3.0889,-3.0889,-3.0889,-3.0889,-3.0889,-3.0889,-3.3124,0.0,0.0,0.0,0.0,0.0,-3.3124,-3.3124,-3.3124,-3.3124,-3.3124,-3.3124,-3.3124,-3.3124,-3.3124,-3.3124,-3.3124,-3.3174,-3.3282,-3.3307,-3.337,-3.3508,-3.3884,-3.4123,-3.4123,-3.4487,-3.468,-3.468,-3.468,-3.468,-3.468,-3.468,-3.4756,-3.4906,-3.5102,-3.5177,-3.5177,-3.5177,-3.5378,-3.5768,-3.5768,-3.5981,-3.6405,-3.6405,-3.6405,-3.6405,-3.6405,-3.6405,-3.631,-3.4933,-3.3005,-3.0824,-3.0421,-2.9532,-2.8506,-2.8809,-2.8994,-2.916,-2.959,-2.9941,-3.0215,-3.0342,-3.0615,-3.0889,-3.0889,-3.0889,-3.0889,-3.0889,-3.0889,-3.0889,-3.0889,-3.0889,-3.0889,-3.0889,-3.0889,-3.0889,-3.0889,-3.0889,-3.0889,-3.0889,-3.0889,-3.0889,-3.0889,-3.0889,-3.0889,-3.0889,-3.0889,-3.0889,-3.0889,-3.0889,-3.0889,-3.0889,-3.0889,-3.0889,-3.0889,-3.0889,-3.0889,-3.0889,-3.0889,-3.0889,-3.0889,-3.0889,-3.0889,-3.0889,-3.0889,-3.0889,-3.0889,-3.0889,-3.0889,-3.0889,-3.0889,-3.0889,-3.3124,-3.3124,-3.3124,-3.3124,0.0,0.0,-3.3124,-3.3124,-3.3124,-3.3124,-3.3124,-3.3124,-3.3124,-3.3124,-3.3124,-3.3124,-3.3124,-3.3124,-3.3124,-3.3124,-3.3124,-3.3124,-3.3357,-3.3558,-3.3558,-3.3847,-3.4035,-3.4035,-3.4035,-3.4035,-3.4035,-3.4248,-3.4374,-3.4374,-3.46,-3.468,-3.468,-3.468,-3.4843,-3.5157,-3.5157,-3.5491,-3.6019,-3.6019,-3.6144,-3.6405,-3.6405,-3.6405,-3.6358,-3.5571,-3.3601,-3.1071,-3.0525,-2.946,-2.832,-2.8564,-2.8662,-2.8721,-2.915,-2.9453,-2.9717,-3.0078,-3.0381,-3.0635,-3.083,-3.0889,-3.0889,-3.0889,-3.0889,-3.0889,-3.0889,-3.0889,-3.0889,-3.0889,-3.0889,-3.0889,-3.0889,-3.0889,-3.0889,-3.0889,-3.0889,-3.0889,-3.0889,-3.0889,-3.0889,-3.0889,-3.0889,-3.0889,-3.0889,-3.0889,-3.0889,-3.0889,-3.0889,-3.0889,-3.0889,-3.0889,-3.0889,-3.0889,-3.0889,-3.0889,-3.0889,-3.0889,-3.0889,-3.0889,-3.0889,-3.0889,-3.0889,-3.0889,-3.0889,-3.0889,-3.0889,-3.0889,-3.3124,-3.3124,-3.3124,-3.3124,-3.3124,0.0,-3.3124,-3.3124,-3.3124,-3.3124,-3.3124,-3.3124,-3.3124,-3.3124,-3.3124,-3.3124,-3.3124,-3.3124,-3.3124,-3.3124,-3.3124,-3.3124,-3.3124,-3.3124,-3.3124,-3.3124,-3.3124,-3.3124,-3.3124,-3.3124,-3.3124,-3.3545,-3.3809,-3.3809,-3.4286,-3.4537,-3.4537,-3.4537,-3.4575,-3.4625,-3.4625,-3.4868,-3.5408,-3.5408,-3.5755,-3.6317,-3.6317,-3.6355,-3.6405,-3.6405,-3.4896,-3.2392,-3.103,-2.9713,-2.8495,-2.8344,-2.8291,-2.834,-2.8721,-2.8877,-2.9043,-2.9805,-3.0117,-3.0273,-3.0693,-3.085,-3.0889,-3.0889,-3.0889,-3.0889,-3.0889,-3.0889,-3.0889,-3.0889,-3.0889,-3.0889,-3.0889,-3.0889,-3.0889,-3.0889,-3.0889,-3.0889,-3.0889,-3.0889,-3.0889,-3.0889,-3.0889,-3.0889,-3.0889,-3.0889,-3.0889,-3.0889,-3.0889,-3.0889,-3.0889,-3.0889,-3.0889,-3.0889,-3.0889,-3.0889,-3.0889,-3.0889,-3.0889,-3.0889,-3.0889,-3.0889,-3.0889,-3.0889,-3.0889,-3.0889,-3.0889,-3.0889,-3.3124,-3.3124,-3.3124,-3.3124,-3.3124,0.0,-3.3124,-3.3124,-3.3124,-3.3124,-3.3124,-3.3124,-3.3124,-3.3124,-3.3124,-3.3124,-3.3124,-3.3124,-3.3124,-3.3124,-3.3124,-3.3124,-3.3124,-3.3124,-3.3124,-3.3124,-3.3124,-3.3124,-3.3124,-3.3124,-3.3124,-3.3224,-3.3244,-3.3244,-3.3345,-3.3395,-3.3395,-3.3395,-3.3621,-3.406,-3.406,-3.4349,-3.4843,-3.4843,-3.5132,-3.5658,-3.5658,-3.5956,-3.6405,-3.6405,-3.5463,-3.3871,-3.2443,-3.1071,-2.9755,-2.8698,-2.8291,-2.8301,-2.8389,-2.8633,-2.8945,-2.9111,-2.9639,-3.0215,-3.0303,-3.0596,-3.0889,-3.0889,-3.0889,-3.0889,-3.0889,-3.0889,-3.0889,-3.0889,-3.0889,-3.0889,-3.0889,-3.0889,-3.0889,-3.0889,-3.0889,-3.0889,-3.0889,-3.0889,-3.0889,-3.0889,-3.0889,-3.0889,-3.0889,-3.0889,-3.0889,-3.0889,-3.0889,-3.0889,-3.0889,-3.0889,-3.0889,-3.0889,-3.0889,-3.0889,-3.0889,-3.0889,-3.0889,-3.0889,-3.0889,-3.0889,-3.0889,-3.0889,-3.0889,-3.0889,-3.0889,-3.0889,-3.3124,-3.3124,-3.3124,-3.3124,-3.3124,0.0,0.0,-3.3124,-3.3124,-3.3124,-3.3124,-3.3124,-3.3124,-3.3124,-3.3124,-3.3124,-3.3124,-3.3124,-3.3124,-3.3124,-3.3124,-3.3124,-3.3124,-3.3124,-3.3124,-3.3124,-3.3124,-3.3124,-3.3124,-3.3124,-3.3124,-3.3124,-3.3124,-3.3124,-3.3124,-3.3124,-3.3124,-3.3124,-3.3219,-3.3483,-3.3483,-3.3771,-3.4311,-3.4311,-3.4568,-3.5107,-3.537,-3.5658,-3.5968,-3.6304,-3.6013,-3.5174,-3.3093,-3.148,-3.0162,-2.8794,-2.8291,-2.8291,-2.8291,-2.8428,-2.8643,-2.8848,-2.9209,-2.9639,-3.0068,-3.0518,-3.0889,-3.0889,-3.0889,-3.0889,-3.0889,-3.0889,-3.0889,-3.0889,-3.0889,-3.0889,-3.0889,-3.0889,-3.0889,-3.0889,-3.0889,-3.0889,-3.0889,-3.0889,-3.0889,-3.0889,-3.0889,-3.0889,-3.0889,-3.0889,-3.0889,-3.0889,-3.0889,-3.0889,-3.0889,-3.0889,-3.0889,-3.0889,-3.0889,-3.0889,-3.0889,-3.0889,-3.0889,-3.0889,-3.0889,-3.0889,-3.0889,-3.0889,-3.0889,-3.0889,-3.0889,-3.0889,-3.3124,-3.3124,-3.3124,-3.3124,-3.3124,-3.3124,0.0,0.0,0.0,-3.3124,-3.3124,-3.3124,-3.3124,-3.3124,-3.3043,-3.293,-3.3006,-3.3074,-3.293,-3.3048,-3.3124,-3.3124,-3.3124,-3.3124,-3.3124,-3.3124,-3.3124,-3.3124,-3.3124,-3.3124,-3.3124,-3.3124,-3.3124,-3.3124,-3.3124,-3.3124,-3.3124,-3.3124,-3.3124,-3.3124,-3.3124,-3.3307,-3.3746,-3.3746,-3.4035,-3.46,-3.5107,-3.5395,-3.5545,-3.6132,-3.6405,-3.6156,-3.3688,-3.1887,-3.0514,-2.9207,-2.8548,-2.8291,-2.8291,-2.8291,-2.835,-2.8682,-2.8848,-2.9082,-2.9941,-3.0459,-3.0771,-3.0869,-3.0889,-3.0889,-3.0889,-3.0889,-3.0889,-3.0889,-3.0889,-3.0889,-3.0889,-3.0889,-3.0889,-3.0889,-3.0889,-3.0889,-3.0889,-3.0889,-3.0889,-3.0889,-3.0889,-3.0889,-3.0889,-3.0889,-3.0889,-3.0889,-3.0889,-3.0889,-3.0889,-3.0889,-3.0889,-3.0889,-3.0889,-3.0889,-3.0889,-3.0889,-3.0889,-3.0889,-3.0889,-3.0889,-3.0889,-3.0889,-3.0889,-3.0889,-3.0889,-3.0889,-3.3124,-3.3124,-3.3124,-3.3124,-3.3124,-3.3124,-3.3124,0.0,-3.3124,-3.3124,0.0,-3.3124,-3.3124,0.0,0.0,-3.239,-3.2742,-3.2893,-3.239,-3.2754,-3.3124,-3.3124,-3.3124,-3.3124,-3.3124,-3.3124,-3.3124,-3.3124,-3.3124,-3.3124,-3.3124,-3.3124,-3.3124,-3.3124,-3.3124,-3.3124,-3.3124,-3.3124,-3.3124,-3.3124,-3.3124,-3.3106,-3.3212,-3.3212,-3.347,-3.4022,-3.4575,-3.5044,-3.5545,-3.6132,-3.6405,-3.6263,-3.4775,-3.3304,-3.1927,-3.0566,-2.9303,-2.8291,-2.8291,-2.8291,-2.8301,-2.835,-2.8613,-2.9082,-2.9941,-3.0234,-3.0361,-3.0771,-3.0889,-3.0889,-3.0889,-3.0889,-3.0889,-3.0889,-3.0889,-3.0889,-3.0889,-3.0889,-3.0889,-3.0889,-3.0889,-3.0889,-3.0889,-3.0889,-3.0889,-3.0889,-3.0889,-3.0889,-3.0889,-3.0889,-3.0889,-3.0889,-3.0889,-3.0889,-3.0889,-3.0889,-3.0889,-3.0889,-3.0889,-3.0889,-3.0889,-3.0889,-3.0889,-3.0889,-3.0889,-3.0889,-3.0889,-3.0889,-3.0889,-3.0889,-3.0889,-3.0889,-3.3124,-3.3124,-3.3124,-3.3124,-3.3124,-3.3124,-3.3124,-3.3124,-3.3124,-3.3124,0.0,0.0,0.0,0.0,0.0,0.0,-3.2918,-3.2993,-3.2754,-3.2918,-3.3124,-3.3124,-3.3124,-3.3124,-3.3124,-3.3124,-3.3124,-3.3124,-3.3124,-3.3124,-3.3124,-3.3124,-3.3124,-3.3124,-3.3124,-3.3124,-3.3124,-3.3124,-3.3124,-3.3124,-3.3124,-3.3124,-3.3124,-3.3124,-3.3206,-3.3458,-3.401,-3.4562,-3.5069,-3.5655,-3.6069,-3.6358,-3.5763,-3.4203,-3.2129,-3.0773,-2.946,-2.8291,-2.8291,-2.8291,-2.8291,-2.8291,-2.8574,-2.8984,-2.9346,-2.9805,-3.0234,-3.043,-3.0684,-3.0889,-3.0889,-3.0889,-3.0889,-3.0889,-3.0889,-3.0889,-3.0889,-3.0889,-3.0889,-3.0889,-3.0889,-3.0889,-3.0889,-3.0889,-3.0889,-3.0889,-3.0889,-3.0889,-3.0889,-3.0889,-3.0889,-3.0889,-3.0889,-3.0889,-3.0889,-3.0889,-3.0889,-3.0889,-3.0889,-3.0889,-3.0889,-3.0889,-3.0889,-3.0889,-3.0889,-3.0889,-3.0889,-3.0889,-3.0889,-3.0889,-3.0889,-3.0889,-3.3124,-3.3124,-3.3124,-3.3124,-3.3124,-3.3124,-3.3124,-3.3124,-3.3124,-3.3124,-3.3124,0.0,0.0,0.0,-3.3074,-3.2867,0.0,-3.3018,-3.2867,-3.3023,-3.3124,-3.3124,-3.3124,-3.3124,-3.3124,-3.3124,-3.3124,-3.3124,-3.3124,-3.3124,-3.3124,-3.3124,-3.3124,-3.3124,-3.3124,-3.3124,-3.3124,-3.3124,-3.3124,-3.3124,-3.3124,-3.3124,-3.3124,-3.3124,-3.3124,-3.3106,-3.3658,-3.4211,-3.4718,-3.527,-3.5868,-3.6405,-3.6405,-3.4957,-3.2694,-3.1327,-3.0016,-2.8804,-2.8451,-2.8291,-2.8291,-2.8291,-2.8496,-2.8769,-2.8887,-2.9434,-3.0049,-3.0166,-3.0537,-3.0889,-3.0889,-3.0889,-3.0889,-3.0889,-3.0889,-3.0889,-3.0889,-3.0889,-3.0889,-3.0889,-3.0889,-3.0889,-3.0889,-3.0889,-3.0889,-3.0889,-3.0889,-3.0889,-3.0889,-3.0889,-3.0889,-3.0889,-3.0889,-3.0889,-3.0889,-3.0889,-3.0889,-3.0889,-3.0889,-3.0889,-3.0889,-3.0889,-3.0889,-3.0889,-3.0889,-3.0889,-3.0889,-3.0889,-3.0889,-3.0889,-3.0889,-3.0889,-3.3124,-3.3124,-3.3124,-3.3124,-3.3124,-3.3124,-3.3124,-3.3124,-3.3124,-3.3124,-3.3124,-3.3124,-3.3124,-3.3124,-3.2893,-3.2328,-3.2717,0.0,0.0,-3.2717,-3.3124,-3.3124,-3.3124,-3.3124,-3.3124,-3.3124,-3.3124,-3.3124,-3.3124,-3.3124,-3.3124,-3.3124,-3.3124,-3.3124,-3.3124,-3.3124,-3.3124,-3.3124,-3.3124,-3.3124,-3.3124,-3.3124,-3.3124,-3.3124,-3.3124,-3.3106,-3.3658,-3.4211,-3.4718,-3.527,-3.5868,-3.6405,-3.6405,-3.5559,-3.4178,-3.2744,-3.1378,-3.0068,-2.8751,-2.8291,-2.8291,-2.8291,-2.8301,-2.8389,-2.8789,-2.9238,-2.9678,-3.0078,-3.0537,-3.0889,-3.0889,-3.0889,-3.0889,-3.0889,-3.0889,-3.0889,-3.0889,-3.0889,-3.0889,-3.0889,-3.0889,-3.0889,-3.0889,-3.0889,-3.0889,-3.0889,-3.0889,-3.0889,-3.0889,-3.0889,-3.0889,-3.0889,-3.0889,-3.0889,-3.0889,-3.0889,-3.0889,-3.0889,-3.0889,-3.0889,-3.0889,-3.0889,-3.0889,-3.0889,-3.0889,-3.0889,-3.0889,-3.0889,-3.0889,-3.0889,-3.0889,-3.0889,-3.3124,-3.3124,-3.3124,-3.3124,-3.3124,-3.3124,-3.3124,-3.3124,-3.3124,-3.3124,-3.3124,-3.3124,-3.3124,-3.3124,-3.3018,-3.2817,-3.2955,-3.3048,0.0,-3.2955,-3.3124,-3.3124,-3.3124,-3.3124,-3.3124,-3.3124,-3.3124,-3.3124,-3.3124,-3.3124,-3.3124,-3.3124,-3.3124,-3.3124,-3.3124,-3.3124,-3.3124,-3.3124,-3.3124,-3.3124,-3.3124,-3.3124,-3.3124,-3.3124,-3.3124,-3.3124,-3.3269,-3.3671,-3.4223,-3.4731,-3.5282,-3.5855,-3.6267,-3.6108,-3.5571,-3.4215,-3.2794,-3.1429,-3.0068,-2.9049,-2.8291,-2.8291,-2.8291,-2.832,-2.8467,-2.8799,-2.9228,-2.9658,-3.0098,-3.0508,-3.081,-3.0889,-3.0889,-3.0889,-3.0889,-3.0889,-3.0889,-3.0889,-3.0889,-3.0889,-3.0889,-3.0889,-3.0889,-3.0889,-3.0889,-3.0889,-3.0889,-3.0889,-3.0889,-3.0889,-3.0889,-3.0889,-3.0889,-3.0889,-3.0889,-3.0889,-3.0889,-3.0889,-3.0889,-3.0889,-3.0889,-3.0889,-3.0889,-3.0889,-3.0889,-3.0889,-3.0889,-3.0889,-3.0889,-3.0889,-3.0889,-3.0889,-3.3124,-3.3124,-3.3124,-3.3124,-3.3124,-3.3124,-3.3124,-3.3124,-3.3124,-3.3124,-3.3124,-3.3124,-3.3124,-3.3124,-3.3124,-3.3124,-3.3124,-3.3124,0.0,-3.3124,-3.3124,-3.3124,-3.3124,-3.3124,-3.3124,-3.3124,-3.3124,-3.3124,-3.3124,-3.3124,-3.3124,-3.3124,-3.3124,-3.3124,-3.3124,-3.3124,-3.3124,-3.3124,-3.3124,-3.3124,-3.3124,-3.3124,-3.3124,-3.3124,-3.3124,-3.3124,-3.3124,-3.3382,-3.3935,-3.45,-3.5006,-3.5558,-3.6144,-3.6405,-3.6263,-3.4872,-3.3514,-3.218,-3.1327,-3.0473,-2.966,-2.9154,-2.9006,-2.9006,-2.9006,-2.9307,-2.9717,-3.0008,-3.0509,-3.086,-3.0672,-3.0771,-3.0889,-3.0889,-3.0889,-3.0889,-3.0889,-3.0889,-3.0889,-3.0889,-3.0889,-3.0889,-3.0889,-3.0889,-3.0889,-3.0889,-3.0889,-3.0889,-3.0889,-3.0889,-3.0889,-3.0889,-3.0889,-3.0889,-3.0889,-3.0889,-3.0889,-3.0889,-3.0889,-3.0889,-3.0889,-3.0889,-3.0889,-3.0889,-3.0889,-3.0889,-3.0889,-3.0889,-3.0889,-3.0889,-3.0889,-3.0889]},{"header":{"parameterUnit":"m.s-1","parameterCategory":1,"la1":30.6,"la2":29.2853,"lo1":-89.7004,"lo2":-87.6739,"dy":0.0162,"dx":0.0183,"nx":112,"ny":82,"refTime":"2023-08-07T12:00:00:Z","depth":0,"parameterNumber":3,"parameterNumberName":"V-component_of_WINDS"},"data":[0.0,0.0,0.0,0.0,0.0,0.0,0.0,0.0,0.0,0.0,0.0,0.0,0.0,0.0,0.0,0.0,0.0,0.0,0.0,0.0,0.0,0.0,0.0,0.0,0.0,0.0,0.0,0.0,0.0,0.0,0.0,0.0,0.0,0.0,0.0,0.0,0.0,0.0,0.0,0.0,0.0,0.0,0.0,0.0,0.0,0.0,0.0,0.0,0.0,0.0,0.0,0.0,0.0,0.0,0.0,0.0,0.0,0.0,0.0,0.0,0.0,0.0,0.0,0.0,0.0,0.0,0.0,0.0,0.0,0.0,0.0,0.0,0.0,0.0,0.0,0.0,0.0,0.0,0.0,0.0,0.0,0.0,0.0,0.0,0.0,0.0,0.0,0.0,0.0,0.0,-4.3515,-4.3515,-4.3515,-4.3515,-4.3515,-4.3515,-4.3268,-4.2713,0.0,0.0,0.0,0.0,0.0,0.0,0.0,0.0,0.0,0.0,0.0,0.0,0.0,0.0,0.0,0.0,0.0,0.0,0.0,0.0,0.0,0.0,0.0,0.0,0.0,0.0,0.0,0.0,0.0,0.0,0.0,0.0,0.0,0.0,0.0,0.0,0.0,0.0,0.0,0.0,0.0,0.0,0.0,0.0,0.0,0.0,0.0,0.0,0.0,0.0,0.0,0.0,0.0,0.0,0.0,0.0,0.0,0.0,0.0,0.0,0.0,0.0,0.0,0.0,0.0,0.0,0.0,0.0,0.0,0.0,0.0,0.0,0.0,0.0,0.0,0.0,0.0,0.0,0.0,0.0,0.0,0.0,0.0,0.0,0.0,0.0,0.0,0.0,0.0,0.0,0.0,0.0,0.0,0.0,0.0,0.0,0.0,0.0,0.0,0.0,0.0,0.0,0.0,0.0,-4.3515,-4.3515,-4.3515,-4.3515,-4.3515,-4.3515,-4.3268,-4.2713,0.0,0.0,0.0,0.0,0.0,0.0,0.0,0.0,0.0,0.0,0.0,0.0,0.0,0.0,0.0,0.0,0.0,0.0,0.0,0.0,0.0,0.0,0.0,0.0,0.0,0.0,0.0,0.0,0.0,0.0,0.0,0.0,0.0,0.0,0.0,0.0,0.0,0.0,0.0,0.0,0.0,0.0,0.0,0.0,0.0,0.0,0.0,0.0,0.0,0.0,0.0,0.0,0.0,0.0,0.0,0.0,0.0,0.0,0.0,0.0,0.0,0.0,0.0,0.0,0.0,0.0,0.0,0.0,0.0,0.0,0.0,0.0,0.0,0.0,0.0,0.0,0.0,0.0,0.0,0.0,0.0,0.0,0.0,0.0,0.0,0.0,0.0,0.0,0.0,0.0,0.0,0.0,0.0,0.0,0.0,0.0,0.0,0.0,0.0,0.0,0.0,0.0,0.0,-4.3883,-4.4158,-4.4158,-4.4544,-4.48,-4.48,-4.48,-4.4693,-4.4454,-4.4034,0.0,0.0,0.0,0.0,0.0,0.0,0.0,0.0,0.0,0.0,0.0,0.0,0.0,0.0,0.0,0.0,0.0,0.0,0.0,0.0,0.0,0.0,0.0,0.0,0.0,0.0,0.0,0.0,0.0,0.0,0.0,0.0,0.0,0.0,0.0,0.0,0.0,0.0,0.0,0.0,0.0,0.0,0.0,0.0,0.0,0.0,0.0,0.0,0.0,0.0,0.0,0.0,0.0,0.0,0.0,0.0,0.0,0.0,0.0,0.0,0.0,0.0,0.0,0.0,0.0,0.0,0.0,0.0,0.0,0.0,0.0,0.0,0.0,0.0,0.0,0.0,0.0,0.0,0.0,0.0,0.0,0.0,0.0,0.0,0.0,0.0,0.0,0.0,0.0,0.0,0.0,0.0,0.0,0.0,0.0,0.0,0.0,0.0,0.0,0.0,0.0,0.0,-4.4599,-4.4984,-4.4984,-4.5535,-4.5902,-4.5902,-4.5902,-4.5847,-4.5718,-4.5132,0.0,0.0,0.0,0.0,0.0,0.0,0.0,0.0,0.0,0.0,0.0,0.0,0.0,0.0,0.0,0.0,0.0,0.0,0.0,0.0,0.0,0.0,0.0,0.0,0.0,0.0,0.0,0.0,0.0,0.0,0.0,0.0,0.0,0.0,0.0,0.0,0.0,0.0,0.0,0.0,0.0,0.0,0.0,0.0,0.0,0.0,0.0,0.0,0.0,0.0,0.0,0.0,0.0,0.0,0.0,0.0,0.0,0.0,0.0,0.0,0.0,0.0,0.0,0.0,0.0,0.0,0.0,0.0,0.0,0.0,0.0,0.0,0.0,0.0,0.0,0.0,0.0,0.0,0.0,0.0,0.0,0.0,0.0,0.0,0.0,0.0,0.0,0.0,0.0,0.0,0.0,0.0,0.0,0.0,0.0,0.0,0.0,0.0,0.0,0.0,0.0,0.0,-4.5773,-4.581,-4.581,-4.5865,-4.5902,-4.5902,-4.5902,-4.568,-4.518,-4.5106,0.0,0.0,0.0,0.0,0.0,0.0,0.0,0.0,0.0,0.0,0.0,0.0,0.0,0.0,0.0,0.0,0.0,0.0,0.0,0.0,0.0,0.0,0.0,0.0,0.0,0.0,0.0,0.0,0.0,0.0,0.0,0.0,0.0,0.0,0.0,0.0,0.0,0.0,0.0,0.0,0.0,0.0,0.0,0.0,0.0,0.0,0.0,0.0,0.0,0.0,0.0,0.0,0.0,0.0,0.0,0.0,0.0,0.0,0.0,0.0,0.0,0.0,0.0,0.0,0.0,0.0,0.0,0.0,0.0,0.0,0.0,0.0,0.0,0.0,0.0,0.0,0.0,0.0,0.0,0.0,0.0,0.0,0.0,0.0,0.0,0.0,0.0,0.0,0.0,0.0,0.0,0.0,0.0,0.0,0.0,0.0,0.0,0.0,0.0,0.0,0.0,0.0,-4.6342,-4.6636,-4.6636,-4.7113,-4.7407,-4.7407,-4.7407,-4.7313,-4.7102,0.0,0.0,0.0,0.0,0.0,0.0,0.0,0.0,0.0,0.0,0.0,0.0,0.0,0.0,0.0,0.0,0.0,0.0,0.0,0.0,0.0,0.0,0.0,0.0,0.0,0.0,0.0,0.0,0.0,0.0,0.0,0.0,0.0,0.0,0.0,0.0,0.0,0.0,0.0,0.0,0.0,0.0,0.0,0.0,0.0,0.0,0.0,0.0,0.0,0.0,0.0,0.0,0.0,0.0,0.0,0.0,0.0,0.0,0.0,0.0,0.0,0.0,0.0,0.0,0.0,0.0,0.0,0.0,0.0,0.0,0.0,0.0,0.0,0.0,0.0,0.0,0.0,0.0,0.0,0.0,0.0,0.0,0.0,0.0,0.0,0.0,0.0,0.0,0.0,0.0,0.0,0.0,0.0,0.0,0.0,0.0,0.0,0.0,0.0,0.0,0.0,0.0,-4.6636,-4.7131,-4.748,-4.748,-4.7957,-4.8306,-4.8306,-4.8306,-4.821,-4.8035,0.0,0.0,0.0,0.0,0.0,0.0,0.0,0.0,0.0,0.0,0.0,0.0,0.0,0.0,0.0,0.0,0.0,0.0,0.0,0.0,0.0,0.0,0.0,0.0,0.0,0.0,0.0,0.0,0.0,0.0,0.0,0.0,0.0,0.0,0.0,0.0,0.0,0.0,0.0,0.0,0.0,0.0,0.0,0.0,0.0,0.0,0.0,0.0,0.0,0.0,0.0,0.0,0.0,0.0,0.0,0.0,0.0,0.0,0.0,0.0,0.0,0.0,0.0,0.0,0.0,0.0,0.0,0.0,0.0,0.0,0.0,0.0,0.0,0.0,0.0,0.0,0.0,0.0,0.0,0.0,0.0,0.0,0.0,0.0,0.0,0.0,0.0,0.0,0.0,0.0,0.0,0.0,0.0,0.0,0.0,0.0,0.0,0.0,0.0,0.0,0.0,0.0,-4.8214,-4.8287,-4.8287,-4.8287,-4.8287,-4.8287,-4.8287,-4.8287,-4.8035,0.0,0.0,0.0,0.0,0.0,0.0,0.0,0.0,0.0,0.0,0.0,0.0,0.0,0.0,0.0,0.0,0.0,0.0,0.0,0.0,0.0,0.0,0.0,0.0,0.0,0.0,0.0,0.0,0.0,0.0,0.0,0.0,0.0,0.0,0.0,0.0,0.0,0.0,0.0,0.0,0.0,0.0,0.0,0.0,0.0,0.0,0.0,0.0,0.0,0.0,0.0,0.0,0.0,0.0,0.0,0.0,0.0,0.0,0.0,0.0,0.0,0.0,0.0,0.0,0.0,0.0,0.0,0.0,0.0,0.0,0.0,0.0,0.0,0.0,0.0,0.0,0.0,0.0,0.0,0.0,0.0,0.0,0.0,0.0,0.0,0.0,0.0,0.0,0.0,0.0,0.0,0.0,0.0,0.0,0.0,0.0,0.0,0.0,0.0,0.0,0.0,0.0,0.0,-4.8269,-4.7917,-4.7674,-4.7674,-4.7259,-4.6959,-4.6959,-4.6959,-4.7088,-4.7385,0.0,0.0,0.0,0.0,0.0,0.0,0.0,0.0,0.0,0.0,0.0,0.0,0.0,0.0,0.0,0.0,0.0,0.0,0.0,0.0,0.0,0.0,0.0,0.0,0.0,0.0,0.0,0.0,0.0,0.0,0.0,0.0,0.0,0.0,0.0,0.0,0.0,0.0,0.0,0.0,0.0,0.0,0.0,0.0,0.0,0.0,0.0,0.0,0.0,0.0,0.0,0.0,0.0,0.0,0.0,0.0,0.0,0.0,0.0,0.0,0.0,0.0,0.0,0.0,0.0,0.0,0.0,0.0,0.0,0.0,0.0,0.0,0.0,0.0,0.0,0.0,0.0,0.0,0.0,0.0,0.0,0.0,0.0,0.0,0.0,0.0,0.0,0.0,0.0,0.0,0.0,0.0,0.0,0.0,0.0,0.0,0.0,0.0,0.0,0.0,0.0,0.0,-4.8745,-4.8268,-4.798,-4.8305,-4.7971,-4.763,-4.7345,-4.732,-4.7393,-4.7512,0.0,0.0,0.0,0.0,0.0,0.0,0.0,0.0,0.0,0.0,0.0,0.0,0.0,0.0,0.0,0.0,0.0,0.0,0.0,0.0,0.0,0.0,0.0,0.0,0.0,0.0,0.0,0.0,0.0,0.0,0.0,0.0,0.0,0.0,0.0,0.0,0.0,0.0,0.0,0.0,0.0,0.0,0.0,0.0,0.0,0.0,0.0,0.0,0.0,0.0,0.0,0.0,0.0,0.0,0.0,0.0,0.0,0.0,0.0,0.0,0.0,0.0,0.0,0.0,0.0,0.0,0.0,0.0,0.0,0.0,0.0,0.0,0.0,0.0,0.0,0.0,0.0,0.0,0.0,0.0,0.0,0.0,0.0,0.0,0.0,0.0,0.0,0.0,0.0,0.0,0.0,0.0,0.0,0.0,0.0,0.0,0.0,0.0,0.0,0.0,0.0,0.0,-4.9354,-4.8916,-4.8758,-4.9436,-4.9462,-4.918,-4.8584,-4.8516,-4.8303,-4.7736,0.0,0.0,0.0,0.0,0.0,0.0,0.0,0.0,0.0,0.0,0.0,0.0,0.0,0.0,0.0,0.0,0.0,0.0,0.0,0.0,0.0,0.0,0.0,0.0,0.0,0.0,0.0,0.0,0.0,0.0,0.0,0.0,0.0,0.0,0.0,0.0,0.0,0.0,0.0,0.0,0.0,0.0,0.0,0.0,0.0,0.0,0.0,0.0,0.0,0.0,0.0,0.0,0.0,0.0,0.0,0.0,0.0,0.0,0.0,0.0,-4.4727,-4.48,0.0,0.0,0.0,0.0,0.0,0.0,0.0,0.0,0.0,0.0,0.0,0.0,0.0,0.0,0.0,0.0,0.0,0.0,0.0,0.0,0.0,0.0,0.0,0.0,0.0,0.0,0.0,0.0,0.0,0.0,0.0,0.0,0.0,0.0,0.0,0.0,0.0,0.0,0.0,0.0,-4.893,-4.8295,-4.7954,-4.8111,-4.7699,-4.7363,-4.721,-4.7227,-4.7363,-4.7699,-4.725,0.0,0.0,0.0,0.0,0.0,0.0,0.0,0.0,0.0,0.0,0.0,0.0,0.0,0.0,0.0,0.0,0.0,0.0,0.0,0.0,0.0,0.0,0.0,0.0,0.0,0.0,0.0,0.0,0.0,0.0,0.0,0.0,0.0,0.0,0.0,0.0,0.0,0.0,0.0,0.0,0.0,0.0,0.0,0.0,0.0,0.0,0.0,0.0,0.0,0.0,0.0,0.0,0.0,0.0,0.0,0.0,0.0,0.0,0.0,-4.5626,-4.5516,0.0,0.0,0.0,0.0,0.0,0.0,0.0,0.0,0.0,0.0,0.0,0.0,0.0,0.0,0.0,0.0,0.0,0.0,0.0,0.0,0.0,0.0,0.0,0.0,0.0,0.0,0.0,0.0,0.0,0.0,0.0,0.0,0.0,0.0,0.0,0.0,0.0,0.0,0.0,0.0,-4.923,-4.8688,-4.8411,-4.8765,-4.8524,-4.8199,-4.7881,-4.7851,-4.7984,-4.8299,-4.8027,0.0,0.0,0.0,0.0,0.0,0.0,0.0,0.0,0.0,0.0,0.0,0.0,0.0,0.0,0.0,0.0,0.0,0.0,0.0,0.0,0.0,0.0,0.0,0.0,0.0,0.0,0.0,0.0,0.0,0.0,0.0,0.0,0.0,0.0,0.0,0.0,0.0,0.0,0.0,0.0,0.0,0.0,0.0,0.0,0.0,0.0,0.0,0.0,0.0,0.0,0.0,0.0,0.0,-4.6104,-4.6177,-4.6324,-4.6324,-4.6691,-4.7259,-4.6617,-4.6324,-4.6324,-4.6324,0.0,0.0,0.0,0.0,0.0,0.0,0.0,0.0,0.0,0.0,0.0,0.0,0.0,0.0,0.0,0.0,0.0,0.0,0.0,0.0,0.0,0.0,-4.8535,-4.8535,-4.8539,-4.8325,-4.7545,0.0,0.0,0.0,0.0,0.0,0.0,0.0,0.0,0.0,0.0,0.0,-4.9609,-4.9246,-4.9142,-4.9752,-4.9821,-4.9593,-4.9063,-4.9001,-4.9001,-4.9001,-4.9001,-4.9001,0.0,0.0,0.0,0.0,0.0,0.0,0.0,0.0,0.0,0.0,0.0,0.0,0.0,0.0,0.0,0.0,0.0,0.0,0.0,0.0,0.0,0.0,0.0,0.0,0.0,0.0,0.0,0.0,0.0,0.0,0.0,0.0,-4.2275,-4.2442,0.0,0.0,0.0,0.0,0.0,0.0,0.0,0.0,0.0,0.0,0.0,0.0,0.0,-4.5736,-4.5736,-4.5847,-4.625,-4.6929,-4.6929,-4.7296,-4.7994,-4.7994,-4.8049,-4.8141,-4.8031,0.0,-4.7994,-4.7994,0.0,0.0,0.0,0.0,0.0,0.0,0.0,0.0,0.0,0.0,0.0,0.0,0.0,0.0,0.0,0.0,0.0,0.0,0.0,0.0,0.0,0.0,-4.9531,-4.9531,-4.9066,-4.8628,-4.8506,-4.8566,-4.8661,-4.8661,-4.875,-4.8821,0.0,0.0,0.0,0.0,0.0,0.0,-4.9163,-4.9029,-4.9019,-4.9121,-4.9138,-4.9107,-4.9001,-4.9001,-4.9001,-4.9001,-4.9001,-4.9001,-4.9001,-4.8917,0.0,0.0,0.0,0.0,0.0,0.0,0.0,0.0,0.0,0.0,0.0,0.0,0.0,0.0,0.0,0.0,0.0,0.0,0.0,0.0,0.0,0.0,0.0,0.0,0.0,0.0,0.0,0.0,0.0,-4.1661,-4.2322,-4.2655,-4.3178,-4.3515,0.0,0.0,0.0,0.0,0.0,0.0,0.0,0.0,0.0,-4.5883,-4.6342,-4.6562,-4.6562,-4.7021,-4.7443,-4.7755,-4.7755,-4.8233,-4.9022,-4.9022,-4.9279,-4.9719,-4.9719,-4.9719,-4.9627,-4.8691,-4.8306,-4.8306,0.0,0.0,0.0,0.0,-4.9315,-4.9719,-4.9719,-4.9719,-4.9719,-4.9719,0.0,0.0,0.0,0.0,0.0,0.0,0.0,-5.0703,-5.0299,-4.9941,-4.9595,-4.9228,-4.8935,-4.8749,-4.8749,-4.8816,-4.883,-4.8718,-4.9064,-4.9372,-4.9372,-4.9688,0.0,0.0,0.0,-4.9329,-4.9032,-4.9001,-4.9001,-4.9001,-4.9001,-4.9001,-4.9001,-4.9001,-4.9001,-4.9001,-4.9001,-4.9001,-4.9001,-4.9001,-4.9001,0.0,0.0,0.0,0.0,0.0,0.0,0.0,0.0,0.0,0.0,0.0,0.0,0.0,0.0,0.0,0.0,0.0,0.0,0.0,0.0,0.0,0.0,0.0,0.0,0.0,0.0,0.0,0.0,-4.2044,-4.2404,-4.2846,-4.325,-4.3588,0.0,0.0,0.0,0.0,0.0,0.0,-4.6159,-4.6214,-4.6305,-4.6507,-4.7076,-4.7498,-4.7755,-4.8324,-4.8746,-4.8948,-4.8948,-4.9279,-4.9922,-4.9922,-5.0215,-5.0802,-5.0802,-5.0802,-5.071,-4.9462,-4.8948,-4.8948,-4.8948,-4.9334,-4.9922,-4.9922,-5.0288,-5.0802,-5.0802,-5.0802,-5.0802,-5.0802,-5.0949,-5.1114,-5.1114,0.0,0.0,0.0,0.0,-5.0979,-5.0248,-4.9931,-4.9648,-4.9148,-4.8933,-4.8833,-4.8833,-4.8937,-4.8963,-4.8806,-4.9248,-4.9677,-4.9677,-4.9725,0.0,-5.0009,-4.9589,-4.9357,-4.9543,-4.956,-4.956,-4.956,-4.956,-4.956,-4.956,-4.956,-4.956,-4.956,-4.956,-4.9492,-4.9289,-4.9272,-4.9187,-4.9001,0.0,0.0,0.0,0.0,0.0,0.0,0.0,0.0,0.0,0.0,0.0,0.0,0.0,0.0,0.0,0.0,0.0,0.0,0.0,0.0,0.0,0.0,0.0,0.0,0.0,0.0,0.0,0.0,0.0,-4.3444,-4.3479,0.0,0.0,0.0,0.0,-4.5773,-4.5847,-4.6195,-4.7003,-4.7039,-4.7388,-4.8159,-4.8233,-4.8636,-4.9482,-4.9519,-4.9903,-5.0674,-5.0674,-5.071,-5.0747,-5.0747,-5.0765,-5.0802,-5.0802,-5.0802,-5.0802,-5.071,-5.0674,-5.0674,-5.0674,-5.071,-5.0747,-5.0747,-5.0765,-5.0802,-5.0802,-5.0802,-5.0802,-5.0802,-5.1316,-5.194,-5.194,-5.2472,0.0,0.0,-5.2033,-5.1892,-5.1193,-5.0513,-4.9968,-4.994,-4.9465,-4.8995,-4.8995,-4.9015,-4.9015,-4.8992,-4.9023,-4.9057,-4.9057,0.0,-4.93,-4.9978,-5.0065,-5.0287,-5.1014,-5.1099,-5.1099,-5.1099,-5.1099,-5.1099,-5.1099,-5.1099,-5.1099,-5.1099,-5.1099,-5.0777,-5.0067,-5.0033,-4.9712,-4.9018,-4.9001,0.0,0.0,0.0,0.0,0.0,0.0,0.0,0.0,0.0,0.0,0.0,0.0,0.0,0.0,0.0,0.0,0.0,0.0,0.0,0.0,0.0,0.0,0.0,0.0,0.0,0.0,0.0,0.0,-4.3444,-4.3956,0.0,-4.4654,-4.5168,-4.581,-4.6599,-4.6654,-4.7021,-4.7828,-4.8398,-4.8838,-4.9133,-4.9646,-5.0068,-5.0362,-5.0362,-5.0784,-5.1573,-5.1573,-5.2105,-5.3115,-5.3115,-5.339,-5.3885,-5.3885,-5.3885,-5.3846,-5.3372,-5.2255,-5.0802,-5.0802,-5.1114,-5.1573,-5.1573,-5.1903,-5.2344,-5.2344,-5.2344,-5.2281,-5.1784,-5.1837,-5.1987,-5.1556,-5.1634,-5.1801,-5.1537,-5.1444,-5.1292,-5.0581,-5.0567,-5.065,-5.018,-5.0252,-5.0439,-5.0439,-5.0439,-5.0439,-5.0439,-5.0033,-4.9864,-5.0338,-5.0439,-5.0524,-5.0777,-5.0811,-5.0913,-5.1183,-5.1185,-5.1185,-5.1185,-5.1185,-5.1185,-5.1185,-5.1185,-5.1185,-5.1185,-5.1185,-5.1099,-5.0828,-5.0811,-5.0456,-4.9712,-4.9712,-4.9475,0.0,0.0,0.0,0.0,0.0,0.0,0.0,0.0,0.0,0.0,0.0,0.0,0.0,0.0,0.0,0.0,0.0,0.0,0.0,0.0,0.0,0.0,0.0,0.0,0.0,-4.3305,-4.3506,-4.3866,-4.4617,-4.5223,-4.548,-4.5993,-4.6654,-4.7443,-4.7792,-4.8177,-4.871,-4.9536,-4.9994,-4.9994,-5.0784,-5.1334,-5.161,-5.1885,-5.2417,-5.3206,-5.3206,-5.3757,-5.4803,-5.4803,-5.5097,-5.5614,-5.5614,-5.5463,-5.5199,-5.4695,-5.3375,-5.1638,-5.1638,-5.1964,-5.244,-5.244,-5.2785,-5.3238,-5.3238,-5.3238,-5.315,-5.2646,-5.2505,-5.243,-5.197,-5.1838,-5.1785,-5.1561,-5.1507,-5.1342,-5.0597,-5.0785,-5.1059,-5.0583,-5.0845,-5.1185,-5.1185,-5.1185,-5.1252,-5.1539,-5.098,-5.0625,-5.1133,-5.1185,-5.1269,-5.1539,-5.1589,-5.1674,-5.1961,-5.1995,-5.1995,-5.1995,-5.1995,-5.1995,-5.1995,-5.1995,-5.1995,-5.1995,-5.1995,-5.186,-5.1589,-5.1589,-5.1234,-5.049,-5.0219,-4.9847,-4.9373,0.0,0.0,0.0,0.0,0.0,0.0,0.0,0.0,0.0,0.0,0.0,0.0,0.0,0.0,0.0,0.0,0.0,0.0,0.0,0.0,0.0,0.0,0.0,-4.2767,-4.3889,-4.4727,-4.4728,-4.5461,-4.625,-4.7021,-4.7149,-4.7498,-4.8288,-4.9132,-4.9647,-4.9647,-5.0417,-5.0875,-5.0875,-5.1683,-5.2491,-5.328,-5.4051,-5.484,-5.5629,-5.5629,-5.5669,-5.5666,-5.5666,-5.5666,-5.5666,-5.5666,-5.5249,-5.4571,-5.4503,-5.4043,-5.3321,-5.3313,-5.3305,-5.3305,-5.3305,-5.3305,-5.3305,-5.3305,-5.3305,-5.3296,-5.3296,-5.3268,-5.325,-5.3223,-5.3223,-5.3102,-5.2467,-5.2277,-5.2114,-5.1393,-5.1202,-5.1219,-5.1219,-5.1236,-5.1252,-5.1252,-5.1252,-5.1472,-5.2198,-5.1775,-5.1252,-5.1252,-5.1252,-5.1522,-5.2232,-5.2334,0.0,-5.3399,-5.3501,-5.3518,-5.3534,-5.3518,-5.3518,-5.3534,-5.3518,-5.3501,-5.3501,-5.3501,-5.3162,-5.2367,-5.2334,-5.1995,-5.1236,-5.0507,-5.0118,-5.0118,0.0,0.0,0.0,0.0,0.0,0.0,0.0,0.0,0.0,0.0,0.0,0.0,0.0,0.0,0.0,0.0,0.0,0.0,0.0,0.0,0.0,-4.32,-4.3715,-4.409,-4.4473,-4.4929,-4.5498,-4.6287,-4.6856,-4.7076,-4.8196,-4.8985,-4.9243,-4.9994,-5.0472,-5.0472,-5.1793,-5.2546,-5.2546,-5.3885,-5.4711,-5.4932,-5.5152,-5.5666,-5.6473,-5.6473,-5.6785,-5.7336,-5.7336,-5.7336,-5.7313,-5.677,-5.6432,-5.6142,-5.502,-5.4442,-5.4189,-5.3542,-5.3305,-5.3305,-5.3305,-5.3305,-5.3305,-5.3305,-5.3305,-5.3213,-5.2723,-5.2567,-5.2479,-5.1932,-5.1795,-5.1733,-5.1549,-5.1486,-5.1471,-5.1232,-5.1606,-5.2012,-5.2012,-5.2452,-5.2875,-5.2875,-5.2875,-5.2942,-5.3129,-5.301,-5.2875,-5.2875,-5.2875,-5.2942,-5.3145,-5.3179,-5.3247,-5.3467,-5.3501,-5.3704,-5.4228,-5.3822,-5.3721,-5.4245,-5.3805,-5.3501,-5.3501,-5.3501,-5.3399,-5.3179,-5.3179,-5.2807,-5.2012,-5.1285,-5.0913,0.0,0.0,0.0,0.0,0.0,0.0,0.0,0.0,0.0,0.0,0.0,0.0,0.0,0.0,0.0,0.0,0.0,0.0,0.0,0.0,0.0,0.0,-4.3923,-4.4582,-4.5572,-4.57,-4.5865,-4.6361,-4.7443,-4.8159,-4.8159,-4.9334,-5.0086,-5.0086,-5.1151,-5.1811,-5.1811,-5.3335,-5.4216,-5.4216,-5.5445,-5.6106,-5.6106,-5.6436,-5.684,-5.7299,-5.7299,-5.7721,-5.851,-5.851,-5.8493,-5.8482,-5.8042,-5.7478,-5.6755,-5.5549,-5.4871,-5.4529,0.0,0.0,0.0,0.0,-5.3363,-5.3363,-5.3363,-5.3363,-5.332,-5.2943,-5.2803,-5.2709,-5.2278,-5.2164,-5.2164,-5.2164,-5.2164,-5.2164,-5.2164,-5.2486,-5.2807,-5.2807,-5.3399,-5.3957,-5.3957,-5.4211,-5.4431,-5.4431,-5.4431,0.0,-5.4431,-5.3923,-5.3501,-5.3501,-5.3501,-5.3501,-5.3501,-5.3501,-5.367,-5.4093,-5.3754,-5.367,-5.4093,-5.3754,0.0,0.0,0.0,-5.3501,-5.3501,-5.3501,0.0,0.0,0.0,-5.1674,-5.1674,-5.1369,0.0,0.0,-4.9407,-4.9069,0.0,0.0,0.0,0.0,0.0,0.0,0.0,0.0,0.0,0.0,0.0,0.0,0.0,0.0,0.0,0.0,-4.4838,-4.5498,-4.7021,-4.7314,-4.7369,-4.7369,-4.8765,-4.9739,-4.9739,-5.0453,-5.0967,-5.1059,-5.2491,-5.3369,-5.3482,-5.4913,0.0,0.0,0.0,-5.695,-5.695,-5.774,-5.8143,-5.8143,-5.8235,-5.8592,-5.9218,-5.9218,-5.9161,-5.906,-5.896,-5.8131,-5.6742,-5.5988,-5.5325,-5.4634,-5.3822,-5.3501,-5.3501,-5.3501,-5.3501,-5.3501,-5.3501,0.0,0.0,-5.3501,-5.3501,-5.3501,-5.3501,-5.3501,-5.3501,-5.3501,-5.3568,-5.3619,-5.3619,-5.3687,-5.3754,-5.3754,-5.4245,-5.4718,-5.4718,-5.5243,-5.5681,-5.5681,-5.5681,-5.5681,-5.5681,-5.4617,-5.3754,-5.3754,-5.3754,-5.3754,-5.3754,-5.3754,-5.3788,-5.3873,-5.3805,0.0,-5.3873,-5.3805,-5.3721,-5.3636,-5.3551,-5.3501,-5.3501,-5.3501,-5.3501,-5.3501,-5.2807,-5.2435,-5.2435,-5.1792,-5.1388,-5.1319,-5.0574,-4.9864,0.0,0.0,0.0,0.0,0.0,0.0,0.0,0.0,0.0,0.0,0.0,0.0,0.0,0.0,0.0,-4.4565,-4.5792,-4.6966,-4.792,-4.8673,-4.9114,-4.9114,-4.9976,-5.0563,-5.0563,-5.1298,-5.2032,-5.2692,-5.3628,-5.4454,-5.5097,-5.6051,-5.6565,-5.6565,-5.7354,-5.7776,-5.7776,-5.8584,-5.8964,-5.8964,-5.963,0.0,-5.9208,-5.9208,-5.8835,-5.8213,-5.7548,-5.7097,-5.6744,-5.6013,-5.5619,-5.5361,-5.4025,-5.3501,-5.3501,-5.3501,-5.3501,-5.3501,-5.3501,-5.3501,-5.3501,-5.3501,-5.3501,-5.3501,-5.3501,-5.3501,0.0,-5.3501,-5.3923,-5.438,-5.438,-5.4837,-5.5294,-5.5294,-5.5395,-5.5497,-5.5497,-5.5615,-5.5681,-5.5681,-5.5681,-5.5681,-5.5681,-5.548,-5.5294,-5.5294,-5.5294,-5.5294,-5.5294,-5.5294,-5.5513,-5.6105,-5.5632,-5.553,-5.6105,-5.5632,-5.5023,-5.4414,-5.3822,-5.3501,-5.3501,-5.3501,-5.3501,-5.3501,-5.3348,-5.3264,-5.3264,-5.3129,-5.2723,-5.208,-5.1336,-5.093,0.0,0.0,0.0,0.0,0.0,0.0,0.0,0.0,0.0,0.0,0.0,-4.1834,-4.2692,0.0,-4.4824,-4.5737,-4.6911,-4.7994,-4.882,-5.0013,-5.0657,-5.0251,-5.0912,-5.1389,-5.1389,-5.2491,-5.3371,-5.3775,-5.4932,-5.5776,-5.618,-5.6969,-5.7409,-5.7409,-5.7795,-5.7998,-5.8007,-5.878,-5.92,-5.9208,-5.9608,-5.9792,-5.9808,-5.9386,-5.8976,-5.8534,-5.8116,-5.7703,-5.7295,-5.6553,-5.6038,-5.5614,-5.4905,-5.4617,-5.4617,-5.4617,-5.4617,-5.4617,-5.4617,-5.4363,-5.4042,-5.4042,-5.4042,-5.4042,-5.4042,-5.4313,-5.4617,-5.4617,-5.4871,-5.5158,-5.5158,-5.5429,-5.5681,-5.5681,-5.5987,-5.6258,-5.6258,-5.6545,-5.6799,-5.6799,-5.6799,-5.6799,-5.6799,-5.6799,-5.6562,-5.5818,-5.5681,-5.5681,-5.5681,-5.5681,-5.5817,-5.6224,-5.5936,-5.5869,-5.6224,-5.5919,-5.5547,-5.5175,-5.4803,-5.4448,-5.4059,-5.4042,-5.3873,-5.3518,-5.3501,-5.3501,-5.3501,-5.3501,-5.3298,-5.2892,-5.252,-5.1961,0.0,0.0,0.0,0.0,0.0,0.0,0.0,0.0,-4.0391,-4.0614,-4.1684,-4.2777,-4.3433,-4.4638,-4.591,-4.7129,-4.7929,-4.8764,-4.9901,-5.0947,-5.1505,-5.1295,-5.1848,-5.2289,-5.2435,-5.3628,-5.4528,-5.484,-5.6069,-5.6877,-5.7024,-5.7648,-5.7932,-5.7774,-5.7938,-5.802,-5.8015,-5.8798,-5.9288,-5.943,-5.9438,-5.9667,-6.0135,-5.9489,-5.9077,-5.8875,-5.8875,-5.8494,-5.7831,-5.7256,-5.6664,-5.6139,-5.6139,-5.6139,-5.6105,-5.5818,-5.5681,-5.5681,-5.5681,-5.531,-5.4803,-5.4803,-5.4803,-5.4803,-5.4803,-5.5243,-5.5681,-5.5681,-5.5783,-5.5919,-5.5919,-5.6038,-5.6139,-5.6139,-5.6579,-5.7019,-5.7019,-5.7476,-5.7881,-5.7881,-5.7881,-5.7881,-5.7881,-5.7881,-5.7492,-5.6325,-5.6139,-5.6139,-5.6139,-5.6139,-5.6139,-5.6139,-5.6139,-5.6139,-5.6139,-5.6004,-5.5919,-5.5919,-5.5801,-5.5446,-5.4837,-5.4803,-5.4465,-5.3737,-5.3721,-5.3653,-5.3501,-5.3501,-5.3501,-5.3501,-5.3501,-5.2841,-4.0096,-4.0096,-4.0096,-4.0096,-4.0096,-4.0096,0.0,0.0,-4.1375,-4.2442,-4.3328,-4.4231,-4.5364,-4.6386,-4.7298,-4.8044,-4.8438,-4.9381,-5.1449,-5.0803,-5.0844,-5.2712,-5.3002,-5.3353,-5.4069,-5.4289,-5.4987,-5.6436,-5.6712,-5.7116,-5.7831,-5.7941,-5.7703,-5.704,-5.7658,-5.8029,-5.8093,-5.8813,-5.9563,-6.0277,-6.0279,-5.9906,-5.9238,-5.9139,-5.8737,-5.8046,-5.8046,-5.7974,-5.7881,-5.7797,-5.7729,-5.7645,-5.7645,-5.7645,-5.7492,-5.619,-5.5681,-5.5681,-5.5681,-5.5666,-5.5598,-5.5598,-5.5598,-5.5598,-5.5598,-5.5614,-5.5681,-5.5681,-5.619,-5.6681,-5.6681,-5.7154,-5.7645,-5.7645,-5.7712,-5.7763,-5.7763,-5.7831,-5.7881,-5.7881,-5.7881,-5.7881,-5.7881,-5.7881,-5.7831,-5.7679,-5.7645,-5.7645,-5.7645,-5.7645,-5.7645,-5.7645,-5.7645,-5.7645,-5.7645,-5.7053,-5.6681,-5.6681,-5.6072,-5.5647,-5.5598,-5.5598,-5.5243,-5.4482,-5.4465,-5.4143,-5.3501,-5.3501,-5.3501,-5.3501,-5.3501,-5.3416,-4.0096,-4.0096,-4.0096,-4.0096,-4.0409,-4.073,-4.073,-4.1305,-4.2082,-4.3003,-4.3763,-4.4671,-4.5946,-4.6883,-4.7818,-4.8941,-4.9263,-5.0001,-5.1757,-5.1196,-5.124,-5.3002,-5.2858,-5.3074,-5.4279,-5.4852,-5.5627,-5.6703,-5.6841,-5.7006,-5.7358,-5.6927,-5.6724,-5.6882,-5.7194,-5.7555,-5.7968,-5.8789,-5.9368,-5.9637,-5.9625,-5.9443,-5.9077,-5.8633,-5.8227,-5.7881,-5.7881,-5.7881,-5.7881,-5.7881,-5.7881,-5.7881,-5.7881,-5.7881,-5.7814,-5.7205,-5.6985,-5.6985,-5.6985,-5.6714,-5.6342,-5.6342,-5.6342,-5.6342,-5.6342,-5.6647,-5.6985,-5.6985,-5.7205,-5.7442,-5.7442,-5.7662,-5.7881,-5.7881,-5.7881,-5.7881,-5.7881,-5.7881,-5.7881,-5.7881,-5.7881,-5.7881,-5.7881,-5.7881,-5.7881,-5.7881,-5.7881,-5.7881,-5.7881,-5.7881,-5.7881,-5.7881,-5.7881,-5.7881,-5.7881,-5.7611,-5.7442,-5.7442,-5.7154,-5.6799,-5.6376,-5.6342,-5.6004,-5.526,-5.5243,-5.5091,-5.4786,-5.4786,-5.4786,-5.4786,-5.4786,-5.4786,-4.0096,-4.0248,-4.0417,-4.0417,-4.095,-4.1508,-4.1508,-4.2066,-4.2839,-4.3684,-4.4317,-4.5165,-4.6702,-4.75,-4.8322,-4.9561,-4.9841,-5.0356,-5.157,-5.1055,-5.1105,-5.2742,-5.2324,-5.2581,-5.4254,-5.4993,-5.5775,-5.6737,-5.6689,-5.6571,-5.6571,-5.6022,-5.5963,-5.654,-5.6768,-5.7219,-5.7919,-5.852,-5.8935,-5.9077,-5.8875,-5.8772,-5.8755,-5.8173,-5.7881,-5.7881,-5.7881,-5.7881,-5.7881,-5.7881,-5.7881,-5.7881,-5.7881,-5.7881,-5.7881,-5.7881,-5.7881,-5.7881,-5.7881,-5.7543,-5.7103,-5.7103,-5.7103,-5.7103,-5.7103,-5.7476,-5.7881,-5.7881,-5.7881,-5.7881,-5.7881,-5.7881,-5.7881,-5.7881,-5.7881,-5.7881,-5.7881,-5.7881,-5.7881,-5.7881,-5.7881,-5.7881,-5.7881,-5.7881,-5.7881,-5.7881,-5.7881,-5.7881,-5.7881,-5.7881,-5.7881,-5.7881,-5.7881,-5.7881,-5.7881,-5.7881,-5.7881,-5.7881,-5.7881,-5.7645,-5.712,-5.7103,-5.6765,-5.6038,-5.6021,-5.5919,-5.5681,-5.5681,-5.5681,-5.5681,-5.5681,-5.5681,-4.0096,0.0,-4.117,-4.117,-4.1711,-4.2252,-4.2252,-4.2844,-4.3721,-4.4994,-4.5362,-4.6075,-4.8066,-4.8621,-4.8997,-4.9768,-4.9948,-5.0262,-5.1025,-4.9936,-4.9855,-5.1978,-5.1644,-5.2097,-5.4292,-5.452,-5.5204,-5.6778,-5.6186,-5.5752,-5.5752,-5.5706,-5.5701,-5.5747,-5.6443,-5.7205,-5.8002,-5.796,-5.8335,-5.9077,-5.8317,-5.7954,-5.7954,-5.7918,-5.7881,-5.7881,-5.7881,-5.7881,-5.7881,-5.7881,-5.7881,-5.7881,-5.7881,-5.7881,-5.7881,-5.7881,-5.7881,-5.7881,-5.7881,-5.7881,-5.7865,-5.7865,-5.7865,-5.7865,-5.7865,-5.7865,-5.7881,-5.7881,-5.7881,-5.7881,-5.7881,-5.7881,-5.7881,-5.7881,-5.7881,-5.7881,-5.7881,-5.7881,-5.7881,-5.7881,-5.7881,-5.7881,-5.7881,-5.7881,-5.7881,-5.7881,-5.7881,-5.7881,-5.7881,-5.7881,-5.7881,-5.7881,-5.7881,-5.7881,-5.7881,-5.7881,-5.7881,-5.7881,-5.7881,-5.7881,-5.7865,-5.7865,-5.7509,-5.6782,-5.6765,-5.6427,-5.5681,-5.5681,-5.5681,-5.5681,-5.5681,-5.5681,-4.0696,0.0,-4.1322,-4.1813,-4.2489,-4.3031,-4.3031,-4.3623,-4.4422,-4.5248,-4.513,-4.5392,-4.6955,-4.6951,-4.7279,-4.8965,-4.9264,-4.9704,-5.0937,-5.0269,-5.0304,-5.2074,-5.1641,-5.2089,-5.4343,-5.4568,-5.4981,-5.6031,-5.5408,-5.4982,-5.4982,-5.4499,-5.4689,-5.5672,-5.5928,-5.6679,-5.7906,-5.7927,-5.8046,-5.8281,-5.8046,-5.7881,-5.7881,-5.7881,-5.7881,-5.7881,-5.7881,-5.7881,-5.7881,-5.7881,-5.7881,-5.7881,-5.7881,-5.7881,-5.7881,-5.7881,-5.7881,-5.7881,-5.7881,-5.7881,-5.7881,-5.7881,-5.7881,-5.7881,-5.7881,-5.7881,-5.7881,-5.7881,-5.7881,-5.7881,-5.7881,-5.7881,-5.7881,-5.7881,-5.7881,-5.7881,-5.7881,-5.7881,-5.7881,-5.7881,-5.7881,-5.7881,-5.7881,-5.7881,-5.7881,-5.7881,-5.7881,-5.7881,-5.7881,-5.7881,-5.7881,-5.7881,-5.7881,-5.7881,-5.7881,-5.7881,-5.7881,-5.7881,-5.7881,-5.7881,-5.7881,-5.7881,-5.7763,-5.7526,-5.7526,-5.7408,-5.7154,-5.7154,-5.7154,-5.7154,-5.7154,-5.7154,-4.1001,-4.139,-4.1779,-4.2506,-4.3267,-4.3826,-4.3826,-4.4215,-4.4759,-4.5372,-4.5025,-4.5007,-4.6366,-4.6295,-4.652,-4.7917,-4.8577,-4.9129,-4.9871,-4.9763,-5.0201,-5.173,-5.1503,-5.2002,-5.3999,-5.4218,-5.4513,-5.5262,-5.462,-5.4218,-5.4218,-5.375,-5.4194,-5.5666,-5.5681,-5.6427,-5.7881,-5.7881,-5.7881,-5.7881,-5.7881,-5.7881,-5.7881,-5.7881,-5.7881,-5.7881,-5.7881,-5.7881,-5.7881,-5.7881,-5.7881,-5.7881,-5.7881,-5.7881,-5.7881,-5.7881,-5.7881,-5.7881,-5.7881,-5.7881,-5.7881,-5.7881,-5.7881,-5.7881,-5.7881,-5.7881,-5.7881,-5.7881,-5.7881,-5.7881,-5.7881,-5.7881,-5.7881,-5.7881,-5.7881,-5.7881,-5.7881,-5.7881,-5.7881,-5.7881,-5.7881,-5.7881,-5.7881,-5.7881,-5.7881,-5.7881,-5.7881,-5.7881,-5.7881,-5.7881,-5.7881,-5.7881,-5.7881,-5.7881,-5.7881,-5.7881,-5.7881,-5.7881,-5.7881,-5.7881,-5.7881,-5.7881,-5.7881,-5.7881,-5.7881,-5.7881,-5.7881,-5.7881,-5.7881,-5.7881,-5.7881,-5.7881,-4.1052,-4.1796,-4.2523,-4.3284,-4.4045,-4.4615,-4.4615,-4.4615,-4.4759,-4.5346,-4.4998,-4.498,0.0,0.0,-4.6631,-4.6746,-4.7929,-4.862,-4.7975,-4.8558,-4.9574,0.0,0.0,-5.1826,-5.3365,-5.3501,-5.3766,-5.4482,-5.3881,-5.3501,-5.3501,-5.3501,-5.4194,-5.5666,-5.5681,-5.6427,-5.7881,-5.7881,-5.7881,-5.7881,-5.7881,-5.7881,-5.7881,-5.7881,-5.7881,-5.7881,-5.7881,-5.7881,-5.7881,-5.7881,-5.7881,-5.7881,-5.7881,-5.7881,-5.7881,-5.7881,-5.7881,-5.7881,-5.7881,-5.7881,-5.7881,-5.7881,-5.7881,-5.7881,-5.7881,-5.7881,-5.7881,-5.7881,-5.7881,-5.7881,-5.7881,-5.7881,-5.7881,-5.7881,-5.7881,-5.7881,-5.7881,-5.7881,-5.7881,-5.7881,-5.7881,-5.7881,-5.7881,-5.7881,-5.7881,-5.7881,-5.7881,-5.7881,-5.7881,-5.7881,-5.7881,-5.7881,-5.7881,-5.7881,-5.7881,-5.7881,-5.7881,-5.7881,-5.7881,-5.7881,-5.7881,-5.7881,-5.7881,-5.7881,-5.7881,-5.7881,-5.7881,-5.7881,-5.7881,-5.7881,-5.7881,-5.7881,-4.1813,-4.2557,-4.3318,-4.4096,-4.4462,-4.4615,-4.4615,-4.4615,-4.4654,-4.4786,-4.4692,-4.4705,0.0,0.0,0.0,-4.5884,-4.7157,0.0,-4.7907,-4.8971,0.0,-5.1095,0.0,-5.1826,-5.3365,-5.3501,-5.3584,-5.3783,-5.3618,-5.3501,-5.3501,-5.3501,-5.4194,-5.5666,-5.5681,-5.6427,-5.7881,-5.7881,-5.7881,-5.7881,-5.7881,-5.7881,-5.7881,-5.7881,-5.7881,-5.7881,-5.7881,-5.7881,-5.7881,-5.7881,-5.7881,-5.7881,-5.7881,-5.7881,-5.7881,-5.7881,-5.7881,-5.7881,-5.7881,-5.7881,-5.7881,-5.7881,-5.7881,-5.7881,-5.7881,-5.7881,-5.7881,-5.7881,-5.7881,-5.7881,-5.7881,-5.7881,-5.7881,-5.7881,-5.7881,-5.7881,-5.7881,-5.7881,-5.7881,-5.7881,-5.7881,-5.7881,-5.7881,-5.7881,-5.7881,-5.7881,-5.7881,-5.7881,-5.7881,-5.7881,-5.7881,-5.7881,-5.7881,-5.7881,-5.7881,-5.7881,-5.7881,-5.7881,-5.7881,-5.7881,-5.7881,-5.7881,-5.7881,-5.7881,-5.7881,-5.7881,-5.7881,-5.7881,-5.7881,-5.7881,-5.7881,-5.7881,-4.21,-4.2844,-4.3578,-4.4412,-4.4615,-4.4615,-4.4615,-4.4615,-4.4615,-4.4615,-4.4615,0.0,-4.4615,-4.4615,0.0,0.0,0.0,0.0,-4.742,-4.8664,-4.9966,0.0,-5.1185,0.0,-5.3365,-5.3501,-5.3501,-5.3501,-5.3501,-5.3501,-5.3501,-5.3501,-5.4042,-5.5192,-5.5547,-5.6427,-5.7881,-5.7881,-5.7881,-5.7881,-5.7881,-5.7881,-5.7881,-5.7881,-5.7881,-5.7881,-5.7881,-5.7881,-5.7881,-5.7881,-5.7881,-5.7881,-5.7881,-5.7881,-5.7881,-5.7881,-5.7881,-5.7881,-5.7881,-5.7881,-5.7881,-5.7881,-5.7881,-5.7881,-5.7881,-5.7881,-5.7881,-5.7881,-5.7881,-5.7881,-5.7881,-5.7881,-5.7881,-5.7881,-5.7881,-5.7881,-5.7881,-5.7881,-5.7881,-5.7881,-5.7881,-5.7881,-5.7881,-5.7881,-5.7881,-5.7881,-5.7881,-5.7881,-5.7881,-5.7881,-5.7881,-5.7881,-5.7881,-5.7881,-5.7881,-5.7881,-5.7881,-5.7881,-5.7881,-5.7881,-5.7881,-5.7881,-5.7881,-5.7881,-5.7881,-5.7881,-5.7881,-5.7881,-5.7881,-5.7881,-5.7881,-5.7881,-4.2117,-4.2912,-4.3741,-4.4445,-4.4615,-4.4581,-4.4479,-4.453,-4.4581,-4.4479,0.0,-4.4615,-4.4615,-4.4615,-4.4615,-4.4615,0.0,-4.6786,-4.6786,-4.8071,-4.9509,-5.0896,-5.115,-5.1775,-5.3213,-5.345,-5.3501,-5.3501,-5.3501,-5.3501,-5.3501,-5.3501,-5.3873,-5.4718,-5.5463,-5.6511,-5.7881,-5.7881,-5.7881,-5.7881,-5.7881,-5.7881,-5.7881,-5.7881,-5.7881,-5.7881,-5.7881,-5.7881,-5.7881,-5.7881,-5.7881,-5.7881,-5.7881,-5.7881,-5.7881,-5.7881,-5.7881,-5.7881,-5.7881,-5.7881,-5.7881,-5.7881,-5.7881,-5.7881,-5.7881,-5.7881,-5.7881,-5.7881,-5.7881,-5.7881,-5.7881,-5.7881,-5.7881,-5.7881,-5.7881,-5.7881,-5.7881,-5.7881,-5.7881,-5.7881,-5.7881,-5.7881,-5.7881,-5.7881,-5.7881,-5.7881,-5.7881,-5.7881,-5.7881,-5.7881,-5.7881,-5.7881,-5.7881,-5.7881,-5.7881,-5.7881,-5.7881,-5.7881,-5.7881,-5.7881,-5.7881,-5.7881,-5.7881,-5.7881,-5.7881,-5.7881,-5.7881,-5.7881,-5.7881,-5.7881,-5.7881,-5.7881,-4.2252,-4.3318,-4.4445,-4.4581,-4.4615,-4.4445,-4.3775,-4.4113,0.0,0.0,-4.413,-4.4615,-4.4615,-4.4615,-4.4615,-4.4615,0.0,0.0,0.0,-4.8071,-4.9323,0.0,-5.0828,-5.1555,-5.2418,-5.3112,-5.3501,-5.3501,-5.3501,-5.3501,-5.3501,-5.3501,-5.4126,-5.548,-5.6224,-5.7019,-5.7881,-5.7881,-5.7881,-5.7881,-5.7881,-5.7881,-5.7881,-5.7881,-5.7881,-5.7881,-5.7881,-5.7881,-5.7881,-5.7881,-5.7881,-5.7881,-5.7881,-5.7881,-5.7881,-5.7881,-5.7881,-5.7881,-5.7881,-5.7881,-5.7881,-5.7881,-5.7881,-5.7881,-5.7881,-5.7881,-5.7881,-5.7881,-5.7881,-5.7881,-5.7881,-5.7881,-5.7881,-5.7881,-5.7881,-5.7881,-5.7881,-5.7881,-5.7881,-5.7881,-5.7881,-5.7881,-5.7881,-5.7881,-5.7881,-5.7881,-5.7881,-5.7881,-5.7881,-5.7881,-5.7881,-5.7881,-5.7881,-5.7881,-5.7881,-5.7881,-5.7881,-5.7881,-5.7881,-5.7881,-5.7881,-5.7881,-5.7881,-5.7881,-5.7881,-5.7881,-5.7881,-5.7881,-5.7881,-5.7881,-5.7881,-5.7881,-4.2286,-4.3447,-4.4615,-4.4615,-4.4282,-4.3876,-4.3504,0.0,0.0,0.0,-4.4045,-4.4615,-4.4615,0.0,0.0,0.0,0.0,0.0,0.0,0.0,0.0,-4.9999,-5.076,-5.1505,-5.2232,-5.3027,-5.3501,-5.3501,-5.3501,-5.3501,-5.3501,-5.3501,-5.4008,-5.5091,-5.5852,-5.6579,-5.7306,-5.7695,-5.7881,-5.7881,-5.7881,-5.7881,-5.7881,-5.7881,-5.7881,-5.7881,-5.7881,-5.7881,-5.7881,-5.7881,-5.7881,-5.7881,-5.7881,-5.7881,-5.7881,-5.7881,-5.7881,-5.7881,-5.7881,-5.7881,-5.7881,-5.7881,-5.7881,-5.7881,-5.7881,-5.7881,-5.7881,-5.7881,-5.7881,-5.7881,-5.7881,-5.7881,-5.7881,-5.7881,-5.7881,-5.7881,-5.7881,-5.7881,-5.7881,-5.7881,-5.7881,-5.7881,-5.7881,-5.7881,-5.7881,-5.7881,-5.7881,-5.7881,-5.7881,-5.7881,-5.7881,-5.7881,-5.7881,-5.7881,-5.7881,-5.7881,-5.7881,-5.7881,-5.7881,-5.7881,-5.7881,-5.7881,-5.7881,-5.7881,-5.7881,-5.7881,-5.7881,-5.7881,-5.7881,-5.7881,-5.7881,-5.7881,-4.2049,-4.3047,-4.4124,-4.4124,-4.3623,-4.3105,-4.2953,-4.3037,0.0,0.0,-4.3792,-4.4412,-4.4581,0.0,0.0,0.0,0.0,0.0,0.0,0.0,0.0,0.0,-5.0524,0.0,-5.1995,-5.279,-5.3315,-5.3501,-5.3501,-5.3501,-5.3501,-5.3501,-5.3839,-5.4566,-5.5327,-5.6055,-5.6799,-5.7526,-5.7881,-5.7881,-5.7881,-5.7881,-5.7881,-5.7881,-5.7881,-5.7881,-5.7881,-5.7881,-5.7881,-5.7881,-5.7881,-5.7881,-5.7881,-5.7881,-5.7881,-5.7881,-5.7881,-5.7881,-5.7881,-5.7881,-5.7881,-5.7881,-5.7881,-5.7881,-5.7881,-5.7881,-5.7881,-5.7881,-5.7881,-5.7881,-5.7881,-5.7881,-5.7881,-5.7881,-5.7881,-5.7881,-5.7881,-5.7881,-5.7881,-5.7881,-5.7881,-5.7881,-5.7881,-5.7881,-5.7881,-5.7881,-5.7881,-5.7881,-5.7881,-5.7881,-5.7881,-5.7881,-5.7881,-5.7881,-5.7881,-5.7881,-5.7881,-5.7881,-5.7881,-5.7881,-5.7881,-5.7881,-5.7881,-5.7881,-5.7881,-5.7881,-5.7881,-5.7881,-5.7881,-5.7881,-5.7881,-5.7881,-4.1305,-4.188,-4.2506,-4.2506,-4.2455,-4.2219,-4.1559,0.0,0.0,-4.2388,-4.2997,-4.3741,-4.4479,0.0,0.0,0.0,0.0,0.0,0.0,0.0,0.0,0.0,0.0,0.0,-5.1251,-5.1978,-5.2706,-5.345,-5.3501,-5.3501,-5.3501,-5.3501,-5.3839,-5.4566,-5.5327,-5.6055,-5.6799,-5.7526,-5.7881,-5.7881,-5.7881,-5.7881,-5.7881,-5.7881,-5.7881,-5.7881,-5.7881,-5.7881,-5.7881,-5.7881,-5.7881,-5.7881,-5.7881,-5.7881,-5.7881,-5.7881,-5.7881,-5.7881,-5.7881,-5.7881,-5.7881,-5.7881,-5.7881,-5.7881,-5.7881,-5.7881,-5.7881,-5.7881,-5.7881,-5.7881,-5.7881,-5.7881,-5.7881,-5.7881,-5.7881,-5.7881,-5.7881,-5.7881,-5.7881,-5.7881,-5.7881,-5.7881,-5.7881,-5.7881,-5.7881,-5.7881,-5.7881,-5.7881,-5.7881,-5.7881,-5.7881,-5.7881,-5.7881,-5.7881,-5.7881,-5.7881,-5.7881,-5.7881,-5.7881,-5.7881,-5.7881,-5.7881,-5.7881,-5.7881,-5.7881,-5.7881,-5.7881,-5.7881,-5.7881,-5.7881,-5.7881,-5.7881,-4.1204,-4.1728,-4.2286,-4.2286,-4.1965,-4.1559,-4.1271,0.0,-4.1762,-4.2202,-4.2895,-4.3656,-4.4462,0.0,0.0,0.0,0.0,0.0,0.0,0.0,0.0,0.0,-4.9644,0.0,-5.115,-5.1877,-5.2638,-5.345,-5.3501,-5.3501,-5.3501,-5.3501,-5.3636,-5.3923,-5.4651,-5.5395,-5.6139,-5.6867,-5.7459,-5.7881,-5.7881,-5.7881,-5.7881,-5.7881,-5.7881,-5.7881,-5.7881,-5.7881,-5.7881,-5.7881,-5.7881,-5.7881,-5.7881,-5.7881,-5.7881,-5.7881,-5.7881,-5.7881,-5.7881,-5.7881,-5.7881,-5.7881,-5.7881,-5.7881,-5.7881,-5.7881,-5.7881,-5.7881,-5.7881,-5.7881,-5.7881,-5.7881,-5.7881,-5.7881,-5.7881,-5.7881,-5.7881,-5.7881,-5.7881,-5.7881,-5.7881,-5.7881,-5.7881,-5.7881,-5.7881,-5.7881,-5.7881,-5.7881,-5.7881,-5.7881,-5.7881,-5.7881,-5.7881,-5.7881,-5.7881,-5.7881,-5.7881,-5.7881,-5.7881,-5.7881,-5.7881,-5.7881,-5.7881,-5.7881,-5.7881,-5.7881,-5.7881,-5.7881,-5.7881,-5.7881,-5.7881,-5.7881,-4.0865,-4.1238,-4.1644,-4.1644,-4.1255,-4.0865,0.0,0.0,-4.1153,-4.21,-4.2709,-4.3386,-4.4429,0.0,0.0,0.0,0.0,0.0,0.0,0.0,0.0,0.0,0.0,-5.0152,-5.1116,-5.2097,-5.2892,-5.3467,-5.3501,-5.3501,-5.3501,-5.3501,-5.3501,-5.3501,-5.4211,-5.4955,-5.5681,-5.6444,-5.7171,-5.7881,-5.7881,-5.7881,-5.7881,-5.7881,-5.7881,-5.7881,-5.7881,-5.7881,-5.7881,-5.7881,-5.7881,-5.7881,-5.7881,-5.7881,-5.7881,-5.7881,-5.7881,-5.7881,-5.7881,-5.7881,-5.7881,-5.7881,-5.7881,-5.7881,-5.7881,-5.7881,-5.7881,-5.7881,-5.7881,-5.7881,-5.7881,-5.7881,-5.7881,-5.7881,-5.7881,-5.7881,-5.7881,-5.7881,-5.7881,-5.7881,-5.7881,-5.7881,-5.7881,-5.7881,-5.7881,-5.7881,-5.7881,-5.7881,-5.7881,-5.7881,-5.7881,-5.7881,-5.7881,-5.7881,-5.7881,-5.7881,-5.7881,-5.7881,-5.7881,-5.7881,-5.7881,-5.7881,-5.7881,-5.7881,-5.7881,-5.7881,-5.7881,-5.7881,-5.7881,-5.7881,-5.7881,-5.7881,-4.0113,-4.013,-4.013,-4.013,-4.013,-4.0113,0.0,0.0,0.0,-4.1982,-4.2303,-4.276,-4.4327,0.0,0.0,0.0,0.0,0.0,0.0,0.0,0.0,0.0,0.0,-4.9593,-5.105,-5.2604,-5.3501,-5.3501,-5.3501,-5.3501,-5.3501,-5.3501,-5.3501,-5.3501,-5.4211,-5.4955,-5.5681,-5.6444,-5.7171,-5.7881,-5.7881,-5.7881,-5.7881,-5.7881,-5.7881,-5.7881,-5.7881,-5.7881,-5.7881,-5.7881,-5.7881,-5.7881,-5.7881,-5.7881,-5.7881,-5.7881,-5.7881,-5.7881,-5.7881,-5.7881,-5.7881,-5.7881,-5.7881,-5.7881,-5.7881,-5.7881,-5.7881,-5.7881,-5.7881,-5.7881,-5.7881,-5.7881,-5.7881,-5.7881,-5.7881,-5.7881,-5.7881,-5.7881,-5.7881,-5.7881,-5.7881,-5.7881,-5.7881,-5.7881,-5.7881,-5.7881,-5.7881,-5.7881,-5.7881,-5.7881,-5.7881,-5.7881,-5.7881,-5.7881,-5.7881,-5.7881,-5.7881,-5.7881,-5.7881,-5.7881,-5.7881,-5.7881,-5.7881,-5.7881,-5.7881,-5.7881,-5.7881,-5.7881,-5.7881,-5.7881,-5.7881,-5.7881,-4.0096,-4.0096,-4.0096,-4.0096,-4.0096,-4.0096,-4.0096,0.0,0.0,0.0,-4.2286,0.0,0.0,0.0,0.0,0.0,0.0,0.0,0.0,0.0,0.0,-4.8951,-4.9898,-5.071,-5.1134,-5.2604,-5.3501,-5.3501,-5.3501,-5.3501,-5.3501,-5.3501,-5.3501,-5.3501,-5.3737,-5.4194,-5.4938,-5.5683,-5.6427,-5.7154,-5.7645,-5.7881,-5.7881,-5.7881,-5.7881,-5.7881,-5.7881,-5.7881,-5.7881,-5.7881,-5.7881,-5.7881,-5.7881,-5.7881,-5.7881,-5.7881,-5.7881,-5.7881,-5.7881,-5.7881,-5.7881,-5.7881,-5.7881,-5.7881,-5.7881,-5.7881,-5.7881,-5.7881,-5.7881,-5.7881,-5.7881,-5.7881,-5.7881,-5.7881,-5.7881,-5.7881,-5.7881,-5.7881,-5.7881,-5.7881,-5.7881,-5.7881,-5.7881,-5.7881,-5.7881,-5.7881,-5.7881,-5.7881,-5.7881,-5.7881,-5.7881,-5.7881,-5.7881,-5.7881,-5.7881,-5.7881,-5.7881,-5.7881,-5.7881,-5.7881,-5.7881,-5.7881,-5.7881,-5.7881,-5.7881,-5.7881,-5.7881,-5.7881,-5.7881,-5.7881,-5.7881,-5.7881,0.0,-4.0096,-4.0096,-4.0096,-4.0096,0.0,0.0,0.0,0.0,0.0,0.0,0.0,0.0,0.0,0.0,0.0,0.0,0.0,0.0,0.0,0.0,-4.8917,-5.0321,-5.1185,-5.1185,-5.2604,-5.3501,-5.3501,-5.3501,-5.3501,-5.3501,-5.3501,-5.3501,-5.3501,-5.3501,-5.3856,-5.4583,-5.5344,-5.6089,-5.6816,-5.7543,-5.7881,-5.7881,-5.7881,-5.7881,-5.7881,-5.7881,-5.7881,0.0,-5.7881,-5.7881,-5.7881,-5.7881,-5.7881,-5.7881,-5.7881,-5.7881,-5.7881,-5.7881,-5.7881,-5.7881,-5.7881,-5.7881,-5.7881,-5.7881,-5.7881,-5.7881,-5.7881,-5.7881,-5.7881,-5.7881,-5.7881,-5.7881,-5.7881,-5.7881,-5.7881,-5.7881,-5.7881,-5.7881,-5.7881,-5.7881,-5.7881,-5.7881,-5.7881,-5.7881,-5.7881,-5.7881,-5.7881,-5.7881,-5.7881,-5.7881,-5.7881,-5.7881,-5.7881,-5.7881,-5.7881,-5.7881,-5.7881,-5.7881,-5.7881,-5.7881,-5.7881,-5.7881,-5.7881,-5.7881,-5.7881,-5.7881,-5.7881,-5.7881,-5.7881,-5.7881,-5.7881,0.0,0.0,0.0,0.0,0.0,0.0,0.0,0.0,0.0,0.0,0.0,0.0,0.0,0.0,0.0,0.0,0.0,0.0,0.0,-4.7479,0.0,0.0,-5.0321,-5.1185,-5.1185,-5.2604,-5.3501,-5.3501,-5.3501,-5.3501,-5.3501,-5.3501,-5.3501,-5.3501,-5.3501,-5.3822,-5.4515,-5.526,-5.5987,-5.6647,-5.7442,-5.7814,-5.7814,-5.7865,-5.7881,-5.7881,-5.7881,-5.7881,-5.7881,-5.7881,-5.7881,-5.7881,-5.7881,-5.7881,-5.7881,-5.7881,-5.7881,-5.7881,-5.7881,-5.7881,-5.7881,-5.7881,-5.7881,-5.7881,-5.7881,-5.7881,-5.7881,-5.7881,-5.7881,-5.7881,-5.7881,-5.7881,-5.7881,-5.7881,-5.7881,-5.7881,-5.7881,-5.7881,-5.7881,-5.7881,-5.7881,-5.7881,-5.7881,-5.7881,-5.7881,-5.7881,-5.7881,-5.7881,-5.7881,-5.7881,-5.7881,-5.7881,-5.7881,-5.7881,-5.7881,-5.7881,-5.7881,-5.7881,-5.7881,-5.7881,-5.7881,-5.7881,-5.7881,-5.7881,-5.7881,-5.7881,-5.7881,-5.7881,-5.7881,-5.7881,-5.7881,-5.7881,-4.0096,0.0,-4.0096,-4.0096,-4.0096,0.0,0.0,0.0,0.0,0.0,0.0,0.0,0.0,0.0,0.0,0.0,0.0,0.0,-4.6616,0.0,0.0,-4.8984,-5.0321,-5.1185,-5.1185,-5.2604,-5.3501,-5.3501,-5.3501,-5.3501,-5.3501,-5.3501,-5.3501,-5.3501,-5.3501,-5.3585,-5.3754,-5.4482,-5.4938,-5.5124,-5.6444,-5.7053,-5.707,-5.7628,-5.7881,-5.7881,-5.7881,-5.7881,-5.7881,-5.7881,-5.7881,-5.7881,-5.7881,-5.7881,-5.7881,-5.7881,-5.7881,-5.7881,-5.7881,-5.7881,-5.7881,-5.7881,-5.7881,-5.7881,-5.7881,-5.7881,-5.7881,-5.7881,-5.7881,-5.7881,-5.7881,-5.7881,-5.7881,-5.7881,-5.7881,-5.7881,-5.7881,-5.7881,-5.7881,-5.7881,-5.7881,-5.7881,-5.7881,-5.7881,-5.7881,-5.7881,-5.7881,-5.7881,-5.7881,-5.7881,-5.7881,-5.7881,-5.7881,-5.7881,-5.7881,-5.7881,-5.7881,-5.7881,-5.7881,-5.7881,-5.7881,-5.7881,-5.7881,-5.7881,-5.7881,-5.7881,-5.7881,-5.7881,-5.7881,-5.7881,-5.7881,-5.7881,-4.0096,-4.0096,-4.0096,-4.0096,-4.0096,-4.0096,0.0,0.0,0.0,0.0,0.0,0.0,0.0,0.0,0.0,0.0,-4.4874,0.0,0.0,0.0,-4.9001,-4.9001,-5.0321,-5.1185,-5.1185,-5.2604,-5.3501,-5.3501,-5.3501,-5.3501,-5.3501,-5.3501,-5.3501,-5.3501,-5.3501,-5.3501,-5.3501,-5.4228,-5.4583,-5.46,-5.575,-5.6478,-5.6816,-5.7205,-5.7577,-5.7881,-5.7881,-5.7881,-5.7881,-5.7881,-5.7881,-5.7881,-5.7881,-5.7881,-5.7881,-5.7881,-5.7881,-5.7881,-5.7881,-5.7881,-5.7881,-5.7881,-5.7881,-5.7881,-5.7881,-5.7881,-5.7881,-5.7881,-5.7881,-5.7881,-5.7881,-5.7881,-5.7881,-5.7881,-5.7881,-5.7881,-5.7881,-5.7881,-5.7881,-5.7881,-5.7881,-5.7881,-5.7881,-5.7881,-5.7881,-5.7881,-5.7881,-5.7881,-5.7881,-5.7881,-5.7881,-5.7881,-5.7881,-5.7881,-5.7881,-5.7881,-5.7881,-5.7881,-5.7881,-5.7881,-5.7881,-5.7881,-5.7881,-5.7881,-5.7881,-5.7881,-5.7881,-5.7881,-5.7881,-5.7881,-5.7881,-5.7881,-4.0096,-4.0096,-4.0096,-4.0096,-4.0096,-4.0096,0.0,0.0,0.0,0.0,0.0,0.0,0.0,0.0,0.0,0.0,0.0,0.0,-4.7703,-4.8545,-4.9001,-4.9001,-5.0321,-5.1185,-5.1185,-5.2604,-5.3501,-5.3501,-5.3501,-5.3501,-5.3501,-5.3501,-5.3501,-5.3501,-5.3501,-5.3501,-5.3501,-5.411,-5.4431,-5.4431,-5.5192,-5.5869,-5.6461,-5.6579,-5.6968,-5.756,-5.756,-5.7628,-5.7729,-5.7729,-5.778,-5.7881,-5.7881,-5.7881,-5.7881,-5.7881,-5.7881,-5.7881,-5.7881,-5.7881,-5.7881,-5.7881,-5.7881,-5.7881,-5.7881,-5.7881,-5.7881,-5.7881,-5.7881,-5.7881,-5.7881,-5.7881,-5.7881,-5.7881,-5.7881,-5.7881,-5.7881,-5.7881,-5.7881,-5.7881,-5.7881,-5.7881,-5.7881,-5.7881,-5.7881,-5.7881,-5.7881,-5.7881,-5.7881,-5.7881,-5.7881,-5.7881,-5.7881,-5.7881,-5.7881,-5.7881,-5.7881,-5.7881,-5.7881,-5.7881,-5.7881,-5.7881,-5.7881,-5.7881,-5.7881,-5.7881,-5.7881,-5.7881,-5.7881,-5.7881,-5.7881,-5.7881,-4.0096,-4.0096,-4.0096,-4.0096,-4.0096,-4.0096,0.0,0.0,0.0,0.0,0.0,0.0,0.0,0.0,-4.4615,0.0,0.0,-4.6921,-4.777,-4.8545,-4.9001,-4.9001,-5.0321,-5.1185,-5.1185,-5.2604,-5.3501,-5.3501,-5.3501,-5.3501,-5.3501,-5.3501,-5.3501,-5.3501,-5.3501,-5.3501,-5.3501,-5.3619,-5.367,-5.3687,-5.4414,-5.482,-5.4955,-5.5581,-5.5953,-5.6055,-5.6055,-5.6393,-5.6968,-5.6968,-5.734,-5.7881,-5.7881,-5.7881,-5.7881,-5.7881,-5.7881,-5.7881,-5.7881,-5.7881,-5.7881,-5.7881,-5.7881,-5.7881,-5.7881,-5.7881,-5.7881,-5.7881,-5.7881,-5.7881,-5.7881,-5.7881,-5.7881,-5.7881,-5.7881,-5.7881,-5.7881,-5.7881,-5.7881,-5.7881,-5.7881,-5.7881,-5.7881,-5.7881,-5.7881,-5.7881,-5.7881,-5.7881,-5.7881,-5.7881,-5.7881,-5.7881,-5.7881,-5.7881,-5.7881,-5.7881,-5.7881,-5.7881,-5.7881,-5.7881,-5.7881,-5.7881,-5.7881,-5.7881,-5.7881,-5.7881,-5.7881,-5.7881,-5.7881,-5.7881,-5.7881,-5.7881,-4.0096,-4.0096,-4.0096,-4.0096,-4.0096,-4.0214,-4.0595,0.0,0.0,0.0,0.0,0.0,0.0,0.0,-4.4869,-4.5652,-4.6346,-4.7192,-4.8342,-4.8798,-4.9001,-4.9001,-5.0321,-5.1185,-5.1185,-5.2604,-5.3501,-5.3501,-5.3501,-5.3501,-5.3501,-5.3501,-5.3501,-5.3501,-5.3501,-5.3501,-5.3501,-5.3501,-5.3501,-5.3501,-5.3839,-5.4211,-5.46,-5.4955,-5.5327,-5.5681,-5.5681,-5.5902,-5.6224,-5.6224,-5.641,-5.6714,-5.6714,-5.6714,-5.6765,-5.7154,-5.7543,-5.7881,-5.7881,-5.7628,-5.7306,-5.7306,-5.7036,-5.6714,-5.6714,-5.6714,-5.6714,-5.6714,-5.7289,-5.7881,-5.7881,-5.7881,-5.7881,-5.7881,-5.7881,-5.7881,-5.7881,-5.7881,-5.7881,-5.7881,-5.7881,-5.7881,-5.7881,-5.7881,-5.7881,-5.7881,-5.7881,-5.7881,-5.7881,-5.7881,-5.7881,-5.7881,-5.7881,-5.7881,-5.7881,-5.7881,-5.7881,-5.7881,-5.7881,-5.7881,-5.7881,-5.7881,-5.7881,-5.7881,-5.7881,-5.7881,-5.7881,-5.7881,-5.7881,-5.7881,-5.7881,-5.7679,-4.0096,-4.0096,-4.0146,-4.0316,0.0,-4.0493,-4.1068,0.0,0.0,0.0,0.0,0.0,0.0,-4.4615,0.0,-4.6549,-4.6786,-4.731,-4.8798,-4.9001,-4.9001,-4.9001,-5.0321,-5.1185,-5.1185,-5.2604,-5.3382,-5.3144,-5.3348,-5.328,-5.28,-5.299,-5.3025,-5.2765,-5.2765,-5.2765,-5.2765,-5.2765,-5.2886,-5.311,-5.311,-5.3292,-5.362,-5.362,-5.3937,-5.4472,-5.472,-5.4927,-5.5078,-5.5341,-5.5547,-5.5681,-5.5681,-5.5681,-5.5749,-5.6342,-5.69,-5.7374,-5.7374,-5.7019,-5.6545,-5.6545,-5.6173,-5.5681,-5.5681,-5.5681,-5.5681,-5.5681,-5.6511,-5.7374,-5.7374,-5.7374,-5.7374,-5.7374,-5.7374,-5.7374,-5.7374,-5.7374,-5.7374,-5.7374,-5.7374,-5.7374,-5.7374,-5.7374,-5.7374,-5.7374,-5.7374,-5.7374,-5.7374,-5.7374,-5.7374,-5.7374,-5.7374,-5.7374,-5.7374,-5.7374,-5.7374,-5.7374,-5.7695,-5.7881,-5.7881,-5.7729,-5.7628,-5.7628,-5.7459,-5.7374,-5.7374,-5.7374,-5.7374,-5.7374,-5.7374,-5.707,-4.0096,-4.0096,-4.0265,-4.095,-4.1119,0.0,-4.1187,-4.232,0.0,-4.3375,0.0,0.0,0.0,-4.4615,-4.5089,-4.6549,-4.6786,-4.731,-4.8798,-4.9001,-4.9001,-4.9001,-5.0321,-5.1185,-5.1185,-5.2604,-5.3076,-5.2082,-5.2956,-5.2644,-5.0719,-5.1504,-5.1578,-5.0627,-5.0627,-5.0627,-5.0627,-5.0627,-5.1096,-5.2029,-5.2029,-5.1557,-5.0707,-5.0707,-5.0739,-5.0826,-5.1778,-5.2557,-5.3258,-5.427,-5.5091,-5.5681,-5.5681,-5.5681,-5.5733,-5.5784,-5.5818,-5.5869,-5.5869,-5.58,-5.5801,-5.5801,-5.575,-5.5681,-5.5681,-5.5681,-5.5681,-5.5681,-5.5801,-5.5869,-5.5869,-5.5869,-5.5869,-5.5869,-5.5869,-5.5869,-5.5869,-5.5869,-5.5869,-5.5869,-5.5869,-5.5869,-5.5869,-5.5869,-5.5869,-5.5869,-5.5869,-5.5869,-5.5869,-5.5869,-5.5869,-5.5869,-5.5869,-5.5869,-5.5869,-5.5869,-5.5869,-5.5869,-5.7137,-5.7881,-5.7881,-5.7239,-5.6884,-5.6884,-5.6224,-5.5869,-5.5869,-5.5869,-5.5869,-5.5869,-5.5869,-5.5852,-4.0096,-4.0096,-4.0282,-4.1018,0.0,0.0,0.0,0.0,-4.3527,-4.4045,-4.4395,0.0,0.0,0.0,-4.5089,-4.6549,-4.6786,-4.731,-4.8798,-4.9001,-4.9001,-4.9001,-4.9898,-5.0451,-5.0259,-5.1782,-5.2265,-5.1064,-5.1938,-5.1902,-5.049,-5.0741,-5.0779,-5.0397,-5.0397,-5.0397,-5.0397,-5.0397,-5.0242,-4.9993,-5.0665,-5.0779,-5.0397,-5.0397,-5.0741,-5.134,-5.1724,-5.2426,-5.3358,-5.3753,-5.4076,-5.4346,-5.4346,-5.4617,-5.5023,-5.5023,-5.531,-5.5681,-5.5681,-5.5412,-5.5023,-5.5023,-5.4718,-5.4346,-5.4346,-5.4346,-5.4346,-5.4346,-5.4346,-5.4549,-5.548,-5.5681,-5.5681,-5.5681,-5.5681,-5.5681,-5.5681,-5.5681,-5.5681,-5.5681,-5.5681,-5.5681,-5.5681,-5.5681,-5.5681,-5.5681,-5.5681,-5.5681,-5.5681,-5.5681,-5.5681,-5.5681,-5.5681,-5.5681,-5.5681,-5.5681,-5.5681,-5.5681,-5.6241,-5.6528,-5.6528,-5.6275,-5.6139,-5.6139,-5.5817,-5.5681,-5.5681,-5.5681,-5.5681,-5.5681,-5.5681,-5.5463,-4.0096,-4.0282,-4.0612,0.0,0.0,0.0,0.0,0.0,-4.3944,-4.4496,-4.4615,-4.4615,-4.4615,0.0,-4.5348,-4.6583,-4.6989,-4.7581,-4.8832,-4.9001,-4.9001,-4.9001,-4.9407,-4.9591,-4.9419,-5.0421,-5.0662,-4.9667,-5.0553,-5.0612,-4.9472,-4.9694,-4.9734,-4.9432,-4.9432,-4.9432,-4.9432,-4.9432,-4.9044,-4.8335,-4.9085,-4.9432,-4.9432,-4.9432,-4.9813,-5.0458,-5.0801,-5.1541,-5.2539,-5.287,-5.3179,-5.3501,-5.3501,-5.3805,-5.4245,-5.4245,-5.4566,-5.5023,-5.5023,-5.4685,-5.4245,-5.4245,-5.3907,-5.3501,-5.3501,-5.3501,-5.3501,-5.3501,-5.3501,-5.3737,-5.4752,-5.5023,-5.5023,-5.5023,-5.5023,-5.5023,-5.5023,-5.5023,-5.5023,-5.5023,-5.5023,-5.5023,-5.5023,-5.5023,-5.5023,-5.5023,-5.5023,-5.5023,-5.5023,-5.5023,-5.5023,-5.5023,-5.5023,-5.5023,-5.5023,-5.5023,-5.5023,-5.5023,-5.5023,-5.5226,-5.5664,-5.5497,-5.5361,-5.5361,-5.5124,-5.5023,-5.5023,-5.5023,-5.5023,-5.5023,-5.5023,-5.4752,-4.0113,-4.0629,0.0,0.0,0.0,0.0,0.0,0.0,-4.4615,-4.4615,-4.4615,-4.4615,-4.4615,-4.5196,-4.594,-4.6667,-4.7398,-4.8142,-4.89,-4.9001,-4.9001,-4.9001,-4.881,-4.8676,-4.8693,-4.8518,-4.8221,-4.7836,-4.8776,-4.8742,-4.7379,-4.8236,-4.8304,-4.7322,-4.7279,-4.7279,-4.7279,-4.7294,-4.7294,-4.7294,-4.7309,-4.7309,-4.7309,-4.7309,-4.7309,-4.7381,-4.8377,-4.9416,-5.049,-5.1504,-5.2522,-5.3501,-5.3518,-5.3501,-5.3501,-5.3501,-5.3501,-5.3501,-5.3501,-5.3501,-5.3501,-5.3501,-5.3501,-5.3501,-5.3501,-5.3501,-5.3501,-5.3501,-5.3501,-5.3501,-5.3501,-5.3501,-5.3501,-5.3501,-5.3501,-5.3501,-5.3501,-5.3501,-5.3501,-5.3501,-5.3501,-5.3501,-5.3501,-5.3501,-5.3501,-5.3501,-5.3501,-5.3501,-5.3501,-5.3501,-5.3501,-5.3501,-5.3501,-5.3501,-5.3501,-5.3501,-5.3501,-5.3501,-5.3501,-5.4177,-5.5632,-5.4972,-5.4583,-5.4583,-5.3873,-5.3501,-5.3501,-5.3501,-5.3501,-5.3501,-5.3501,-5.3501,-4.073,0.0,0.0,0.0,0.0,0.0,0.0,0.0,0.0,0.0,-4.4615,-4.4615,-4.4615,-4.4666,-4.5177,-4.6562,-4.6296,-4.6651,-4.8728,-4.8433,-4.8015,-4.8015,-4.7952,-4.7575,-4.6671,-4.7239,-4.717,-4.6102,-4.7026,-4.7119,-4.5957,-4.6192,-4.6177,-4.5888,-4.5888,-4.5888,-4.5888,-4.6381,-4.6621,-4.6621,-4.7085,-4.7309,-4.7309,-4.7309,-4.7679,-4.8377,-4.8677,-4.9416,-5.049,-5.1504,-5.2082,-5.2435,-5.3195,-5.3501,-5.3501,-5.3501,-5.3501,-5.3501,-5.3501,-5.3501,-5.3501,-5.3501,-5.3501,-5.3501,-5.3501,-5.3501,-5.3501,-5.3501,-5.3501,-5.3501,-5.3501,-5.3501,-5.3501,-5.3501,-5.3501,-5.3501,-5.3501,-5.3501,-5.3501,-5.3501,-5.3501,-5.3501,-5.3501,-5.3501,-5.3501,-5.3501,-5.3501,-5.3501,-5.3501,-5.3501,-5.3501,-5.3501,-5.3501,-5.3501,-5.3501,-5.3501,-5.3501,-5.3501,-5.3501,-5.3704,-5.4143,-5.394,-5.3822,-5.3822,-5.3619,-5.3501,-5.3501,-5.3501,-5.3501,-5.3501,-5.3501,-5.3501,-4.0668,0.0,0.0,0.0,0.0,0.0,0.0,0.0,0.0,0.0,-4.431,-4.4196,-4.4542,-4.4677,-4.5078,-4.6082,-4.5848,-4.609,-4.7671,-4.7406,-4.7054,-4.7054,-4.6712,-4.6187,-4.5415,-4.5559,-4.5472,-4.4922,-4.5505,-4.5692,-4.5316,-4.5289,-4.5289,-4.5289,-4.5289,-4.5289,-4.5289,-4.5708,-4.5918,-4.5918,-4.6322,-4.6651,-4.692,-4.7189,-4.7651,-4.8225,-4.8636,-4.9191,-4.9891,-5.1303,-5.1921,-5.1993,-5.3076,-5.3501,-5.3501,-5.3501,-5.3501,-5.3501,-5.3501,-5.3501,-5.3501,-5.3501,-5.3501,-5.3501,-5.3501,-5.3501,-5.3501,-5.3501,-5.3501,-5.3501,-5.3501,-5.3501,-5.3501,-5.3501,-5.3501,-5.3501,-5.3501,-5.3501,-5.3501,-5.3501,-5.3501,-5.3501,-5.3501,-5.3501,-5.3501,-5.3501,-5.3501,-5.3501,-5.3501,-5.3501,-5.3501,-5.3501,-5.3501,-5.3501,-5.3501,-5.3501,-5.3501,-5.3501,-5.3501,-5.3501,-5.3501,-5.3501,-5.3501,-5.3501,-5.3501,-5.3501,-5.3501,-5.3501,-5.3501,-5.3501,-5.3501,-5.3501,0.0,0.0,0.0,0.0,0.0,0.0,0.0,0.0,-4.3306,-4.4179,0.0,-4.3621,-4.4253,-4.4859,-4.5272,-4.5272,-4.5638,-4.5996,-4.6189,-4.6154,-4.6067,-4.6067,-4.5322,-4.4774,-4.4662,-4.3849,-4.3544,-4.4182,-4.4227,-4.4481,-4.5095,-4.511,-4.511,-4.511,-4.511,-4.511,-4.511,-4.517,-4.5214,-4.5214,-4.5274,-4.5618,-4.6204,-4.692,-4.7249,-4.7337,-4.8252,-4.8677,-4.8825,-5.0914,-5.176,-5.1885,-5.3041,-5.3501,-5.3501,-5.3501,-5.3501,-5.3501,-5.3501,-5.3501,-5.3501,-5.3501,-5.3501,-5.3501,-5.3501,-5.3501,-5.3501,-5.3501,-5.3501,-5.3501,-5.3501,-5.3501,-5.3501,-5.3501,-5.3501,-5.3501,-5.3501,-5.3501,-5.3501,-5.3501,-5.3501,-5.3501,-5.3501,-5.3501,-5.3501,-5.3501,-5.3501,-5.3501,-5.3501,-5.3501,-5.3501,-5.3501,-5.3501,-5.3501,-5.3501,-5.3501,-5.3501,-5.3501,-5.3501,-5.3501,-5.3501,-5.3501,-5.3501,-5.3501,-5.3501,-5.3501,-5.3501,-5.3501,-5.3501,-5.3501,-5.3501,-5.3501,0.0,0.0,0.0,0.0,0.0,0.0,0.0,0.0,-4.1511,-4.2379,-4.3515,-4.396,-4.2769,-4.3509,-4.4328,-4.4377,-4.4123,-4.4464,-4.5996,-4.5561,-4.5079,-4.5079,-4.4909,-4.4472,-4.3708,-4.3448,-4.3349,-4.3484,-4.3499,-4.3559,-4.3708,-4.3708,-4.3708,-4.3708,-4.3708,-4.3708,-4.3708,-4.4272,-4.4526,-4.4526,-4.505,-4.5379,-4.5544,-4.6217,-4.6815,-4.7294,-4.7538,-4.7609,-4.7764,-4.9852,-5.0703,-5.0908,-5.2765,-5.3501,-5.3501,-5.3501,-5.3501,-5.3501,-5.3501,-5.3501,-5.3501,-5.3501,-5.3501,-5.3501,-5.3501,-5.3501,-5.3501,-5.3501,-5.3501,-5.3501,-5.3501,-5.3501,-5.3501,-5.3501,-5.3501,-5.3501,-5.3501,-5.3501,-5.3501,-5.3501,-5.3501,-5.3501,-5.3501,-5.3501,-5.3501,-5.3501,-5.3501,-5.3501,-5.3501,-5.3501,-5.3501,-5.3501,-5.3501,-5.3501,-5.3501,-5.3501,-5.3501,-5.3501,-5.3501,-5.3501,-5.3501,-5.3501,-5.3501,-5.3501,-5.3501,-5.3501,-5.3501,-5.3501,-5.3501,-5.3501,-5.3501,-5.3501,0.0,0.0,0.0,0.0,0.0,0.0,0.0,0.0,-4.1213,-4.0842,-4.1804,-4.2598,-4.2093,-4.275,-4.339,-4.3425,-4.3356,-4.3654,-4.469,-4.4381,-4.4066,-4.4066,-4.4066,-4.3888,-4.3369,-4.329,-4.329,-4.329,-4.329,-4.329,-4.329,-4.329,-4.329,-4.329,-4.329,-4.329,-4.329,-4.3633,-4.3798,-4.3813,-4.4197,-4.4526,-4.484,-4.5529,-4.6202,-4.683,-4.683,-4.701,-4.7424,-4.9004,-4.9931,-5.0566,-5.2134,-5.3059,-5.3501,-5.3501,-5.3501,-5.3501,-5.3501,-5.3501,-5.3501,-5.3501,-5.3501,-5.3501,-5.3501,-5.3501,-5.3501,-5.3501,-5.3501,-5.3501,-5.3501,-5.3501,-5.3501,-5.3501,-5.3501,-5.3501,-5.3501,-5.3501,-5.3501,-5.3501,-5.3501,-5.3501,-5.3501,-5.3501,-5.3501,-5.3501,-5.3501,-5.3501,-5.3501,-5.3501,-5.3501,-5.3501,-5.3501,-5.3501,-5.3501,-5.3501,-5.3501,-5.3501,-5.3501,-5.3501,-5.3501,-5.3501,-5.3501,-5.3501,-5.3501,-5.3501,-5.3501,-5.3501,-5.3501,-5.3501,-5.3501,-5.3501,0.0,0.0,0.0,0.0,0.0,0.0,0.0,-4.1028,-4.1129,-3.9717,-4.022,-4.1046,-4.1478,-4.211,-4.252,-4.2463,-4.2841,-4.317,-4.329,-4.329,-4.329,-4.329,-4.329,-4.329,-4.329,-4.329,-4.329,-4.329,-4.329,-4.329,-4.329,-4.329,-4.329,-4.329,-4.329,-4.329,-4.329,-4.329,-4.329,-4.329,-4.329,-4.3574,-4.4167,-4.4706,-4.5394,-4.6142,-4.6142,-4.6531,-4.7216,-4.8193,-4.9226,-5.0242,-5.1414,-5.2435,-5.323,-5.3416,-5.3501,-5.3501,-5.3501,-5.3501,-5.3501,-5.3501,-5.3501,-5.3501,-5.3501,-5.3501,-5.3501,-5.3501,-5.3501,-5.3501,-5.3501,-5.3501,-5.3501,-5.3501,-5.3501,-5.3501,-5.3501,-5.3501,-5.3501,-5.3501,-5.3501,-5.3501,-5.3501,-5.3501,-5.3501,-5.3501,-5.3501,-5.3501,-5.3501,-5.3501,-5.3501,-5.3501,-5.3501,-5.3501,-5.3501,-5.3501,-5.3501,-5.3501,-5.3501,-5.3501,-5.3501,-5.3501,-5.3501,-5.3501,-5.3501,-5.3501,-5.3501,-5.3501,-5.3501,-5.3501,-5.3501,-5.3501,0.0,0.0,0.0,0.0,0.0,0.0,0.0,0.0,-3.9681,-3.9445,-4.0706,-4.1412,-3.999,-4.0898,-4.1766,-4.1603,-4.2113,-4.2686,-4.3215,-4.329,-4.329,-4.329,-4.329,-4.329,-4.329,-4.329,-4.329,-4.329,-4.329,-4.329,-4.329,-4.329,-4.329,-4.329,-4.329,-4.329,-4.329,-4.329,-4.329,-4.329,-4.329,-4.3349,-4.3424,-4.3514,-4.4272,-4.5424,-4.5424,-4.5813,-4.6526,-4.7502,-4.8364,-4.9215,-5.1139,-5.1993,-5.2241,-5.3144,-5.3501,-5.3501,-5.3501,-5.3501,-5.3501,-5.3501,-5.3501,-5.3501,-5.3501,-5.3501,-5.3501,-5.3501,-5.3501,-5.3501,-5.3501,-5.3501,-5.3501,-5.3501,-5.3501,-5.3501,-5.3501,-5.3501,-5.3501,-5.3501,-5.3501,-5.3501,-5.3501,-5.3501,-5.3501,-5.3501,-5.3501,-5.3501,-5.3501,-5.3501,-5.3501,-5.3501,-5.3501,-5.3501,-5.3501,-5.3501,-5.3501,-5.3501,-5.3501,-5.3501,-5.3501,-5.3501,-5.3501,-5.3501,-5.3501,-5.3501,-5.3501,-5.3501,-5.3501,-5.3501,-5.3501,-5.3501,0.0,0.0,0.0,0.0,0.0,0.0,0.0,0.0,-3.9388,-3.9388,-3.999,-4.0324,-3.9553,-4.026,-4.0934,-4.0845,-4.1737,-4.25,-4.2746,-4.3105,-4.329,-4.329,-4.329,-4.329,-4.329,-4.329,-4.329,-4.329,-4.329,-4.329,-4.329,-4.329,-4.329,-4.329,-4.329,-4.329,-4.329,-4.329,-4.329,-4.329,-4.329,-4.329,-4.329,-4.329,-4.3813,-4.4751,-4.4751,-4.5125,-4.578,-4.6232,-4.7488,-4.9235,-5.015,-5.1451,-5.287,-5.3348,-5.3501,-5.3501,-5.3501,-5.3501,-5.3501,-5.3501,-5.3501,-5.3501,-5.3501,-5.3501,-5.3501,-5.3501,-5.3501,-5.3501,-5.3501,-5.3501,-5.3501,-5.3501,-5.3501,-5.3501,-5.3501,-5.3501,-5.3501,-5.3501,-5.3501,-5.3501,-5.3501,-5.3501,-5.3501,-5.3501,-5.3501,-5.3501,-5.3501,-5.3501,-5.3501,-5.3501,-5.3501,-5.3501,-5.3501,-5.3501,-5.3501,-5.3501,-5.3501,-5.3501,-5.3501,-5.3501,-5.3501,-5.3501,-5.3501,-5.3501,-5.3501,-5.3501,-5.3501,-5.3501,-5.3501,-5.3501,0.0,0.0,0.0,0.0,0.0,0.0,0.0,0.0,-3.9388,-3.9388,-3.9388,-3.9388,-3.9388,-3.9828,-4.0202,-4.0367,-4.122,-4.2021,-4.2351,-4.2776,-4.315,-4.3275,-4.329,-4.329,-4.329,-4.329,-4.329,-4.329,-4.329,-4.329,-4.329,-4.329,-4.329,-4.329,-4.329,-4.329,-4.329,-4.329,-4.329,-4.329,-4.329,-4.329,-4.329,-4.329,-4.3559,-4.4062,-4.4062,-4.4436,-4.505,-4.505,-4.6475,-4.8736,-4.9,-5.0625,-5.2858,-5.3095,-5.3331,-5.3501,-5.3501,-5.3501,-5.3501,-5.3501,-5.3501,-5.3501,-5.3501,-5.3501,-5.3501,-5.3501,-5.3501,-5.3501,-5.3501,-5.3501,-5.3501,-5.3501,-5.3501,-5.3501,-5.3501,-5.3501,-5.3501,-5.3501,-5.3501,-5.3501,-5.3501,-5.3501,-5.3501,-5.3501,-5.3501,-5.3501,-5.3501,-5.3501,-5.3501,-5.3501,-5.3501,-5.3501,-5.3501,-5.3501,-5.3501,-5.3501,-5.3501,-5.3501,-5.3501,-5.3501,-5.3501,-5.3501,-5.3501,-5.3501,-5.3501,-5.3501,-5.3501,-5.3501,-5.3501,-5.3501,0.0,0.0,0.0,0.0,0.0,0.0,0.0,0.0,-3.9388,-3.9388,-3.9388,-3.9388,-3.9388,-3.9454,-3.9679,-4.0307,-4.0457,-4.0935,-4.2231,-4.2425,-4.2641,-4.3215,-4.329,-4.329,-4.329,-4.329,-4.329,-4.329,-4.329,-4.329,-4.329,-4.329,-4.329,-4.329,-4.329,-4.329,-4.329,-4.329,-4.329,-4.329,-4.329,-4.329,-4.329,-4.329,-4.3319,-4.3349,-4.3349,-4.3723,-4.4362,-4.4362,-4.5338,-4.6944,-4.7961,-4.9442,-5.1059,-5.2034,-5.2858,-5.3501,-5.3501,-5.3501,-5.3501,-5.3501,-5.3501,-5.3501,-5.3501,-5.3501,-5.3501,-5.3501,-5.3501,-5.3501,-5.3501,-5.3501,-5.3501,-5.3501,-5.3501,-5.3501,-5.3501,-5.3501,-5.3501,-5.3501,-5.3501,-5.3501,-5.3501,-5.3501,-5.3501,-5.3501,-5.3501,-5.3501,-5.3501,-5.3501,-5.3501,-5.3501,-5.3501,-5.3501,-5.3501,-5.3501,-5.3501,-5.3501,-5.3501,-5.3501,-5.3501,-5.3501,-5.3501,-5.3501,-5.3501,-5.3501,-5.3501,-5.3501,-5.3501,-5.3501,-5.3501,-5.3501,0.0,0.0,0.0,0.0,0.0,0.0,-3.9388,-3.9388,-3.9388,-3.9388,-3.9388,-3.9388,-3.9388,-3.9388,-3.9499,-3.9738,-4.0127,-4.0561,-4.104,-4.1512,-4.1818,-4.2043,-4.2447,-4.2701,-4.2701,-4.309,-4.329,-4.329,-4.329,-4.329,-4.329,-4.329,-4.329,-4.329,-4.329,-4.329,-4.329,-4.329,-4.329,-4.329,-4.329,-4.329,-4.329,-4.329,-4.329,-4.329,-4.329,-4.379,-4.4611,-4.4611,-4.5941,-4.801,-4.8416,-4.9585,-5.1145,-5.1982,-5.2486,-5.2807,-5.3331,-5.3501,-5.3501,-5.3501,-5.3501,-5.3501,-5.3501,-5.3501,-5.3501,-5.3501,-5.3501,-5.3501,-5.3501,-5.3501,-5.3501,-5.3501,-5.3501,-5.3501,-5.3501,-5.3501,-5.3501,-5.3501,-5.3501,-5.3501,-5.3501,-5.3501,-5.3501,-5.3501,-5.3501,-5.3501,-5.3501,-5.3501,-5.3501,-5.3501,-5.3501,-5.3501,-5.3501,-5.3501,-5.3501,-5.3501,-5.3501,-5.3501,-5.3501,-5.3501,-5.3501,-5.3501,-5.3501,-5.3501,-5.3501,-5.3501,-5.3501,-5.3501,-5.3501,-5.3501,-3.9388,0.0,0.0,0.0,0.0,-3.9388,-3.9388,-3.9388,-3.9388,-3.9388,-3.9388,-3.9388,-3.9388,-3.9388,-3.9388,-3.9388,-3.9783,-4.0142,-4.0367,-4.0771,-4.113,-4.1354,-4.1796,-4.2066,-4.2066,-4.2417,-4.2671,-4.2671,-4.2671,-4.2671,-4.2671,-4.2671,-4.2776,-4.3,-4.317,-4.329,-4.329,-4.329,-4.329,-4.329,-4.329,-4.329,-4.329,-4.329,-4.329,-4.329,-4.329,-4.3669,-4.4335,-4.4662,-4.6027,-4.789,-4.8213,-4.9359,-5.0896,-5.1386,-5.1725,-5.2046,-5.2841,-5.3112,-5.3145,-5.3416,-5.3501,-5.3501,-5.3501,-5.3501,-5.3501,-5.3501,-5.3501,-5.3501,-5.3501,-5.3501,-5.3501,-5.3501,-5.3501,-5.3501,-5.3501,-5.3501,-5.3501,-5.3501,-5.3501,-5.3501,-5.3501,-5.3501,-5.3501,-5.3501,-5.3501,-5.3501,-5.3501,-5.3501,-5.3501,-5.3501,-5.3501,-5.3501,-5.3501,-5.3501,-5.3501,-5.3501,-5.3501,-5.3501,-5.3501,-5.3501,-5.3501,-5.3501,-5.3501,-5.3501,-5.3501,-5.3501,-5.3501,-5.3501,-5.3501,-5.3501,0.0,0.0,0.0,0.0,0.0,0.0,-3.9388,-3.9388,-3.9388,-3.9388,-3.9388,-3.9388,-3.9388,-3.9388,-3.9388,-3.9388,-3.9388,-3.9649,-4.0277,-4.0367,-4.0606,-4.125,-4.1339,-4.1354,-4.1354,-4.1407,-4.1422,-4.1422,-4.1422,-4.1422,-4.1422,-4.1422,-4.1707,-4.2351,-4.294,-4.323,-4.323,-4.323,-4.3245,-4.326,-4.326,-4.3275,-4.329,-4.329,-4.329,-4.329,-4.329,-4.329,-4.3369,-4.4412,-4.5358,-4.6314,-4.7239,-4.861,-5.005,-5.0084,-5.0557,-5.1252,-5.2012,-5.2283,-5.2435,-5.3213,-5.3484,-5.3501,-5.3501,-5.3501,-5.3501,-5.3501,-5.3501,-5.3501,-5.3501,-5.3501,-5.3501,-5.3501,-5.3501,-5.3501,-5.3501,-5.3501,-5.3501,-5.3501,-5.3501,-5.3501,-5.3501,-5.3501,-5.3501,-5.3501,-5.3501,-5.3501,-5.3501,-5.3501,-5.3501,-5.3501,-5.3501,-5.3501,-5.3501,-5.3501,-5.3501,-5.3501,-5.3501,-5.3501,-5.3501,-5.3501,-5.3501,-5.3501,-5.3501,-5.3501,-5.3501,-5.3501,-5.3501,-5.3501,-5.3501,-5.3501,-3.9388,0.0,0.0,0.0,0.0,0.0,-3.9388,-3.9388,-3.9388,-3.9388,-3.9388,-3.9388,-3.9388,-3.9388,-3.9388,-3.9388,-3.9388,-3.9448,-3.9664,-3.9694,-3.9768,-3.9933,-4.0382,-4.0666,-4.0666,-4.11,-4.1422,-4.1422,-4.1422,-4.1422,-4.1422,-4.1422,-4.1512,-4.1692,-4.1833,-4.1923,-4.1923,-4.1923,-4.2162,-4.2626,-4.2626,-4.288,-4.329,-4.329,-4.329,-4.329,-4.329,-4.329,-4.3369,-4.4412,-4.5742,-4.7239,-4.7523,-4.831,-4.9373,-4.9898,-5.0219,-5.0507,-5.1251,-5.186,-5.2334,-5.2553,-5.3027,-5.3501,-5.3501,-5.3501,-5.3501,-5.3501,-5.3501,-5.3501,-5.3501,-5.3501,-5.3501,-5.3501,-5.3501,-5.3501,-5.3501,-5.3501,-5.3501,-5.3501,-5.3501,-5.3501,-5.3501,-5.3501,-5.3501,-5.3501,-5.3501,-5.3501,-5.3501,-5.3501,-5.3501,-5.3501,-5.3501,-5.3501,-5.3501,-5.3501,-5.3501,-5.3501,-5.3501,-5.3501,-5.3501,-5.3501,-5.3501,-5.3501,-5.3501,-5.3501,-5.3501,-5.3501,-5.3501,-5.3501,-5.3501,-5.3501,-3.9388,-3.9388,-3.9388,-3.9388,0.0,0.0,-3.9388,-3.9388,-3.9388,-3.9388,-3.9388,-3.9388,-3.9388,-3.9388,-3.9388,-3.9388,-3.9388,-3.9388,-3.9388,-3.9388,-3.9388,-3.9388,-3.9753,-3.9993,-3.9993,-4.0337,-4.0561,-4.0561,-4.0561,-4.0561,-4.0561,-4.0816,-4.0965,-4.0965,-4.1235,-4.1422,-4.1422,-4.1422,-4.1617,-4.1991,-4.1991,-4.2297,-4.2925,-4.2925,-4.3075,-4.329,-4.329,-4.329,-4.3329,-4.3927,-4.5306,-4.7054,-4.7456,-4.8193,-4.9052,-4.9475,-4.9644,-4.9746,-5.049,-5.1014,-5.1471,-5.2097,-5.2621,-5.3061,-5.3399,-5.3501,-5.3501,-5.3501,-5.3501,-5.3501,-5.3501,-5.3501,-5.3501,-5.3501,-5.3501,-5.3501,-5.3501,-5.3501,-5.3501,-5.3501,-5.3501,-5.3501,-5.3501,-5.3501,-5.3501,-5.3501,-5.3501,-5.3501,-5.3501,-5.3501,-5.3501,-5.3501,-5.3501,-5.3501,-5.3501,-5.3501,-5.3501,-5.3501,-5.3501,-5.3501,-5.3501,-5.3501,-5.3501,-5.3501,-5.3501,-5.3501,-5.3501,-5.3501,-5.3501,-5.3501,-5.3501,-5.3501,-3.9388,-3.9388,-3.9388,-3.9388,-3.9388,0.0,-3.9388,-3.9388,-3.9388,-3.9388,-3.9388,-3.9388,-3.9388,-3.9388,-3.9388,-3.9388,-3.9388,-3.9388,-3.9388,-3.9388,-3.9388,-3.9388,-3.9388,-3.9388,-3.9388,-3.9388,-3.9388,-3.9388,-3.9388,-3.9388,-3.9388,-3.9978,-4.0292,-4.0292,-4.0861,-4.116,-4.116,-4.116,-4.1205,-4.1265,-4.1265,-4.1647,-4.2291,-4.2291,-4.2611,-4.3185,-4.3185,-4.323,-4.329,-4.329,-4.4365,-4.6154,-4.7104,-4.8015,-4.8861,-4.897,-4.9001,-4.9086,-4.9746,-5.0016,-5.0304,-5.1623,-5.2164,-5.2435,-5.3162,-5.3433,-5.3501,-5.3501,-5.3501,-5.3501,-5.3501,-5.3501,-5.3501,-5.3501,-5.3501,-5.3501,-5.3501,-5.3501,-5.3501,-5.3501,-5.3501,-5.3501,-5.3501,-5.3501,-5.3501,-5.3501,-5.3501,-5.3501,-5.3501,-5.3501,-5.3501,-5.3501,-5.3501,-5.3501,-5.3501,-5.3501,-5.3501,-5.3501,-5.3501,-5.3501,-5.3501,-5.3501,-5.3501,-5.3501,-5.3501,-5.3501,-5.3501,-5.3501,-5.3501,-5.3501,-5.3501,-5.3501,-3.9388,-3.9388,-3.9388,-3.9388,-3.9388,0.0,-3.9388,-3.9388,-3.9388,-3.9388,-3.9388,-3.9388,-3.9388,-3.9388,-3.9388,-3.9388,-3.9388,-3.9388,-3.9388,-3.9388,-3.9388,-3.9388,-3.9388,-3.9388,-3.9388,-3.9388,-3.9388,-3.9388,-3.9388,-3.9388,-3.9388,-3.9508,-3.9619,-3.9619,-3.9738,-3.9798,-3.9798,-3.9798,-4.0068,-4.0591,-4.0591,-4.0935,-4.1617,-4.1617,-4.1961,-4.259,-4.259,-4.2851,-4.329,-4.329,-4.3989,-4.5153,-4.6119,-4.7054,-4.7966,-4.8719,-4.9001,-4.9018,-4.9171,-4.9593,-5.0135,-5.0422,-5.1336,-5.2334,-5.2486,-5.2993,-5.3501,-5.3501,-5.3501,-5.3501,-5.3501,-5.3501,-5.3501,-5.3501,-5.3501,-5.3501,-5.3501,-5.3501,-5.3501,-5.3501,-5.3501,-5.3501,-5.3501,-5.3501,-5.3501,-5.3501,-5.3501,-5.3501,-5.3501,-5.3501,-5.3501,-5.3501,-5.3501,-5.3501,-5.3501,-5.3501,-5.3501,-5.3501,-5.3501,-5.3501,-5.3501,-5.3501,-5.3501,-5.3501,-5.3501,-5.3501,-5.3501,-5.3501,-5.3501,-5.3501,-5.3501,-5.3501,-3.9388,-3.9388,-3.9388,-3.9388,-3.9388,0.0,0.0,-3.9388,-3.9388,-3.9388,-3.9388,-3.9388,-3.9388,-3.9388,-3.9388,-3.9388,-3.9388,-3.9388,-3.9388,-3.9388,-3.9388,-3.9388,-3.9388,-3.9388,-3.9388,-3.9388,-3.9388,-3.9388,-3.9388,-3.9388,-3.9388,-3.9388,-3.9388,-3.9388,-3.9388,-3.9388,-3.9388,-3.9388,-3.9589,-3.9903,-3.9903,-4.0247,-4.0891,-4.0891,-4.1287,-4.1931,-4.2246,-4.259,-4.2865,-4.317,-4.3591,-4.422,-4.5654,-4.6781,-4.7688,-4.8639,-4.9001,-4.9001,-4.9001,-4.9238,-4.961,-4.9965,-5.0591,-5.1336,-5.208,-5.2858,-5.3501,-5.3501,-5.3501,-5.3501,-5.3501,-5.3501,-5.3501,-5.3501,-5.3501,-5.3501,-5.3501,-5.3501,-5.3501,-5.3501,-5.3501,-5.3501,-5.3501,-5.3501,-5.3501,-5.3501,-5.3501,-5.3501,-5.3501,-5.3501,-5.3501,-5.3501,-5.3501,-5.3501,-5.3501,-5.3501,-5.3501,-5.3501,-5.3501,-5.3501,-5.3501,-5.3501,-5.3501,-5.3501,-5.3501,-5.3501,-5.3501,-5.3501,-5.3501,-5.3501,-5.3501,-5.3501,-3.9388,-3.9388,-3.9388,-3.9388,-3.9388,-3.9388,0.0,0.0,0.0,-3.9388,-3.9388,-3.9388,-3.9388,-3.9388,-3.9379,-3.9245,-3.9334,-3.9328,-3.9245,-3.9298,-3.9388,-3.9388,-3.9388,-3.9388,-3.9388,-3.9388,-3.9388,-3.9388,-3.9388,-3.9388,-3.9388,-3.9388,-3.9388,-3.9388,-3.9388,-3.9388,-3.9388,-3.9388,-3.9388,-3.9388,-3.9388,-3.9694,-4.0217,-4.0217,-4.0561,-4.1235,-4.1931,-4.2276,-4.2455,-4.306,-4.329,-4.3472,-4.5217,-4.6504,-4.744,-4.837,-4.8829,-4.9001,-4.9001,-4.9001,-4.9103,-4.9678,-4.9965,-5.0371,-5.186,-5.2756,-5.3298,-5.3467,-5.3501,-5.3501,-5.3501,-5.3501,-5.3501,-5.3501,-5.3501,-5.3501,-5.3501,-5.3501,-5.3501,-5.3501,-5.3501,-5.3501,-5.3501,-5.3501,-5.3501,-5.3501,-5.3501,-5.3501,-5.3501,-5.3501,-5.3501,-5.3501,-5.3501,-5.3501,-5.3501,-5.3501,-5.3501,-5.3501,-5.3501,-5.3501,-5.3501,-5.3501,-5.3501,-5.3501,-5.3501,-5.3501,-5.3501,-5.3501,-5.3501,-5.3501,-5.3501,-5.3501,-3.9388,-3.9388,-3.9388,-3.9388,-3.9388,-3.9388,-3.9388,0.0,-3.9388,-3.9388,0.0,-3.9388,-3.9388,0.0,0.0,-3.8601,-3.902,-3.92,-3.8601,-3.9035,-3.9388,-3.9388,-3.9388,-3.9388,-3.9388,-3.9388,-3.9388,-3.9388,-3.9388,-3.9388,-3.9388,-3.9388,-3.9388,-3.9388,-3.9388,-3.9388,-3.9388,-3.9388,-3.9388,-3.9388,-3.9388,-3.9454,-3.9493,-3.9493,-3.9888,-4.0546,-4.1205,-4.1856,-4.2455,-4.306,-4.329,-4.3409,-4.451,-4.5525,-4.6454,-4.7406,-4.8289,-4.9001,-4.9001,-4.9001,-4.9018,-4.9103,-4.956,-5.0371,-5.186,-5.2367,-5.2587,-5.3298,-5.3501,-5.3501,-5.3501,-5.3501,-5.3501,-5.3501,-5.3501,-5.3501,-5.3501,-5.3501,-5.3501,-5.3501,-5.3501,-5.3501,-5.3501,-5.3501,-5.3501,-5.3501,-5.3501,-5.3501,-5.3501,-5.3501,-5.3501,-5.3501,-5.3501,-5.3501,-5.3501,-5.3501,-5.3501,-5.3501,-5.3501,-5.3501,-5.3501,-5.3501,-5.3501,-5.3501,-5.3501,-5.3501,-5.3501,-5.3501,-5.3501,-5.3501,-5.3501,-5.3501,-3.9388,-3.9388,-3.9388,-3.9388,-3.9388,-3.9388,-3.9388,-3.9388,-3.9388,-3.9388,0.0,0.0,0.0,0.0,0.0,0.0,-3.923,-3.932,-3.9035,-3.923,-3.9388,-3.9388,-3.9388,-3.9388,-3.9388,-3.9388,-3.9388,-3.9388,-3.9388,-3.9388,-3.9388,-3.9388,-3.9388,-3.9388,-3.9388,-3.9388,-3.9388,-3.9388,-3.9388,-3.9388,-3.9388,-3.9388,-3.9388,-3.9388,-3.9574,-3.9873,-4.0531,-4.119,-4.1886,-4.2491,-4.2985,-4.3329,-4.3771,-4.4878,-4.6314,-4.7273,-4.8193,-4.9001,-4.9001,-4.9001,-4.9001,-4.9001,-4.9492,-5.0202,-5.0828,-5.1623,-5.2367,-5.2706,-5.3145,-5.3501,-5.3501,-5.3501,-5.3501,-5.3501,-5.3501,-5.3501,-5.3501,-5.3501,-5.3501,-5.3501,-5.3501,-5.3501,-5.3501,-5.3501,-5.3501,-5.3501,-5.3501,-5.3501,-5.3501,-5.3501,-5.3501,-5.3501,-5.3501,-5.3501,-5.3501,-5.3501,-5.3501,-5.3501,-5.3501,-5.3501,-5.3501,-5.3501,-5.3501,-5.3501,-5.3501,-5.3501,-5.3501,-5.3501,-5.3501,-5.3501,-5.3501,-5.3501,-3.9388,-3.9388,-3.9388,-3.9388,-3.9388,-3.9388,-3.9388,-3.9388,-3.9388,-3.9388,-3.9388,0.0,0.0,0.0,-3.9328,-3.917,0.0,-3.9349,-3.917,-3.9269,-3.9388,-3.9388,-3.9388,-3.9388,-3.9388,-3.9388,-3.9388,-3.9388,-3.9388,-3.9388,-3.9388,-3.9388,-3.9388,-3.9388,-3.9388,-3.9388,-3.9388,-3.9388,-3.9388,-3.9388,-3.9388,-3.9388,-3.9388,-3.9388,-3.9388,-3.9454,-4.0113,-4.0771,-4.1467,-4.2126,-4.2746,-4.329,-4.329,-4.4343,-4.5941,-4.6884,-4.7803,-4.8656,-4.8909,-4.9001,-4.9001,-4.9001,-4.9357,-4.983,-5.0033,-5.098,-5.2046,-5.2249,-5.2892,-5.3501,-5.3501,-5.3501,-5.3501,-5.3501,-5.3501,-5.3501,-5.3501,-5.3501,-5.3501,-5.3501,-5.3501,-5.3501,-5.3501,-5.3501,-5.3501,-5.3501,-5.3501,-5.3501,-5.3501,-5.3501,-5.3501,-5.3501,-5.3501,-5.3501,-5.3501,-5.3501,-5.3501,-5.3501,-5.3501,-5.3501,-5.3501,-5.3501,-5.3501,-5.3501,-5.3501,-5.3501,-5.3501,-5.3501,-5.3501,-5.3501,-5.3501,-5.3501,-3.9388,-3.9388,-3.9388,-3.9388,-3.9388,-3.9388,-3.9388,-3.9388,-3.9388,-3.9388,-3.9388,-3.9388,-3.9388,-3.9388,-3.92,-3.8527,-3.899,0.0,0.0,-3.899,-3.9388,-3.9388,-3.9388,-3.9388,-3.9388,-3.9388,-3.9388,-3.9388,-3.9388,-3.9388,-3.9388,-3.9388,-3.9388,-3.9388,-3.9388,-3.9388,-3.9388,-3.9388,-3.9388,-3.9388,-3.9388,-3.9388,-3.9388,-3.9388,-3.9388,-3.9454,-4.0113,-4.0771,-4.1467,-4.2126,-4.2746,-4.329,-4.329,-4.3912,-4.4946,-4.5905,-4.685,-4.777,-4.8688,-4.9001,-4.9001,-4.9001,-4.9018,-4.9171,-4.9864,-5.0642,-5.1403,-5.2097,-5.2892,-5.3501,-5.3501,-5.3501,-5.3501,-5.3501,-5.3501,-5.3501,-5.3501,-5.3501,-5.3501,-5.3501,-5.3501,-5.3501,-5.3501,-5.3501,-5.3501,-5.3501,-5.3501,-5.3501,-5.3501,-5.3501,-5.3501,-5.3501,-5.3501,-5.3501,-5.3501,-5.3501,-5.3501,-5.3501,-5.3501,-5.3501,-5.3501,-5.3501,-5.3501,-5.3501,-5.3501,-5.3501,-5.3501,-5.3501,-5.3501,-5.3501,-5.3501,-5.3501,-3.9388,-3.9388,-3.9388,-3.9388,-3.9388,-3.9388,-3.9388,-3.9388,-3.9388,-3.9388,-3.9388,-3.9388,-3.9388,-3.9388,-3.9349,-3.911,-3.9275,-3.9298,0.0,-3.9275,-3.9388,-3.9388,-3.9388,-3.9388,-3.9388,-3.9388,-3.9388,-3.9388,-3.9388,-3.9388,-3.9388,-3.9388,-3.9388,-3.9388,-3.9388,-3.9388,-3.9388,-3.9388,-3.9388,-3.9388,-3.9388,-3.9388,-3.9388,-3.9388,-3.9388,-3.9388,-3.9649,-4.0127,-4.0786,-4.1482,-4.2141,-4.2731,-4.3125,-4.3512,-4.3927,-4.4893,-4.5869,-4.6815,-4.777,-4.8465,-4.9001,-4.9001,-4.9001,-4.9052,-4.9306,-4.9881,-5.0625,-5.1369,-5.2131,-5.2841,-5.3365,-5.3501,-5.3501,-5.3501,-5.3501,-5.3501,-5.3501,-5.3501,-5.3501,-5.3501,-5.3501,-5.3501,-5.3501,-5.3501,-5.3501,-5.3501,-5.3501,-5.3501,-5.3501,-5.3501,-5.3501,-5.3501,-5.3501,-5.3501,-5.3501,-5.3501,-5.3501,-5.3501,-5.3501,-5.3501,-5.3501,-5.3501,-5.3501,-5.3501,-5.3501,-5.3501,-5.3501,-5.3501,-5.3501,-5.3501,-5.3501,-5.3501,-3.9388,-3.9388,-3.9388,-3.9388,-3.9388,-3.9388,-3.9388,-3.9388,-3.9388,-3.9388,-3.9388,-3.9388,-3.9388,-3.9388,-3.9388,-3.9388,-3.9388,-3.9388,0.0,-3.9388,-3.9388,-3.9388,-3.9388,-3.9388,-3.9388,-3.9388,-3.9388,-3.9388,-3.9388,-3.9388,-3.9388,-3.9388,-3.9388,-3.9388,-3.9388,-3.9388,-3.9388,-3.9388,-3.9388,-3.9388,-3.9388,-3.9388,-3.9388,-3.9388,-3.9388,-3.9388,-3.9388,-3.9783,-4.0442,-4.1115,-4.1811,-4.247,-4.3075,-4.329,-4.3409,-4.4434,-4.5395,-4.6279,-4.6884,-4.7489,-4.8047,-4.8401,-4.8513,-4.8513,-4.8513,-4.9016,-4.9704,-5.019,-5.1028,-5.2001,-5.2859,-5.3298,-5.3501,-5.3501,-5.3501,-5.3501,-5.3501,-5.3501,-5.3501,-5.3501,-5.3501,-5.3501,-5.3501,-5.3501,-5.3501,-5.3501,-5.3501,-5.3501,-5.3501,-5.3501,-5.3501,-5.3501,-5.3501,-5.3501,-5.3501,-5.3501,-5.3501,-5.3501,-5.3501,-5.3501,-5.3501,-5.3501,-5.3501,-5.3501,-5.3501,-5.3501,-5.3501,-5.3501,-5.3501,-5.3501,-5.3501,-5.3501]}]]